[[{"header":{"parameterUnit":"m.s-1","parameterCategory":1,"la1":30.6,"la2":28.766,"lo1":-90.7593,"lo2":-88.6598,"dy":0.0162,"dx":0.0183,"nx":116,"ny":114,"refTime":"2024-03-29T18:00:00:Z","depth":0,"parameterNumber":2,"parameterNumberName":"U-component_of_WINDS"},"data":[0.0,0.0,0.0,0.0,0.0,0.0,0.0,0.0,0.0,0.0,0.0,0.0,0.0,0.0,0.0,0.0,0.0,0.0,0.0,0.0,0.0,0.0,0.0,0.0,0.0,0.0,0.0,0.0,0.0,0.0,0.0,0.0,0.0,0.0,0.0,0.0,0.0,0.0,0.0,0.0,0.0,0.0,0.0,0.0,0.0,0.0,0.0,0.0,0.0,0.0,0.0,0.0,0.0,0.0,0.0,0.0,0.0,0.0,0.0,0.0,0.0,0.0,0.0,0.0,0.0,0.0,0.0,0.0,0.0,0.0,0.0,0.0,0.0,0.0,0.0,0.0,0.0,0.0,0.0,0.0,0.0,0.0,0.0,0.0,0.0,0.0,0.0,0.0,0.0,0.0,0.0,0.0,0.0,0.0,0.0,0.0,0.0,0.0,0.0,0.0,0.0,0.0,0.0,0.0,0.0,0.0,0.0,0.0,0.0,0.0,0.0,0.0,0.0,0.0,0.0,0.0,0.0,0.0,0.0,0.0,0.0,0.0,0.0,0.0,0.0,0.0,0.0,0.0,0.0,0.0,0.0,0.0,0.0,0.0,0.0,0.0,0.0,0.0,0.0,0.0,0.0,0.0,0.0,0.0,0.0,0.0,0.0,0.0,0.0,0.0,0.0,0.0,0.0,0.0,0.0,0.0,0.0,0.0,0.0,0.0,0.0,0.0,0.0,0.0,0.0,0.0,0.0,0.0,0.0,0.0,0.0,0.0,0.0,0.0,0.0,0.0,0.0,0.0,0.0,0.0,0.0,0.0,0.0,0.0,0.0,0.0,0.0,0.0,0.0,0.0,0.0,0.0,0.0,0.0,0.0,0.0,0.0,0.0,0.0,0.0,0.0,0.0,0.0,0.0,0.0,0.0,0.0,0.0,0.0,0.0,0.0,0.0,0.0,0.0,0.0,0.0,0.0,0.0,0.0,0.0,0.0,0.0,0.0,0.0,0.0,0.0,0.0,0.0,0.0,0.0,0.0,0.0,0.0,0.0,0.0,0.0,0.0,0.0,0.0,0.0,0.0,0.0,0.0,0.0,0.0,0.0,0.0,0.0,0.0,0.0,0.0,0.0,0.0,0.0,0.0,0.0,0.0,0.0,0.0,0.0,0.0,0.0,0.0,0.0,0.0,0.0,0.0,0.0,0.0,0.0,0.0,0.0,0.0,0.0,0.0,0.0,0.0,0.0,0.0,0.0,0.0,0.0,0.0,0.0,0.0,0.0,0.0,0.0,0.0,0.0,0.0,0.0,0.0,0.0,0.0,0.0,0.0,0.0,0.0,0.0,0.0,0.0,0.0,0.0,0.0,0.0,0.0,0.0,0.0,0.0,0.0,0.0,0.0,0.0,0.0,0.0,0.0,0.0,0.0,0.0,0.0,0.0,0.0,0.0,0.0,0.0,0.0,0.0,0.0,0.0,0.0,0.0,0.0,0.0,0.0,0.0,0.0,0.0,0.0,0.0,0.0,0.0,0.0,0.0,0.0,0.0,0.0,0.0,0.0,0.0,0.0,0.0,0.0,0.0,0.0,0.0,0.0,0.0,0.0,0.0,0.0,0.0,0.0,0.0,0.0,0.0,0.0,0.0,0.0,0.0,0.0,0.0,0.0,0.0,0.0,0.0,0.0,0.0,0.0,0.0,0.0,0.0,0.0,0.0,0.0,0.0,0.0,0.0,0.0,0.0,0.0,0.0,0.0,0.0,0.0,0.0,0.0,0.0,0.0,0.0,0.0,0.0,0.0,0.0,0.0,0.0,0.0,0.0,0.0,0.0,0.0,0.0,0.0,0.0,0.0,0.0,0.0,0.0,0.0,0.0,0.0,0.0,0.0,0.0,0.0,0.0,0.0,0.0,0.0,0.0,0.0,0.0,0.0,0.0,0.0,0.0,0.0,0.0,0.0,0.0,0.0,0.0,0.0,0.0,0.0,0.0,0.0,0.0,0.0,0.0,0.0,0.0,0.0,0.0,0.0,0.0,0.0,0.0,0.0,0.0,0.0,0.0,0.0,0.0,0.0,0.0,0.0,0.0,0.0,0.0,0.0,0.0,0.0,0.0,0.0,0.0,0.0,0.0,0.0,0.0,0.0,0.0,0.0,0.0,0.0,0.0,0.0,0.0,0.0,0.0,0.0,0.0,0.0,0.0,0.0,0.0,0.0,0.0,0.0,0.0,0.0,0.0,0.0,0.0,0.0,0.0,0.0,0.0,0.0,0.0,0.0,0.0,0.0,0.0,0.0,0.0,0.0,0.0,0.0,0.0,0.0,0.0,0.0,0.0,0.0,0.0,0.0,0.0,0.0,0.0,0.0,0.0,0.0,0.0,0.0,0.0,0.0,0.0,0.0,0.0,0.0,0.0,0.0,0.0,0.0,0.0,0.0,0.0,0.0,0.0,0.0,0.0,0.0,0.0,0.0,0.0,0.0,0.0,0.0,0.0,0.0,0.0,0.0,0.0,0.0,0.0,0.0,0.0,0.0,0.0,0.0,0.0,0.0,0.0,0.0,0.0,0.0,0.0,0.0,0.0,0.0,0.0,0.0,0.0,0.0,0.0,0.0,0.0,0.0,0.0,0.0,0.0,0.0,0.0,0.0,0.0,0.0,0.0,0.0,0.0,0.0,0.0,0.0,0.0,0.0,0.0,0.0,0.0,0.0,0.0,0.0,0.0,0.0,0.0,0.0,0.0,0.0,0.0,0.0,0.0,0.0,0.0,0.0,0.0,0.0,0.0,0.0,0.0,0.0,0.0,0.0,0.0,0.0,0.0,0.0,0.0,0.0,0.0,0.0,0.0,0.0,0.0,0.0,0.0,0.0,0.0,0.0,0.0,0.0,0.0,0.0,0.0,0.0,0.0,0.0,0.0,0.0,0.0,0.0,0.0,0.0,0.0,0.0,0.0,0.0,0.0,0.0,0.0,0.0,0.0,0.0,0.0,0.0,0.0,0.0,0.0,0.0,0.0,0.0,0.0,0.0,0.0,0.0,0.0,0.0,0.0,0.0,0.0,0.0,0.0,0.0,0.0,0.0,0.0,0.0,0.0,0.0,0.0,0.0,0.0,0.0,0.0,0.0,0.0,0.0,0.0,0.0,0.0,0.0,0.0,0.0,0.0,0.0,0.0,0.0,0.0,0.0,0.0,0.0,0.0,0.0,0.0,0.0,0.0,0.0,0.0,0.0,0.0,0.0,0.0,0.0,0.0,0.0,0.0,0.0,0.0,0.0,0.0,0.0,0.0,0.0,0.0,0.0,0.0,0.0,0.0,0.0,0.0,0.0,0.0,0.0,0.0,0.0,0.0,0.0,0.0,0.0,0.0,0.0,0.0,0.0,0.0,0.0,0.0,0.0,0.0,0.0,0.0,0.0,0.0,0.0,0.0,0.0,0.0,0.0,0.0,0.0,0.0,0.0,0.0,0.0,0.0,0.0,0.0,0.0,0.0,0.0,0.0,0.0,0.0,0.0,0.0,0.0,0.0,0.0,0.0,0.0,0.0,0.0,0.0,0.0,0.0,0.0,0.0,0.0,0.0,0.0,0.0,0.0,0.0,0.0,0.0,0.0,0.0,0.0,0.0,0.0,0.0,0.0,0.0,0.0,0.0,0.0,0.0,0.0,0.0,0.0,0.0,0.0,0.0,0.0,0.0,0.0,0.0,0.0,0.0,0.0,0.0,0.0,0.0,0.0,0.0,0.0,0.0,0.0,0.0,0.0,0.0,0.0,0.0,0.0,0.0,0.0,0.0,0.0,0.0,0.0,0.0,0.0,0.0,0.0,0.0,0.0,0.0,0.0,0.0,0.0,0.0,0.0,0.0,0.0,0.0,0.0,0.0,0.0,0.0,0.0,0.0,0.0,0.0,0.0,0.0,0.0,0.0,0.0,0.0,0.0,0.0,0.0,0.0,0.0,0.0,0.0,0.0,0.0,0.0,0.0,0.0,0.0,0.0,0.0,0.0,0.0,0.0,0.0,0.0,0.0,0.0,0.0,0.0,0.0,0.0,0.0,0.0,0.0,0.0,0.0,0.0,0.0,0.0,0.0,0.0,0.0,0.0,0.0,0.0,0.0,0.0,0.0,0.0,0.0,0.0,0.0,0.0,0.0,0.0,0.0,0.0,0.0,0.0,0.0,0.0,0.0,0.0,0.0,0.0,0.0,0.0,0.0,0.0,0.0,0.0,0.0,0.0,0.0,0.0,0.0,0.0,0.0,0.0,0.0,0.0,0.0,0.0,0.0,0.0,0.0,0.0,0.0,0.0,0.0,0.0,0.0,0.0,0.0,0.0,0.0,0.0,0.0,0.0,0.0,0.0,0.0,0.0,0.0,0.0,0.0,0.0,0.0,0.0,0.0,0.0,0.0,0.0,0.0,0.0,0.0,0.0,0.0,0.0,0.0,0.0,0.0,0.0,0.0,0.0,0.0,0.0,0.0,0.0,0.0,0.0,0.0,0.0,0.0,0.0,0.0,0.0,0.0,0.0,0.0,0.0,0.0,0.0,0.0,0.0,0.0,0.0,0.0,0.0,0.0,0.0,0.0,0.0,0.0,0.0,0.0,0.0,0.0,0.0,0.0,0.0,0.0,0.0,0.0,0.0,0.0,0.0,0.0,0.0,0.0,0.0,0.0,0.0,0.0,0.0,0.0,0.0,0.0,0.0,0.0,0.0,0.0,0.0,0.0,0.0,0.0,0.0,0.0,0.0,0.0,0.0,0.0,0.0,0.0,0.0,0.0,0.0,0.0,0.0,0.0,0.0,0.0,0.0,0.0,0.0,0.0,0.0,0.0,0.0,0.0,0.0,0.0,0.0,0.0,0.0,0.0,0.0,0.0,0.0,0.0,0.0,0.0,0.0,0.0,0.0,0.0,0.0,0.0,0.0,0.0,0.0,0.0,0.0,0.0,0.0,0.0,0.0,0.0,0.0,0.0,0.0,0.0,0.0,0.0,0.0,0.0,0.0,0.0,0.0,0.0,0.0,0.0,0.0,0.0,0.0,0.0,0.0,0.0,0.0,0.0,0.0,0.0,0.0,0.0,0.0,0.0,0.0,0.0,0.0,0.0,0.0,0.0,0.0,0.0,0.0,0.0,0.0,0.0,0.0,0.0,0.0,0.0,0.0,0.0,0.0,0.0,0.0,0.0,0.0,0.0,0.0,0.0,0.0,0.0,0.0,0.0,0.0,0.0,0.0,0.0,0.0,0.0,0.0,0.0,0.0,0.0,0.0,0.0,0.0,0.0,0.0,0.0,0.0,0.0,0.0,0.0,0.0,0.0,0.0,0.0,0.0,0.0,0.0,0.0,0.0,0.0,0.0,0.0,0.0,0.0,0.0,0.0,0.0,0.0,0.0,0.0,0.0,0.0,0.0,0.0,0.0,0.0,0.0,0.0,0.0,0.0,0.0,0.0,0.0,0.0,0.0,0.0,0.0,0.0,0.0,0.0,0.0,0.0,0.0,0.0,0.0,0.0,0.0,0.0,0.0,0.0,0.0,0.0,0.0,0.0,0.0,0.0,0.0,0.0,0.0,0.0,0.0,0.0,0.0,0.0,0.0,0.0,0.0,0.0,0.0,0.0,0.0,0.0,0.0,0.0,0.0,0.0,0.0,0.0,0.0,0.0,0.0,0.0,0.0,0.0,0.0,0.0,0.0,0.0,0.0,0.0,0.0,0.0,0.0,0.0,0.0,0.0,0.0,0.0,0.0,0.0,0.0,0.0,0.0,0.0,0.0,0.0,0.0,0.0,0.0,0.0,0.0,0.0,0.0,0.0,0.0,0.0,0.0,0.0,0.0,0.0,0.0,0.0,0.0,0.0,0.0,0.0,0.0,0.0,0.0,0.0,0.0,0.0,0.0,0.0,0.0,0.0,0.0,0.0,0.0,0.0,0.0,0.0,0.0,0.0,0.0,0.0,0.0,0.0,0.0,0.0,0.0,0.0,0.0,0.0,0.0,0.0,0.0,0.0,0.0,0.0,0.0,0.0,0.0,0.0,0.0,0.0,0.0,0.0,0.0,0.0,0.0,0.0,0.0,0.0,0.0,0.0,0.0,0.0,0.0,0.0,0.0,0.0,0.0,4.0709,0.0,0.0,0.0,0.0,0.0,0.0,0.0,0.0,0.0,0.0,0.0,0.0,0.0,0.0,0.0,0.0,0.0,0.0,0.0,0.0,0.0,0.0,0.0,0.0,5.2698,5.2698,5.2698,5.2698,5.2698,5.2698,0.0,0.0,0.0,0.0,0.0,5.4622,5.4873,5.5206,5.5597,5.5538,5.5948,5.6761,5.6761,5.6761,5.6761,0.0,0.0,0.0,0.0,0.0,0.0,0.0,0.0,0.0,0.0,0.0,0.0,0.0,0.0,0.0,0.0,0.0,0.0,0.0,0.0,0.0,0.0,0.0,0.0,0.0,0.0,0.0,0.0,0.0,0.0,0.0,0.0,0.0,0.0,0.0,0.0,0.0,0.0,0.0,0.0,0.0,0.0,0.0,0.0,0.0,0.0,0.0,0.0,0.0,0.0,0.0,0.0,0.0,0.0,0.0,0.0,0.0,0.0,0.0,0.0,0.0,0.0,0.0,0.0,0.0,0.0,0.0,0.0,0.0,0.0,0.0,4.0961,0.0,0.0,0.0,0.0,0.0,0.0,0.0,0.0,0.0,0.0,0.0,0.0,0.0,0.0,0.0,0.0,0.0,0.0,0.0,0.0,0.0,5.2698,5.2698,5.2698,5.2698,5.2698,5.2821,5.2793,5.2702,5.2544,0.0,0.0,5.3953,5.4291,5.4707,5.505,5.532,5.5521,5.562,5.6145,5.6761,5.6761,5.6761,5.6761,5.6761,0.0,0.0,0.0,0.0,0.0,0.0,0.0,0.0,0.0,0.0,0.0,0.0,0.0,0.0,0.0,0.0,0.0,0.0,0.0,0.0,0.0,0.0,0.0,0.0,0.0,0.0,0.0,0.0,0.0,0.0,0.0,0.0,0.0,0.0,0.0,0.0,0.0,0.0,0.0,0.0,0.0,0.0,0.0,0.0,0.0,0.0,0.0,0.0,0.0,0.0,0.0,0.0,0.0,0.0,0.0,0.0,0.0,0.0,0.0,0.0,0.0,0.0,0.0,4.2132,4.2339,4.2339,4.2339,4.2339,4.2293,4.1443,4.1329,4.1696,0.0,0.0,0.0,0.0,0.0,0.0,0.0,0.0,0.0,0.0,0.0,0.0,0.0,0.0,0.0,0.0,0.0,0.0,0.0,0.0,5.2698,5.2698,5.2698,5.2698,5.2698,5.3252,5.3285,5.254,5.2442,5.297,5.4352,5.3112,5.3363,5.527,5.4756,5.4815,5.5521,5.6244,5.6664,5.6761,5.6761,5.6761,5.6761,5.6761,5.6342,5.5421,0.0,0.0,0.0,0.0,0.0,0.0,0.0,0.0,0.0,0.0,0.0,0.0,0.0,0.0,0.0,0.0,0.0,0.0,0.0,0.0,0.0,0.0,0.0,0.0,0.0,0.0,0.0,0.0,0.0,0.0,0.0,0.0,0.0,0.0,0.0,0.0,0.0,0.0,0.0,0.0,0.0,4.3802,4.257,0.0,0.0,0.0,0.0,0.0,0.0,0.0,0.0,0.0,0.0,0.0,0.0,0.0,0.0,4.2132,4.2201,4.2224,4.2247,4.2293,4.2339,4.2339,4.2339,4.2339,4.2339,4.2201,0.0,4.2224,4.2224,0.0,0.0,0.0,0.0,0.0,0.0,0.0,0.0,0.0,0.0,0.0,0.0,0.0,0.0,0.0,0.0,0.0,0.0,0.0,0.0,0.0,5.3622,5.3837,5.3837,5.4114,5.4082,5.3802,5.3226,5.3307,5.4428,5.3246,5.3256,5.4786,5.4509,5.4713,5.5521,5.6342,5.6761,5.6761,5.6761,5.6761,5.6761,5.6761,5.6567,5.6145,5.532,0.0,0.0,0.0,0.0,0.0,0.0,0.0,0.0,0.0,0.0,0.0,0.0,0.0,0.0,0.0,0.0,0.0,0.0,0.0,0.0,0.0,0.0,0.0,0.0,0.0,0.0,0.0,0.0,0.0,0.0,0.0,0.0,0.0,0.0,0.0,0.0,0.0,0.0,0.0,4.3927,4.2822,4.2339,4.2339,4.2339,0.0,0.0,0.0,0.0,0.0,0.0,0.0,0.0,0.0,4.2339,4.2339,4.2339,4.2339,4.2339,4.2339,4.2339,4.2339,4.2339,4.2339,4.2339,4.2339,4.2339,4.2339,4.2339,4.2339,4.2339,4.2339,4.2339,0.0,0.0,0.0,0.0,0.0,4.1142,0.0,0.0,0.0,0.0,0.0,0.0,0.0,0.0,0.0,0.0,0.0,0.0,5.3991,5.4422,5.473,5.473,5.4884,5.4882,5.4694,5.3913,5.3769,5.4371,5.3286,5.3232,5.4304,5.4509,5.5018,5.5819,5.6439,5.6761,5.6761,5.6761,5.6761,5.6761,5.6761,5.6761,5.6761,5.5819,5.5119,5.4509,0.0,0.0,0.0,0.0,0.0,0.0,0.0,0.0,0.0,0.0,0.0,0.0,0.0,0.0,0.0,0.0,0.0,0.0,0.0,0.0,0.0,0.0,0.0,0.0,0.0,0.0,0.0,0.0,0.0,0.0,0.0,0.0,0.0,0.0,0.0,0.0,0.0,4.32,4.2339,4.2339,4.2339,4.2339,0.0,0.0,0.0,0.0,0.0,0.0,4.2339,4.2339,4.2339,4.2339,4.2339,4.2339,4.2339,4.2339,4.2339,4.2339,4.2339,4.2339,4.2339,4.2339,4.2339,4.2339,4.2339,4.2339,4.2339,4.2339,4.2339,4.2339,4.2339,4.2339,4.2212,4.1934,4.1806,4.1527,0.0,0.0,0.0,0.0,0.0,0.0,0.0,0.0,0.0,0.0,0.0,5.4668,5.4668,5.4699,5.473,5.473,5.5284,5.5367,5.4594,5.4399,5.4245,5.4347,5.2701,5.2623,5.4304,5.5018,5.5819,5.6761,5.6761,5.6761,5.6761,5.6761,5.6761,5.6761,5.6761,5.6761,5.6761,5.5819,5.5521,5.522,5.2963,0.0,0.0,0.0,0.0,0.0,0.0,0.0,0.0,0.0,0.0,0.0,0.0,0.0,0.0,0.0,0.0,0.0,0.0,0.0,0.0,0.0,0.0,0.0,0.0,0.0,0.0,0.0,0.0,0.0,0.0,0.0,0.0,0.0,0.0,0.0,0.0,0.0,0.0,4.2339,4.2339,0.0,0.0,0.0,0.0,4.2339,4.2339,4.2339,4.2339,4.2339,4.2339,4.2339,4.2339,4.2339,4.2339,4.2339,4.2339,4.2339,4.2339,4.2339,4.2339,4.2339,4.2339,4.2339,4.2339,4.2339,4.2339,4.2339,4.2339,4.2339,4.2339,4.2339,4.2212,4.0732,4.0322,4.0062,0.0,0.0,0.0,0.0,0.0,5.473,5.473,5.473,5.473,5.473,5.5099,5.5345,5.5345,5.5776,5.6053,5.6053,5.6238,5.6296,5.6005,5.4899,5.4304,5.4304,5.3232,5.3337,5.5018,5.5948,5.6439,5.6761,5.6761,5.6977,5.7408,5.7408,5.7654,5.8054,5.7623,5.7408,5.7377,5.6623,5.6047,5.5421,5.4215,5.2934,0.0,0.0,0.0,0.0,0.0,0.0,0.0,0.0,0.0,0.0,0.0,0.0,0.0,0.0,0.0,0.0,0.0,0.0,0.0,0.0,0.0,0.0,0.0,0.0,0.0,0.0,0.0,0.0,0.0,0.0,0.0,0.0,0.0,0.0,0.0,0.0,0.0,4.2775,4.2522,0.0,4.2798,4.2522,4.2339,4.2339,4.2339,4.2339,4.2339,4.2339,4.2339,4.2339,4.2339,4.2339,4.2339,4.2339,4.2339,4.2339,4.2339,4.2339,4.2339,4.2339,4.2339,4.2339,4.2339,4.2339,4.2339,4.2339,4.2339,4.2339,4.2339,4.2339,4.2212,4.1806,4.1527,4.1527,0.0,0.0,0.0,0.0,0.0,5.5407,5.5407,5.5407,5.5407,5.5407,5.5807,5.6053,5.6053,5.6484,5.6761,5.6761,5.6761,5.6761,5.6761,5.522,5.4406,5.4713,5.4171,5.4377,5.5521,5.6586,5.71,5.71,5.7315,5.7685,5.8116,5.8116,5.8362,5.8762,5.83,5.8116,5.8085,5.7623,5.6868,5.5918,5.516,5.4112,5.2828,0.0,0.0,0.0,0.0,0.0,0.0,0.0,0.0,0.0,0.0,0.0,0.0,0.0,0.0,0.0,0.0,0.0,0.0,0.0,0.0,0.0,0.0,0.0,0.0,0.0,0.0,0.0,0.0,0.0,0.0,0.0,0.0,0.0,0.0,0.0,4.2454,4.2798,4.2545,4.2477,4.2798,4.2522,4.2339,4.2339,4.2339,4.2339,4.2339,4.2339,4.2339,4.2339,4.2339,4.2339,4.2339,4.2339,4.2339,4.2339,4.2339,4.2339,4.2339,4.2339,4.2431,4.2591,4.2591,4.2683,4.2821,4.2821,4.2821,4.2798,4.2477,4.2339,4.2339,4.2339,4.2339,4.2362,0.0,0.0,0.0,0.0,0.0,5.6761,5.6761,5.6761,5.6761,5.6761,5.6761,5.6761,5.6761,5.6761,5.6761,5.6761,5.6761,5.6761,5.6761,5.522,5.4713,5.5421,5.5551,5.5551,5.5551,5.7045,5.7808,5.7808,5.8454,5.8793,5.8824,5.8824,5.8824,5.8854,5.8824,5.8824,5.8824,5.8793,5.8023,5.6823,5.588,5.519,5.442,0.0,0.0,0.0,0.0,0.0,0.0,0.0,0.0,0.0,0.0,0.0,0.0,0.0,0.0,0.0,0.0,0.0,0.0,0.0,0.0,0.0,0.0,0.0,0.0,0.0,0.0,0.0,0.0,0.0,0.0,0.0,0.0,0.0,4.2339,4.2339,4.2339,4.2362,4.2339,4.2339,4.2362,4.2339,4.2339,4.2339,4.2339,4.2339,4.2339,4.2339,4.2339,4.2339,4.2339,4.2339,4.2362,4.2362,4.2362,4.2385,4.2385,4.2385,4.2385,4.2385,4.266,4.3119,4.3119,4.3372,4.3808,4.3808,4.3808,4.3716,4.2752,4.2385,4.2385,4.2385,4.2385,4.2454,0.0,0.0,0.0,5.6761,5.6761,5.6761,5.6761,5.6761,5.6761,5.6761,5.6761,5.6761,5.6761,5.6761,5.6761,5.6761,5.6761,5.6311,5.523,5.519,5.522,5.5521,5.5973,5.6546,5.7174,5.8047,5.8516,5.8516,5.8701,5.9039,5.9501,5.9501,5.9778,6.0209,5.9716,5.9501,5.947,5.9008,5.8577,5.8177,5.7488,5.6345,5.4923,0.0,0.0,0.0,0.0,0.0,0.0,0.0,0.0,0.0,0.0,0.0,0.0,0.0,0.0,0.0,0.0,0.0,0.0,0.0,0.0,0.0,0.0,0.0,0.0,0.0,0.0,0.0,0.0,0.0,0.0,0.0,4.4852,4.3622,4.2512,4.2339,4.2477,4.2844,4.2568,4.2477,4.2844,4.2545,4.2339,4.2339,4.2339,4.2339,4.2339,4.2339,4.2339,4.2339,4.2339,4.2522,4.289,4.289,4.3051,4.3395,4.3395,4.3395,4.3395,4.3395,4.3487,4.3602,4.3602,4.3693,4.3808,4.3808,4.3808,4.3785,4.351,4.3395,4.3395,4.3395,4.3395,4.3418,0.0,0.0,0.0,5.6761,5.6761,5.6761,5.6761,5.6761,5.6761,5.6761,5.6761,5.6761,5.6761,5.6761,5.6761,5.6761,5.6213,5.5789,5.556,5.5819,5.5971,5.5913,5.6607,5.7373,5.8177,5.8854,5.9193,5.9193,5.9501,5.9839,6.0209,6.0209,6.0424,6.0794,6.0393,6.0209,6.0178,5.9471,5.9287,5.9461,5.8043,5.6972,5.605,5.4584,5.3115,5.1711,5.1041,5.0227,4.9556,4.9186,0.0,0.0,0.0,0.0,0.0,0.0,0.0,0.0,0.0,0.0,0.0,0.0,0.0,0.0,0.0,0.0,0.0,0.0,0.0,0.0,0.0,0.0,0.0,0.0,4.438,4.3402,4.2362,4.2339,4.2454,4.2729,4.2522,4.2454,4.2752,4.25,4.2339,4.2339,4.2522,4.266,4.266,4.2844,4.2959,4.2959,4.2959,4.3096,4.3395,4.3395,4.3533,4.3808,4.3808,4.3808,4.3808,4.3808,4.3923,0.0,4.4153,4.4267,4.4451,4.4451,4.4451,0.0,0.0,0.0,0.0,0.0,4.3946,4.4176,0.0,0.0,0.0,5.6761,5.6761,5.6761,5.6761,5.6761,5.6761,5.6761,5.6761,5.6761,5.6761,5.6761,5.6761,5.6761,5.556,5.5361,5.6664,5.6726,5.661,5.6688,5.7503,5.827,5.8885,5.9562,5.9901,5.9901,6.0517,6.0794,6.069,6.0794,6.069,6.0481,6.0586,6.0586,6.0481,5.9713,5.9819,6.0316,5.804,5.7309,5.7288,5.5496,5.4137,5.2992,5.2239,5.0835,4.932,4.9293,0.0,0.0,0.0,0.0,0.0,0.0,0.0,0.0,0.0,0.0,0.0,0.0,0.0,0.0,0.0,0.0,0.0,0.0,0.0,0.0,0.0,0.0,0.0,0.0,4.3135,4.25,4.25,4.25,4.2477,4.2431,4.2431,4.2431,4.25,4.25,4.25,4.25,4.2913,4.3165,4.3165,0.0,0.0,0.0,0.0,4.3831,4.39,4.39,4.3923,4.3992,4.3992,4.3992,4.3992,4.3992,4.4245,4.4681,4.4681,4.4933,4.537,4.537,4.537,4.5278,4.4336,4.3992,4.3992,4.3992,4.429,0.0,0.0,0.0,0.0,5.6761,5.6761,5.6761,5.647,5.6664,5.6761,5.647,5.6664,5.6761,5.6761,5.6761,5.6761,5.6761,5.6342,5.6145,5.647,5.6073,5.6304,5.7549,5.8723,5.947,5.9593,6.024,6.0609,6.0609,6.0732,6.0481,5.9819,6.0481,6.0031,5.8743,5.9499,5.9392,5.8743,5.8525,5.8525,5.8664,5.7965,5.7523,5.7065,5.5452,5.4006,5.2792,5.2563,5.1948,5.1085,5.0166,4.9729,4.9442,4.8521,4.8172,0.0,0.0,0.0,0.0,0.0,0.0,0.0,0.0,0.0,0.0,0.0,0.0,0.0,0.0,0.0,0.0,0.0,0.0,0.0,4.5086,4.416,4.351,4.351,4.351,4.3372,4.2982,4.2936,4.3096,4.3487,4.351,4.351,4.351,4.3602,4.3671,4.3671,4.3762,0.0,4.3808,4.3808,4.4015,4.4451,4.4451,4.4658,4.5048,0.0,0.0,4.5048,4.5048,4.5117,4.5209,4.5209,4.5278,4.537,4.537,4.537,4.5347,4.514,4.5048,4.5048,4.5048,4.5117,4.5232,0.0,0.0,0.0,5.6823,5.6761,5.6664,5.647,5.647,5.6567,5.6372,5.6372,5.647,5.6567,5.647,5.647,5.6567,5.6567,5.6017,5.4522,5.5861,5.7142,5.827,5.9255,5.9963,6.027,6.064,6.0794,6.0794,6.0794,6.0346,5.9469,5.9925,5.9499,5.8195,5.8634,5.8634,5.8225,5.8102,5.8219,5.8614,5.7916,5.7801,5.7852,5.6652,5.5532,5.4463,5.4228,5.3488,5.2498,5.1549,5.091,5.0312,4.9718,4.927,4.9087,0.0,0.0,0.0,0.0,0.0,0.0,0.0,0.0,0.0,0.0,0.0,0.0,0.0,0.0,4.8131,4.7633,0.0,4.5113,4.4594,4.4071,4.3808,4.3808,4.3808,4.3716,4.3487,4.3441,4.3533,4.3785,4.3808,4.3808,4.3808,4.4061,4.4199,4.4199,4.4451,4.4589,4.4589,4.4589,4.4704,4.4979,4.4979,4.5117,4.537,4.537,4.537,4.537,4.537,4.537,4.537,4.537,4.537,4.537,4.537,4.537,4.537,4.537,4.537,4.537,4.537,4.553,4.5737,0.0,0.0,0.0,5.71,5.6946,5.6818,5.6403,5.6372,5.6403,5.6457,5.6169,5.6138,5.6427,5.6039,5.575,5.5849,5.6244,5.5521,5.353,5.6274,5.827,5.8947,5.9624,6.024,6.0794,6.0794,6.0794,6.0794,6.0794,6.0346,5.9469,5.9683,5.9039,5.7974,5.8202,5.815,5.7873,5.7744,5.809,5.8694,5.7866,5.803,5.848,5.7809,5.7024,5.6113,5.5629,5.4637,5.3389,5.2775,5.1909,5.1066,5.0943,5.0551,5.0106,5.0342,5.0237,0.0,0.0,0.0,0.0,0.0,0.0,0.0,0.0,5.0211,5.0211,4.9967,4.9081,4.8084,4.7072,4.6069,4.5029,4.4239,4.4107,4.4107,4.4107,4.4107,4.4107,4.4107,4.4015,4.3992,4.4107,4.4107,4.4107,4.4107,4.452,4.475,4.475,4.514,4.537,4.537,4.537,4.537,4.537,4.537,4.537,4.537,4.537,4.537,4.537,4.537,4.537,4.537,4.537,4.537,4.537,4.537,4.537,4.537,4.537,4.5415,4.5484,4.5393,4.5622,4.5967,0.0,0.0,0.0,5.7869,5.7654,5.7371,5.6169,5.6274,5.6488,5.6597,5.6243,5.6191,5.6738,5.5418,5.4318,5.4112,5.4493,5.5299,5.6365,5.787,5.8978,5.9655,6.0332,6.0732,6.0794,6.0794,6.0794,6.0794,6.0794,6.0346,5.9469,6.0241,5.9362,5.6964,5.842,5.8116,5.6576,5.7225,5.7507,5.7683,5.8062,5.8316,5.8372,5.8161,5.7009,5.5523,5.5399,5.4494,5.3388,5.276,5.2391,5.2262,5.1642,5.1126,5.089,5.191,5.1492,5.0917,5.1936,5.1805,5.1413,5.1413,5.1413,5.1413,0.0,5.1413,5.1164,5.0257,4.9236,4.8199,4.7149,4.6107,4.5321,4.5186,4.5186,4.5186,4.5186,4.5186,4.5186,4.5186,4.4796,4.4704,4.514,4.5186,4.5186,4.5186,4.5232,4.5278,4.5278,4.5324,4.537,4.537,4.537,4.537,4.537,4.537,4.537,4.537,4.537,4.537,4.537,4.537,4.537,4.537,4.537,4.537,4.537,4.537,4.537,4.537,4.537,4.5645,4.5989,4.553,4.5393,4.5438,0.0,0.0,0.0,5.9101,5.8508,5.797,5.7263,5.7132,5.7021,5.7118,5.6576,5.6041,5.5708,5.4048,5.2828,5.2644,5.3876,5.4657,5.4919,5.7425,5.907,5.9747,6.0424,6.0586,6.0031,6.0586,6.0241,5.9285,5.9819,5.9362,5.7915,5.8822,5.8166,5.6077,5.7628,5.7686,5.6479,5.7491,5.7912,5.7969,5.8587,5.884,5.8744,5.8368,5.7487,5.6387,5.5902,5.5484,0.0,5.4262,5.3739,5.3497,5.3241,5.2746,5.2406,5.2877,5.2668,5.2328,5.2459,5.2328,5.204,5.1675,5.1596,5.1596,5.1596,5.1596,5.1471,5.1094,5.0181,4.9152,4.7977,4.6941,4.6001,0.0,4.537,4.537,4.537,4.537,4.537,4.537,4.5438,4.5461,4.537,4.537,4.5484,4.5783,4.553,4.5484,4.5783,4.553,4.537,4.537,4.537,4.537,4.537,4.537,4.537,4.537,4.5668,4.5806,4.5806,4.6104,4.6242,4.6242,4.6242,4.6242,4.6242,4.6242,4.6242,4.6242,4.6242,4.638,4.6495,4.5989,4.5989,4.6242,0.0,0.0,0.0,0.0,0.0,5.8613,5.8115,5.7747,5.7437,5.7437,5.6452,5.5083,5.3625,5.2579,5.1783,5.1237,5.2905,5.399,5.4273,5.7075,5.9061,6.0024,6.0547,6.0481,5.9925,6.0481,6.0136,5.8961,5.9606,5.9147,5.7944,5.8634,5.8062,5.6564,5.7888,5.7797,5.7013,5.8109,5.8559,5.8587,5.8787,5.8955,5.8829,5.7944,5.7275,5.6758,5.6236,5.6,5.5736,5.5232,5.4811,5.4445,5.4445,5.4079,5.3635,5.3818,5.3739,5.3504,5.2903,5.2746,5.2589,5.1988,5.1858,5.1805,5.1622,5.1596,5.1471,5.122,5.0308,4.9282,4.824,4.7303,4.6505,4.5713,4.5691,4.5783,4.5783,4.5783,4.5783,4.5783,4.6104,4.6196,4.5806,4.5783,4.5921,4.6311,4.5852,4.5737,4.6104,4.5645,4.5415,4.5576,4.5576,4.5622,4.5783,4.5783,4.5783,4.5783,4.615,4.6334,4.6334,4.6701,4.6885,4.6885,4.6885,4.6885,4.6885,4.6885,4.6885,4.6885,4.6885,4.6954,4.7046,4.6678,4.6678,4.6885,0.0,0.0,0.0,0.0,0.0,5.95,5.8164,5.7747,5.7437,5.7094,5.5525,5.336,5.032,5.1017,5.1237,5.0014,5.1319,5.3345,5.5907,5.7583,5.9175,6.0701,6.0794,6.0794,6.0794,6.0794,6.0794,6.069,6.0794,6.069,6.069,6.069,6.0152,5.8997,5.9644,5.9246,5.8278,5.8924,5.9177,5.9052,5.8451,5.8198,5.8071,5.6628,5.6105,5.6132,5.6132,5.5736,5.5099,5.5099,5.5099,5.5072,5.5072,5.4654,5.4288,5.4889,5.4628,5.4053,5.3504,5.3373,5.3217,5.2616,5.2459,5.2328,5.1727,5.1596,5.1346,5.0334,4.9282,4.824,4.7208,4.6557,4.6104,4.6104,4.6518,4.6839,4.6839,4.6839,4.6839,4.6839,4.6839,4.6839,0.0,4.6839,4.6839,4.6839,4.638,4.6104,4.6127,4.5645,4.5576,4.6081,4.6104,4.6334,4.6816,4.6839,4.6839,4.6839,4.6839,4.6862,4.6862,4.6862,4.6885,4.6885,4.6885,4.6885,4.6885,4.6885,4.6885,4.6885,4.6885,4.7183,4.762,4.7597,4.7298,4.6885,0.0,0.0,0.0,0.0,0.0,0.0,5.7837,5.7828,5.7738,5.7154,5.4856,0.0,0.0,0.0,0.0,0.0,5.0989,5.1711,5.3388,5.5703,5.7603,5.9242,6.0136,6.0061,5.9069,6.0272,5.9925,5.8136,5.8326,5.8326,5.8136,5.7804,5.7451,5.7337,5.8552,5.886,5.8334,5.8453,5.8829,5.908,5.7916,5.7788,5.8071,5.6655,5.6132,5.6,0.0,5.5232,5.5099,5.5099,5.5099,5.5099,5.5099,5.4968,5.4837,5.5046,5.468,5.4079,5.353,5.34,5.3164,5.2145,5.191,5.1858,5.1648,5.191,5.2071,5.1817,5.1717,5.1456,5.0381,4.9463,4.8499,4.7836,4.7307,4.6885,4.6885,4.6885,4.6885,4.6885,4.7183,0.0,0.0,0.0,0.0,4.7344,4.6908,4.677,4.7115,4.6632,4.6449,4.6609,4.6609,4.6701,4.6885,4.6885,4.6885,4.6885,4.7229,4.7551,4.7872,4.7872,4.7872,4.7872,4.7872,4.7872,4.7872,4.7872,4.7872,4.7872,4.7872,4.7987,4.8148,4.8148,4.8033,4.7872,0.0,0.0,0.0,0.0,0.0,0.0,0.0,0.0,0.0,0.0,0.0,0.0,0.0,0.0,0.0,0.0,0.0,5.073,5.2048,5.4255,5.6042,5.7658,5.8515,5.8436,5.747,5.8515,5.8297,5.6537,5.7299,5.7552,5.7358,5.7245,5.7368,5.768,5.8433,5.8646,5.8643,5.8537,5.8704,5.8704,5.7532,5.7275,5.7275,5.6132,5.5736,0.0,5.5232,5.5099,5.5099,5.5099,5.5099,5.5099,5.5099,5.5099,5.5072,5.4837,5.4497,5.4131,5.3792,5.3687,5.3504,5.272,5.2537,5.2485,5.2276,5.2537,5.2825,5.2825,5.2854,5.2436,5.133,5.0407,4.9463,4.8379,4.77,4.7413,4.7413,4.7413,4.7413,4.7413,4.7712,4.7918,0.0,0.0,0.0,4.7872,4.7436,4.7298,4.762,4.716,4.6954,4.7138,4.7138,4.7229,4.7413,4.7413,4.7413,4.7413,4.7757,4.8079,4.84,4.84,4.84,4.84,4.84,4.84,4.84,4.84,4.84,4.84,4.84,4.84,4.84,4.84,4.84,4.84,0.0,0.0,0.0,0.0,0.0,0.0,0.0,0.0,0.0,0.0,0.0,0.0,0.0,0.0,0.0,0.0,0.0,0.0,5.196,5.3189,5.4488,5.6023,5.608,5.6194,5.608,5.6194,5.6194,5.608,5.7576,5.8297,5.8297,5.8931,5.9428,5.9709,5.8869,5.8782,5.908,5.908,5.8704,5.8071,5.7275,5.6628,5.6,5.5365,5.5099,5.5099,5.5099,5.5099,5.5099,5.5099,5.5099,5.5099,5.5072,5.5046,5.4942,5.4367,5.421,5.421,5.421,5.421,5.4184,5.4158,5.4158,5.4027,5.3504,5.3426,5.3452,5.3452,5.2619,5.1538,5.0468,4.9793,4.9038,4.7951,4.8079,4.84,4.84,4.84,4.84,0.0,0.0,4.84,0.0,0.0,0.0,4.84,0.0,4.7689,4.7689,4.7229,4.7183,4.7666,4.7689,4.7918,4.8377,4.84,4.84,4.84,4.84,4.84,4.84,4.84,4.84,4.84,4.84,4.84,4.84,4.84,4.84,4.84,4.84,4.84,4.84,4.84,4.84,4.84,0.0,0.0,0.0,0.0,0.0,0.0,0.0,0.0,0.0,0.0,0.0,0.0,0.0,0.0,0.0,0.0,0.0,0.0,5.0366,5.1719,5.3055,5.4449,5.5444,5.5704,5.5239,5.5878,5.5878,5.5239,5.5094,5.5327,5.5848,5.5269,5.5546,5.6565,5.6789,5.7174,5.7661,5.7146,5.7017,5.7275,5.6132,5.5868,5.6,5.5365,5.5099,5.5099,5.5099,5.5099,5.5099,5.5099,5.5099,5.502,5.4576,5.4419,5.4393,5.4262,5.421,5.421,5.421,5.421,5.4105,5.3687,5.3609,5.3556,5.3426,5.3713,5.4001,5.4001,5.3494,5.297,5.2538,5.115,4.9866,4.944,4.8864,4.84,4.84,4.84,4.84,4.84,4.84,4.84,4.84,4.84,0.0,0.0,4.8263,4.8194,4.8194,4.8079,4.8056,4.8194,4.8194,4.8263,4.84,4.84,4.84,4.84,4.84,4.84,4.84,4.84,4.84,4.84,4.84,4.84,4.84,4.84,4.84,4.84,4.84,4.84,4.84,4.84,4.84,4.8232,0.0,0.0,0.0,0.0,0.0,0.0,0.0,0.0,0.0,0.0,0.0,0.0,0.0,0.0,0.0,0.0,0.0,0.0,0.0,5.0459,5.1442,5.2473,5.3468,5.3844,5.351,5.391,5.391,5.351,5.3697,5.4057,5.4442,5.4227,5.476,5.595,5.5834,5.6332,5.7146,5.6758,5.6628,0.0,0.0,5.5604,5.5604,5.5232,5.5099,5.5099,5.5099,5.5099,5.5099,5.5099,5.4916,5.4707,5.4628,5.4419,5.421,5.421,5.421,5.421,5.421,5.421,5.4184,5.4158,5.4158,5.4158,5.4158,5.4393,5.4602,5.4602,5.4304,5.3971,5.3538,5.2,5.06,5.0198,4.9078,4.84,4.84,4.84,4.84,4.84,4.84,4.84,4.84,4.84,4.84,0.0,4.84,4.84,4.84,4.84,4.84,4.84,4.84,4.84,4.84,4.84,4.84,4.84,4.84,4.84,4.84,4.84,4.84,4.84,0.0,4.84,4.84,4.84,4.84,4.84,4.84,4.84,4.84,4.84,4.7918,4.7163,0.0,0.0,0.0,0.0,0.0,0.0,0.0,0.0,0.0,0.0,5.5179,5.4641,0.0,0.0,0.0,0.0,0.0,0.0,0.0,0.0,5.008,5.076,5.123,5.1518,5.1596,5.1596,5.1596,5.1596,5.2998,5.3577,5.3577,5.4286,5.5187,5.6265,5.5535,5.5834,5.6888,5.6888,5.6497,5.6,5.6,5.5604,5.5099,0.0,5.5099,5.5099,5.5099,5.5099,5.5099,5.502,5.468,5.4393,5.4837,5.468,5.4314,5.4236,5.4262,5.4314,5.4314,5.4314,5.4445,5.4968,5.5099,5.5099,5.5099,5.5099,5.5099,5.5099,5.4965,5.4537,5.3538,5.2416,5.1163,5.0198,4.9078,4.84,4.84,4.84,4.84,4.84,4.84,4.84,4.84,4.84,4.84,4.84,4.84,4.84,4.84,4.84,4.84,4.84,4.84,4.84,4.84,4.84,4.84,4.84,4.84,4.84,4.84,4.84,4.84,4.84,0.0,0.0,4.84,4.84,4.84,4.84,4.84,4.84,4.84,4.8086,4.7163,4.5766,0.0,0.0,0.0,0.0,0.0,0.0,0.0,0.0,0.0,0.0,5.5179,5.4406,0.0,0.0,0.0,0.0,0.0,0.0,0.0,0.0,0.0,5.0734,5.089,5.1152,5.1596,5.1596,5.1596,5.1596,5.1819,5.1944,5.1944,5.2569,5.3329,5.4017,5.4234,5.484,5.5498,5.5498,5.5365,5.5232,5.5232,5.5232,5.5099,5.5099,0.0,0.0,5.5099,5.5099,5.502,5.4524,5.4628,5.4889,5.4471,5.4628,5.4863,5.4341,5.455,5.4942,5.4942,5.4942,5.4968,5.5072,5.5099,5.5099,5.5099,5.5099,5.5099,5.5099,5.4376,5.3674,5.3402,5.1722,5.034,5.0198,4.9078,4.84,4.84,4.84,4.84,4.84,4.84,4.84,4.84,4.84,0.0,0.0,0.0,4.84,4.84,4.84,4.84,4.84,4.84,4.84,4.84,4.84,4.84,4.84,4.84,4.84,4.84,4.84,4.84,4.84,4.84,0.0,4.84,4.84,4.84,4.84,4.84,4.84,4.8232,4.6847,4.6085,4.5468,0.0,0.0,0.0,0.0,0.0,0.0,0.0,5.528,5.5179,5.5179,5.5179,5.4743,5.3652,5.2886,5.1783,0.0,0.0,0.0,0.0,0.0,0.0,0.0,5.0629,5.1047,5.1596,5.1596,5.1596,5.1596,0.0,5.1596,5.1596,5.1884,5.2354,5.2955,5.353,5.4105,5.4654,5.4968,5.5099,5.5099,5.5099,5.5099,5.5099,5.5099,0.0,0.0,5.5099,5.5099,5.5072,5.4759,5.4863,5.4994,5.4393,5.4393,5.4628,5.4654,5.4863,5.5099,5.5099,5.5099,5.5099,5.5099,5.5099,5.5099,5.5099,5.5099,5.5099,5.5099,5.4671,5.4241,5.4241,5.2966,5.1583,5.1022,5.0056,4.9078,4.8523,4.84,4.84,4.84,4.84,4.84,4.84,4.84,4.84,4.84,0.0,4.84,4.84,4.84,4.84,4.84,4.84,4.84,4.84,4.84,4.84,4.84,4.84,4.84,4.84,4.8653,4.8768,4.8791,4.9066,0.0,4.9181,4.9181,4.9181,4.9181,4.9181,4.9181,4.8987,4.7038,4.5858,4.4757,0.0,0.0,0.0,0.0,0.0,0.0,5.5681,5.5381,5.5179,5.5179,5.5179,5.5179,5.5179,5.3547,5.2108,0.0,0.0,0.0,0.0,0.0,0.0,0.0,0.0,0.0,0.0,0.0,0.0,5.1596,5.1596,0.0,0.0,0.0,0.0,0.0,5.2981,5.3583,5.4236,5.4707,5.4994,0.0,0.0,5.5099,0.0,0.0,0.0,0.0,0.0,5.5099,5.5072,5.4942,5.4994,5.4994,5.4393,5.4288,5.4497,5.4968,5.5099,5.5099,5.5099,5.5099,5.5099,5.5099,5.5099,5.5099,5.5099,5.5099,5.5099,5.5099,5.5099,5.5099,5.5099,5.4106,5.2966,5.1861,5.0741,4.9628,4.8523,4.84,4.84,4.84,4.84,4.84,4.84,4.84,0.0,0.0,0.0,0.0,4.84,4.84,4.84,4.84,4.84,4.84,4.84,4.84,4.84,4.84,4.8492,4.8538,4.8561,4.9043,4.9273,4.9296,4.9732,0.0,0.0,4.9916,4.9916,4.9916,4.9916,4.9593,4.9073,4.7115,4.5285,4.3522,0.0,0.0,0.0,0.0,0.0,0.0,5.5681,5.5381,5.5179,5.5179,5.5179,5.5179,5.5179,5.4976,5.3547,0.0,0.0,0.0,0.0,0.0,0.0,0.0,0.0,0.0,0.0,0.0,0.0,5.1596,5.1596,0.0,0.0,0.0,0.0,0.0,0.0,5.3191,5.421,5.4262,0.0,0.0,0.0,0.0,0.0,0.0,0.0,0.0,0.0,5.5099,5.502,5.4471,5.4654,5.4994,5.4393,5.4576,5.502,5.5072,5.5099,5.5099,5.5099,5.5099,5.5099,5.5099,5.5099,5.5099,5.5099,5.5099,5.5099,5.5099,5.5099,5.5099,5.5099,5.4106,5.2966,5.1861,5.0741,4.9628,4.8523,4.84,4.84,4.84,4.84,4.84,4.84,4.84,4.84,0.0,0.0,0.0,4.84,4.84,4.84,4.84,4.84,4.84,4.84,4.84,4.84,4.84,4.8837,4.9043,4.9066,4.9594,4.9847,4.9847,4.9893,0.0,0.0,4.9916,4.9916,4.9916,4.9916,4.8967,4.7378,4.5616,4.403,4.2305,0.0,0.0,0.0,0.0,0.0,0.0,5.588,5.5481,5.5179,5.5179,5.5179,5.5179,5.5179,5.5179,5.4097,5.1237,0.0,0.0,0.0,0.0,0.0,0.0,0.0,0.0,0.0,0.0,5.0524,5.1126,5.1126,0.0,0.0,0.0,0.0,0.0,0.0,5.2746,5.3217,5.3896,0.0,0.0,0.0,0.0,0.0,0.0,0.0,0.0,0.0,0.0,5.5072,5.4811,5.4916,5.5072,5.4811,5.4916,5.5099,5.5099,5.5099,5.5099,5.5099,5.5099,5.5099,5.5099,5.5099,5.5099,5.5099,5.5099,5.5099,5.5099,5.5099,5.5099,5.5099,5.4671,5.3835,5.2,5.1303,5.0624,4.9652,4.8812,4.8667,4.9365,4.8812,4.84,0.0,0.0,4.84,0.0,0.0,0.0,4.84,4.84,4.84,4.84,4.84,4.84,4.84,4.8676,4.8814,4.8837,4.9342,4.9594,4.9617,5.0122,5.0329,5.0352,5.0673,0.0,0.0,5.0811,5.0811,5.0811,5.0811,4.9692,4.7896,4.6027,4.4179,4.2392,0.0,0.0,0.0,0.0,0.0,5.5979,5.5979,5.5581,5.5179,5.5179,5.5179,5.5179,5.5179,5.5179,5.4304,5.1892,5.0906,0.0,0.0,0.0,0.0,0.0,0.0,0.0,0.0,0.0,4.9949,5.0524,5.0524,5.0707,0.0,0.0,5.1361,5.1387,0.0,0.0,0.0,0.0,0.0,0.0,0.0,0.0,0.0,0.0,0.0,0.0,0.0,0.0,0.0,0.0,0.0,5.5072,5.4889,5.4968,5.5099,5.5099,5.5099,5.5099,5.5099,5.5099,5.5099,5.5099,5.5099,5.5099,5.5099,5.5099,5.5099,5.5099,5.5099,5.5099,5.5099,5.5099,5.4402,5.2,5.1722,5.1303,5.0198,4.9078,4.8957,5.034,4.9221,4.8523,0.0,4.8523,0.0,0.0,0.0,0.0,0.0,4.84,4.84,4.84,4.84,4.8469,4.8607,4.8928,4.9181,4.9342,4.987,5.0122,5.0145,5.0627,5.0857,5.088,0.0,0.0,0.0,5.1431,5.1431,5.1431,5.1431,4.9964,4.7804,4.6351,4.4321,4.2201,0.0,0.0,0.0,0.0,0.0,5.5979,5.5979,5.5581,5.5179,5.5179,5.5179,5.5179,5.5179,5.5179,5.4304,5.1892,5.1674,0.0,0.0,0.0,0.0,0.0,0.0,0.0,0.0,0.0,4.9348,4.9897,4.9897,4.9897,4.9923,5.0524,5.0812,5.0812,0.0,0.0,0.0,0.0,0.0,0.0,0.0,0.0,0.0,0.0,0.0,0.0,0.0,0.0,0.0,0.0,0.0,0.0,0.0,5.4628,5.5099,5.5099,5.5099,5.5099,5.5099,5.5099,5.5099,5.5099,5.5099,5.5099,5.5099,5.5099,5.5099,5.5099,5.5099,5.5099,5.5099,5.5099,5.4402,5.2,5.1722,5.1303,5.0198,4.9078,4.9221,5.1443,4.9771,4.8812,4.9914,4.9078,0.0,0.0,0.0,0.0,0.0,4.84,4.84,4.84,4.84,4.863,4.9089,4.9112,4.9388,4.9916,5.0398,5.0627,5.0627,5.1179,5.1408,0.0,0.0,0.0,0.0,5.1431,5.1431,5.1431,5.1431,4.9315,4.6223,4.6223,4.3962,4.106,0.0,0.0,0.0,0.0,0.0,0.0,5.5979,5.5581,5.5179,5.5179,5.5179,5.5179,5.5179,5.5179,5.4539,5.2992,5.2108,0.0,0.0,0.0,0.0,0.0,0.0,0.0,0.0,4.846,4.8747,4.9348,4.9348,4.9531,4.9897,5.008,5.0185,5.0185,5.0368,5.0524,0.0,0.0,0.0,0.0,0.0,0.0,0.0,0.0,0.0,0.0,0.0,0.0,0.0,0.0,0.0,0.0,0.0,0.0,0.0,5.5099,5.5099,5.5099,5.5099,5.5099,5.5099,5.5099,5.5099,5.5099,5.5099,5.5099,5.5099,5.5099,5.5099,5.5099,5.5099,5.5099,5.4671,5.3128,5.2139,5.1861,5.2278,5.0056,4.9221,5.1443,4.9795,4.8523,0.0,0.0,0.0,0.0,0.0,0.0,0.0,4.84,4.84,4.84,4.8699,4.8951,4.9112,4.9801,5.0237,5.0398,5.0926,5.1179,5.1179,5.1339,0.0,0.0,0.0,0.0,0.0,5.1431,5.1431,5.1254,5.0121,4.8187,4.6061,4.4925,4.2991,4.106,0.0,0.0,0.0,0.0,0.0,0.0,5.5979,5.5581,5.5179,5.5179,5.5179,5.5179,5.5179,5.5179,5.4539,5.2886,5.2108,0.0,0.0,0.0,0.0,0.0,0.0,0.0,4.8172,4.8172,4.8355,4.8747,4.8747,4.8904,4.9244,4.9479,4.9584,4.9584,4.9793,4.9897,0.0,0.0,0.0,0.0,0.0,0.0,5.3609,0.0,0.0,0.0,0.0,0.0,0.0,0.0,0.0,0.0,0.0,0.0,0.0,0.0,5.5099,5.5099,5.5099,5.5099,5.5099,5.5099,5.5099,5.5099,5.5099,5.5099,5.5099,5.5099,5.5099,5.5099,5.5099,5.5099,5.4671,5.3538,5.2829,5.2416,5.2692,5.0624,0.0,5.034,0.0,0.0,0.0,0.0,0.0,0.0,0.0,0.0,0.0,4.84,4.8469,4.8653,4.8951,4.9296,4.9686,5.0306,5.0719,5.0926,5.127,5.1431,5.1431,5.1431,0.0,0.0,0.0,0.0,0.0,5.1431,5.1431,5.1254,4.9472,4.7688,4.6061,4.4291,4.2512,4.106,0.0,0.0,0.0,0.0,0.0,0.0,0.0,5.5581,5.5179,5.5179,5.5179,5.5179,5.5179,5.5179,5.4304,5.2028,5.1783,0.0,0.0,0.0,0.0,0.0,0.0,0.0,4.825,4.8277,4.8303,4.8303,4.8303,4.8277,4.825,4.8826,4.9061,4.9035,4.9531,4.9766,0.0,0.0,0.0,0.0,5.076,5.1439,0.0,0.0,0.0,0.0,0.0,0.0,0.0,0.0,0.0,0.0,0.0,0.0,0.0,0.0,0.0,0.0,0.0,5.5099,5.5099,5.5099,5.5099,5.5099,5.5099,5.5099,0.0,5.5099,5.5099,5.5099,5.5099,5.5099,5.4805,5.3674,5.3402,5.2966,0.0,5.0906,0.0,0.0,4.9365,0.0,0.0,0.0,0.0,0.0,0.0,0.0,0.0,4.84,4.863,4.9158,4.9158,4.964,5.0627,5.0673,5.0926,5.1431,5.1431,5.1431,5.1431,5.1431,0.0,0.0,0.0,0.0,0.0,5.1431,5.1277,5.1099,4.9315,4.7528,4.5738,4.4126,4.2512,4.106,0.0,0.0,0.0,0.0,0.0,0.0,0.0,0.0,0.0,0.0,5.5179,5.5179,5.5179,5.5179,5.4641,0.0,0.0,0.0,0.0,0.0,0.0,0.0,0.0,0.0,4.8878,4.927,4.9479,4.9479,4.9479,4.927,4.8878,4.9008,4.8826,4.8407,4.8538,4.859,0.0,0.0,0.0,0.0,5.0446,5.1204,0.0,0.0,0.0,0.0,5.3583,5.3949,0.0,0.0,0.0,0.0,0.0,0.0,0.0,0.0,5.5099,5.5099,5.5099,0.0,5.5099,5.5099,5.5099,5.5099,0.0,5.5099,5.5099,5.5099,5.5099,5.5099,5.5099,5.5099,5.4965,5.4671,5.3945,5.3265,5.2966,0.0,0.0,4.9771,4.9221,0.0,0.0,0.0,0.0,0.0,0.0,0.0,0.0,4.84,4.8791,4.9686,4.9709,5.0008,5.0627,5.1041,5.1293,5.1431,5.1431,5.1431,5.1431,5.1431,0.0,0.0,0.0,0.0,5.1431,5.1431,5.0611,4.9315,4.7528,4.5738,4.3962,4.2345,4.1378,4.106,0.0,0.0,0.0,0.0,0.0,0.0,0.0,0.0,0.0,0.0,5.5179,5.5179,5.5179,5.5179,5.4743,0.0,0.0,0.0,0.0,0.0,0.0,0.0,0.0,4.9453,4.9453,4.974,4.9897,4.9897,4.9897,4.974,4.9453,4.9453,4.9139,4.859,4.8303,4.8172,4.8198,4.8538,4.8669,4.8721,4.9348,0.0,0.0,0.0,0.0,0.0,5.2877,5.3347,0.0,5.2798,5.3295,5.421,0.0,0.0,0.0,0.0,5.5099,5.5099,5.5099,5.5099,5.5099,5.5099,5.5099,5.5099,5.5099,5.5099,5.5099,5.5099,5.5099,5.5099,5.5099,5.4671,5.4537,5.4965,5.3674,0.0,0.0,0.0,5.06,5.0198,0.0,0.0,0.0,0.0,0.0,0.0,0.0,0.0,0.0,4.8607,4.9089,4.9893,5.0122,5.049,5.0995,5.127,5.1431,5.1431,5.1431,5.1431,5.1431,5.1431,5.1431,0.0,0.0,0.0,5.1431,5.1431,5.0455,4.8662,4.6867,4.5088,4.3468,4.1695,4.106,4.106,0.0,0.0,0.0,0.0,0.0,0.0,0.0,0.0,0.0,0.0,0.0,0.0,0.0,0.0,0.0,0.0,0.0,0.0,0.0,0.0,0.0,0.0,4.9793,5.0028,5.0028,5.0106,5.0159,5.0159,5.0159,5.0106,5.0028,5.0028,4.9688,4.9061,4.846,4.8172,4.8172,4.8172,4.8172,4.8172,4.8172,0.0,0.0,0.0,0.0,0.0,0.0,0.0,0.0,5.2563,5.2825,5.34,5.34,0.0,0.0,0.0,0.0,0.0,5.5099,5.4965,5.4831,5.5099,5.5099,5.5099,5.5099,5.5099,5.5099,5.5099,5.5099,5.5099,5.4805,5.4241,5.3945,0.0,0.0,0.0,5.1443,5.1303,5.0882,5.0198,0.0,0.0,0.0,0.0,0.0,0.0,0.0,0.0,0.0,4.886,4.9365,4.9893,5.0375,5.088,5.1408,5.1431,5.1431,5.1431,5.1431,5.1431,5.1431,5.1431,5.1431,0.0,0.0,0.0,5.1431,5.1099,4.9964,4.8165,4.6545,4.4762,4.2991,4.1546,4.106,4.106,0.0,0.0,0.0,0.0,0.0,0.0,0.0,0.0,0.0,0.0,0.0,0.0,0.0,0.0,0.0,0.0,0.0,0.0,0.0,0.0,0.0,5.0524,5.0603,5.0655,5.0655,5.11,5.1335,5.1335,5.1335,5.11,5.0655,5.0655,5.008,4.9061,4.846,4.8172,4.8172,4.8172,4.8172,4.8172,4.8172,0.0,0.0,0.0,0.0,0.0,0.0,0.0,0.0,5.1936,5.2485,5.34,5.34,0.0,0.0,0.0,0.0,0.0,5.5099,5.4402,5.3945,5.4805,5.5099,5.5099,5.5099,5.5099,5.5099,5.5099,5.5099,5.4831,5.381,5.4241,5.4537,0.0,0.0,5.1443,0.0,0.0,0.0,0.0,0.0,0.0,0.0,0.0,0.0,0.0,0.0,0.0,0.0,0.0,4.9365,4.9893,5.0375,5.088,5.1408,5.1431,5.1431,5.1431,5.1431,5.1431,5.1431,5.1431,5.1431,0.0,0.0,5.1431,5.1277,4.9808,4.8187,4.6384,4.4618,4.2991,4.1378,4.1229,4.106,4.106,0.0,0.0,0.0,0.0,0.0,0.0,0.0,0.0,0.0,0.0,0.0,0.0,0.0,0.0,0.0,0.0,0.0,0.0,0.0,0.0,5.0917,5.1204,5.123,5.123,5.123,5.1465,5.1596,5.1596,5.1596,5.1465,5.1204,5.0603,4.9871,4.9061,4.846,4.8172,4.8172,4.8172,4.8172,4.8172,0.0,0.0,0.0,0.0,0.0,0.0,0.0,0.0,0.0,0.0,5.1962,5.2537,5.3191,0.0,0.0,0.0,0.0,0.0,5.5099,5.4671,5.4376,5.4965,5.4132,5.3402,5.4106,5.4241,5.4376,5.4965,5.5099,5.4805,5.3674,5.3265,5.2717,5.1022,0.0,5.1303,0.0,0.0,0.0,0.0,0.0,0.0,0.0,0.0,0.0,0.0,0.0,0.0,0.0,0.0,4.9663,4.9893,5.065,5.1179,5.1431,5.1431,5.1431,5.1431,5.1431,5.1431,5.1431,5.1431,5.1431,5.1431,0.0,5.0944,4.9964,4.9157,4.7208,4.4762,4.3962,4.2512,4.106,4.106,4.106,4.106,0.0,0.0,0.0,0.0,0.0,0.0,0.0,0.0,0.0,0.0,0.0,0.0,0.0,0.0,0.0,0.0,0.0,0.0,0.0,5.2058,5.1178,5.157,5.1596,5.1596,5.1596,5.1596,5.1596,5.1596,5.1596,5.1544,5.1387,5.0368,4.961,4.9061,4.846,4.8172,4.8172,4.8172,4.8172,4.8172,0.0,0.0,0.0,0.0,0.0,0.0,0.0,0.0,0.0,0.0,0.0,0.0,0.0,0.0,0.0,5.4759,5.5099,5.5099,5.5099,5.4965,5.4671,5.4671,5.3538,5.2717,5.3538,5.381,5.3945,5.4537,5.4671,5.4376,5.324,5.2278,0.0,4.9509,5.034,0.0,0.0,0.0,0.0,0.0,0.0,0.0,0.0,0.0,0.0,0.0,0.0,0.0,0.0,0.0,4.9916,4.9916,5.0903,5.1431,5.1431,5.1431,5.1431,5.1431,5.1431,5.1431,5.1431,5.1431,5.1431,5.1431,5.1431,5.0455,4.882,4.8345,4.6384,4.3633,4.3156,4.2197,4.106,4.106,4.106,4.106,0.0,0.0,0.0,0.0,0.0,0.0,0.0,0.0,0.0,0.0,0.0,0.0,0.0,0.0,0.0,0.0,0.0,0.0,0.0,5.1944,5.1544,5.1596,5.1596,5.1596,5.1596,5.1596,5.1596,5.1596,5.1596,5.1335,5.0838,5.0185,4.961,4.9061,4.846,4.8172,4.8172,4.8172,4.8172,4.8172,4.8172,0.0,0.0,0.0,0.0,0.0,0.0,0.0,0.0,0.0,0.0,0.0,0.0,0.0,5.3609,5.4759,5.5099,5.5099,5.5099,5.4376,5.3538,5.3538,5.4241,5.4831,5.4965,5.4965,5.4671,5.3674,5.3538,5.3103,5.2,5.1722,5.1583,5.1443,5.0741,0.0,0.0,0.0,0.0,0.0,0.0,0.0,0.0,0.0,0.0,0.0,0.0,0.0,0.0,0.0,0.0,4.9916,5.0903,5.1431,5.1431,5.1431,5.1431,5.1431,5.1431,5.1431,5.1431,5.1431,5.1431,5.1431,5.1431,5.0455,4.8662,4.7027,4.5251,4.3468,4.1863,4.1229,4.106,4.106,4.106,4.106,0.0,0.0,0.0,0.0,0.0,0.0,0.0,0.0,0.0,0.0,0.0,0.0,0.0,0.0,0.0,0.0,0.0,0.0,0.0,5.2673,5.1596,5.1596,5.1596,5.1596,5.1596,5.1596,5.1596,5.1596,5.1256,5.0812,5.0211,4.9662,4.9087,4.8512,4.8277,4.8172,4.8172,4.8172,4.8172,4.8224,4.859,4.9087,0.0,0.0,0.0,0.0,0.0,0.0,0.0,0.0,5.1858,5.2175,5.231,5.3061,5.3922,5.401,5.4537,5.5099,5.5099,5.4805,5.4537,5.4537,5.4805,5.4965,5.4241,5.4106,5.4106,5.4402,5.3945,5.3103,5.1861,0.0,4.9914,5.0624,0.0,0.0,0.0,0.0,0.0,0.0,0.0,0.0,0.0,0.0,0.0,0.0,0.0,0.0,0.0,0.0,0.0,5.0352,5.1041,5.1431,5.1431,5.1431,5.1431,5.1431,5.1431,5.1431,5.1431,5.1431,5.1431,5.1277,5.0277,4.882,4.7048,4.5251,4.3652,4.203,4.1378,4.106,4.106,4.106,4.106,4.106,0.0,0.0,0.0,0.0,0.0,0.0,0.0,0.0,0.0,0.0,0.0,0.0,0.0,0.0,0.0,0.0,0.0,0.0,5.4741,5.3146,5.2068,5.1596,5.1596,5.1596,5.1596,5.1596,5.1596,5.1596,5.1047,5.0394,4.9636,4.9244,4.8773,4.8172,4.8172,4.8172,4.8172,4.8172,4.8303,4.8512,4.893,4.9531,0.0,0.0,0.0,0.0,0.0,0.0,0.0,0.0,5.1988,5.2462,5.1838,5.2796,5.4051,5.3496,5.3971,5.4537,5.4537,5.4537,5.4537,5.4537,5.4805,5.4965,5.4106,5.3674,5.3538,5.3971,5.3402,5.2554,5.1443,5.0198,0.0,0.0,0.0,0.0,0.0,0.0,0.0,0.0,0.0,0.0,0.0,0.0,0.0,0.0,0.0,0.0,0.0,0.0,0.0,0.0,5.1156,5.1431,5.1431,5.1431,5.1431,5.1431,5.1431,5.1431,5.1431,5.1431,5.1431,5.1254,4.9629,4.7847,4.6061,4.4291,4.2678,4.106,4.106,4.106,4.106,4.106,4.106,4.0723,0.0,0.0,0.0,0.0,0.0,0.0,0.0,0.0,5.5179,5.5179,5.5179,0.0,0.0,0.0,0.0,0.0,0.0,0.0,5.3697,5.351,5.2903,5.1721,5.1596,5.1596,5.1596,5.1596,5.1596,5.1596,5.1047,5.0211,4.9087,4.9087,4.8747,4.8172,4.8172,4.8172,4.8198,4.8198,4.8538,4.9087,4.9087,4.9766,5.0786,0.0,0.0,0.0,0.0,0.0,0.0,0.0,5.2014,5.2462,5.1838,5.2796,5.4051,5.3496,5.3376,5.3402,5.3402,5.3402,5.3402,5.3402,5.4241,5.5099,5.5099,5.4241,5.3103,5.2,5.1722,5.1303,5.034,5.0882,0.0,0.0,0.0,0.0,0.0,0.0,0.0,0.0,0.0,0.0,0.0,0.0,0.0,0.0,0.0,0.0,0.0,0.0,0.0,0.0,5.1156,5.1431,5.1431,5.1431,5.1431,5.1431,5.1431,5.1431,5.1431,5.1431,5.1431,5.1277,4.9472,4.7847,4.6061,4.4291,4.2678,4.106,4.106,4.106,4.106,4.106,4.0723,4.0046,0.0,0.0,0.0,0.0,0.0,0.0,0.0,0.0,5.5179,5.5179,5.5179,0.0,0.0,0.0,0.0,0.0,0.0,0.0,5.6108,5.4414,5.3389,5.2903,5.2068,5.1596,5.1596,5.123,5.1021,5.1021,5.0446,4.9793,4.9087,4.8643,4.8355,4.8172,4.8172,4.8433,4.8826,4.8826,4.9139,4.9688,5.0106,5.0498,5.0838,0.0,0.0,0.0,0.0,0.0,0.0,0.0,0.0,0.0,5.2425,5.3413,5.4597,5.3623,5.3971,5.4537,5.4537,5.4537,5.4537,5.4537,5.4805,5.5099,5.5099,5.4831,5.3971,5.2139,5.1022,5.0482,5.0198,4.9628,0.0,0.0,0.0,0.0,0.0,0.0,0.0,0.0,0.0,0.0,0.0,0.0,0.0,0.0,0.0,0.0,0.0,0.0,0.0,0.0,5.1339,5.1431,5.1431,5.1431,5.1431,5.1431,5.1431,5.1431,5.1431,5.1431,5.0766,4.9472,4.7688,4.59,4.4291,4.2512,4.1546,4.106,4.106,4.106,4.106,4.106,4.0723,4.0046,0.0,0.0,0.0,0.0,0.0,0.0,0.0,0.0,5.5179,5.5179,5.5179,5.5299,0.0,0.0,0.0,0.0,0.0,0.0,5.7187,5.582,5.4533,5.3483,5.278,5.1962,5.1282,5.0734,5.0342,5.0106,4.974,4.927,4.8721,4.8355,4.8172,4.8198,4.8433,4.8747,4.9087,4.9322,4.974,5.0289,5.0655,5.0917,5.1152,0.0,0.0,0.0,0.0,0.0,0.0,0.0,0.0,0.0,5.2731,5.367,5.4805,5.3265,5.3538,5.4402,5.3835,5.4106,5.4267,5.3835,5.4402,5.4965,5.4537,5.4106,5.3128,5.0906,5.0198,4.9914,4.9509,4.9221,0.0,0.0,0.0,0.0,0.0,0.0,0.0,0.0,0.0,0.0,0.0,0.0,0.0,0.0,0.0,0.0,0.0,0.0,0.0,0.0,5.1431,5.1431,5.1431,5.1431,5.1431,5.1431,5.1431,5.1099,5.0299,5.0299,4.9808,4.8662,4.6223,4.4126,4.2512,4.1546,4.106,4.106,4.106,4.106,4.106,4.106,4.0198,3.8631,0.0,0.0,5.647,5.6372,0.0,0.0,0.0,0.0,5.5179,5.5179,5.5179,5.5448,0.0,0.0,0.0,0.0,0.0,0.0,5.744,5.7299,5.6137,5.3643,5.3375,5.2406,5.0707,5.0132,4.9584,4.9087,4.9087,4.8773,4.8172,4.8172,4.8224,4.8303,4.8852,4.9139,4.927,4.9766,5.0315,5.0864,5.0864,5.1152,5.1596,5.1648,0.0,0.0,0.0,0.0,0.0,0.0,0.0,0.0,5.3043,5.3829,5.4671,5.2579,5.2692,5.3402,5.2278,5.2692,5.3128,5.2278,5.3563,5.4671,5.3674,5.2554,5.1022,4.8957,0.0,4.9652,4.8523,4.9221,0.0,0.0,0.0,0.0,0.0,0.0,0.0,0.0,0.0,0.0,0.0,0.0,0.0,0.0,0.0,0.0,0.0,0.0,0.0,0.0,5.1431,5.1431,5.1431,5.1431,5.1431,0.0,5.1254,5.0299,4.882,4.882,4.8662,4.8187,4.4782,4.2512,4.106,4.106,4.106,4.106,4.106,4.106,4.106,4.0892,3.9143,3.6535,0.0,0.0,5.6664,5.647,0.0,0.0,0.0,0.0,0.0,5.5179,5.5179,0.0,0.0,0.0,0.0,0.0,0.0,0.0,5.8743,5.7804,5.6279,5.4422,5.2015,5.0427,5.008,4.9531,4.9191,4.9087,4.9087,4.8773,4.8172,4.8172,4.8433,4.8904,4.9035,4.9584,5.042,5.0551,5.0917,5.1413,5.1413,5.1492,5.1648,5.2119,5.2014,0.0,0.0,0.0,0.0,0.0,0.0,0.0,5.4493,5.4861,5.4965,5.4537,5.4537,5.4671,5.4402,5.3945,5.3538,5.4241,5.4106,5.3674,5.3402,5.2554,5.1303,5.0056,4.9221,4.8667,4.84,0.0,0.0,0.0,0.0,0.0,0.0,0.0,0.0,0.0,0.0,0.0,0.0,0.0,0.0,0.0,0.0,0.0,0.0,0.0,0.0,5.1408,5.1431,5.1431,5.1431,5.1431,5.1431,0.0,4.9964,4.9157,4.882,4.882,4.7368,4.4598,4.2512,4.1378,4.106,4.106,4.106,4.106,4.106,4.106,4.0892,3.9501,3.81,3.6362,0.0,0.0,0.0,0.0,0.0,0.0,0.0,0.0,0.0,0.0,0.0,0.0,0.0,0.0,0.0,0.0,5.8919,5.8979,5.865,5.8051,5.6601,5.4148,5.1169,4.9505,4.9505,4.8956,4.8643,4.8643,4.8643,4.8486,4.8198,4.8486,4.8773,4.9113,4.9662,5.0237,5.0812,5.1073,5.1335,5.1596,5.1596,5.1779,5.2067,5.238,5.2485,5.2537,5.3164,0.0,0.0,0.0,0.0,0.0,0.0,0.0,5.4965,5.4402,5.4671,5.4831,5.3835,5.3402,5.3402,5.3402,5.2991,5.2554,5.2554,5.1722,5.0765,5.0198,4.9652,4.9101,0.0,0.0,0.0,0.0,0.0,0.0,0.0,0.0,0.0,0.0,0.0,0.0,0.0,0.0,0.0,0.0,0.0,0.0,0.0,5.0375,5.088,5.1408,5.1431,5.1431,5.1431,5.1431,5.0944,5.0121,4.9315,4.7847,4.6384,4.6384,4.4945,4.2345,4.1546,4.106,4.106,4.106,4.106,4.106,4.106,4.0536,3.9671,3.8443,3.6345,3.3892,0.0,0.0,0.0,0.0,0.0,0.0,0.0,0.0,0.0,0.0,0.0,0.0,0.0,0.0,0.0,0.0,0.0,0.0,5.7992,5.7494,5.5954,5.3163,5.0461,4.893,4.893,4.8433,4.8224,4.8329,4.8329,4.8381,4.8486,4.8904,4.9191,4.9427,5.0368,5.0838,5.0969,5.1413,5.1596,5.1596,5.1701,5.204,5.2511,5.272,5.3034,5.3426,5.3609,5.3896,5.421,5.4314,0.0,0.0,0.0,0.0,5.4965,5.3945,5.4376,5.4671,5.2854,5.2991,5.3402,5.1861,5.1583,5.1722,5.1722,5.0882,5.0056,5.0056,4.9914,0.0,0.0,0.0,0.0,0.0,0.0,0.0,0.0,0.0,0.0,0.0,0.0,0.0,0.0,0.0,0.0,0.0,0.0,0.0,5.0008,5.049,5.0972,5.1408,5.1431,5.1431,5.1431,5.1099,5.0277,4.882,4.8187,4.6223,4.3156,4.3156,4.2345,4.106,4.106,4.106,4.106,4.106,4.106,4.106,4.0705,3.9671,3.81,3.7019,3.4226,3.1081,0.0,0.0,0.0,0.0,0.0,0.0,0.0,0.0,0.0,0.0,5.6154,5.6714,0.0,0.0,5.8171,5.8261,5.8261,5.7962,5.7274,0.0,0.0,5.1249,4.9382,4.8303,4.8303,4.8224,4.8433,4.8956,4.8956,4.9191,4.9662,4.927,4.961,5.0577,5.0707,5.1047,5.1492,5.157,5.1596,5.1648,5.2171,5.2433,5.2616,5.3609,5.3739,5.353,5.4524,5.4576,5.4288,5.4811,5.5046,0.0,0.0,0.0,5.5099,5.4965,5.4965,5.5099,5.4671,5.4805,5.4106,5.1022,5.1022,5.1722,5.1722,5.0882,5.0056,0.0,0.0,0.0,0.0,0.0,0.0,0.0,0.0,0.0,0.0,0.0,0.0,0.0,0.0,0.0,0.0,0.0,0.0,0.0,0.0,0.0,5.0513,5.1041,5.1362,5.1431,5.1431,5.1431,5.1431,4.9964,4.8978,4.882,4.5738,4.3322,4.1378,4.1378,4.1378,4.106,4.106,4.106,4.106,4.106,4.106,4.0892,3.9331,3.8272,3.7208,3.3892,3.1791,3.0369,0.0,0.0,0.0,0.0,0.0,0.0,0.0,0.0,0.0,0.0,0.0,5.7342,0.0,5.7963,5.8204,5.7573,5.7543,5.7274,5.6615,5.3769,5.1876,5.1405,4.9293,4.8355,4.8669,4.8695,4.8956,4.9531,4.9531,4.9819,5.0394,5.0159,5.0315,5.0812,5.11,5.1361,5.1596,5.1596,5.1805,5.2119,5.238,5.2877,5.3504,5.4001,5.4262,5.4419,5.4916,5.4942,5.4759,5.502,5.5099,5.5099,5.5099,0.0,0.0,0.0,5.4671,5.3835,5.2579,5.2717,5.2579,4.9795,4.9914,5.0741,5.0741,4.9914,4.9365,4.9914,0.0,0.0,0.0,0.0,0.0,0.0,0.0,0.0,0.0,0.0,0.0,0.0,0.0,0.0,0.0,0.0,0.0,0.0,0.0,5.0122,5.0605,5.1133,5.1431,5.1431,5.1431,5.0944,4.9964,4.9157,4.7847,4.59,4.3322,4.1863,4.106,4.106,4.106,4.106,4.106,4.106,4.106,4.106,4.0536,3.9501,3.8631,3.6707,3.4242,3.2322,3.0561,2.8783,0.0,0.0,0.0,0.0,0.0,0.0,0.0,0.0,0.0,0.0,0.0,0.0,0.0,0.0,0.0,0.0,5.6959,5.6645,5.5753,5.3518,5.2042,5.1711,4.9729,4.8826,4.927,4.9296,4.9557,5.0106,5.0106,5.042,5.0995,5.0995,5.0995,5.1021,5.1413,5.1596,5.1596,5.1753,5.2093,5.2537,5.2825,5.3452,5.421,5.4367,5.4707,5.5099,5.5099,5.5099,5.5099,5.5099,5.5099,5.5099,5.5099,5.5099,0.0,0.0,0.0,5.3394,5.1859,5.1999,5.1975,4.96,4.984,5.0508,4.9818,0.0,4.8667,0.0,0.0,0.0,0.0,0.0,0.0,0.0,0.0,0.0,0.0,0.0,0.0,0.0,0.0,0.0,0.0,0.0,0.0,0.0,0.0,5.0168,5.0788,5.1201,5.1254,5.0766,5.0766,4.9964,4.8187,4.7688,4.59,4.2991,4.1714,4.106,4.106,4.106,4.106,4.106,4.106,4.106,4.106,4.106,4.001,3.8289,3.7757,3.5304,3.1806,3.0917,2.9322,2.7558,0.0,0.0,0.0,0.0,0.0,0.0,0.0,0.0,0.0,0.0,0.0,0.0,5.6329,5.7002,5.7226,5.6286,5.6534,5.6064,5.4584,5.3774,5.2851,5.1871,5.0486,0.0,4.9845,4.9845,5.0132,5.0734,5.0734,5.1021,5.1544,5.1544,5.1544,5.1544,5.1596,5.1596,5.1622,5.2197,5.2459,5.2589,5.3687,5.4158,5.4262,5.4837,5.5072,5.5099,5.5099,5.5099,5.5099,5.5099,5.5099,5.5099,5.5099,5.5099,5.5203,0.0,0.0,0.0,5.4809,5.4809,5.4119,5.1489,5.1631,5.1795,4.905,0.0,0.0,0.0,0.0,0.0,0.0,0.0,0.0,0.0,0.0,0.0,0.0,0.0,0.0,0.0,0.0,0.0,0.0,0.0,0.0,0.0,0.0,5.0352,5.1339,5.1408,5.0611,4.8978,4.8978,4.8165,4.6384,4.4782,4.2991,4.1229,4.106,4.106,4.106,4.106,4.106,4.106,4.106,4.106,4.106,4.106,4.001,3.8118,3.6362,3.3907,3.1081,2.9349,2.7933,2.7027,0.0,0.0,0.0,0.0,0.0,0.0,0.0,0.0,0.0,0.0,0.0,0.0,0.0,5.7455,5.7505,5.6738,5.707,5.6972,5.6527,5.461,5.3303,5.2962,5.0922,5.008,5.0446,5.0472,5.0734,5.1309,5.1309,5.1413,5.1596,5.1596,5.1805,5.2171,5.2171,5.2171,5.2223,5.2825,5.3269,5.3635,5.4053,5.4445,5.4811,5.502,5.5099,5.5099,5.5099,5.5099,5.5099,5.5099,5.5099,5.5099,5.5099,5.5334,5.5455,5.4455,5.4052,5.3775,5.3057,5.3345,5.3725,5.2812,5.1922,5.1202,5.017,4.9189,4.84,0.0,0.0,0.0,0.0,0.0,0.0,0.0,0.0,0.0,0.0,0.0,0.0,0.0,0.0,0.0,0.0,0.0,0.0,0.0,0.0,0.0,5.1385,5.1431,5.0611,4.882,4.882,4.7368,4.4618,4.2825,4.1714,4.106,4.106,4.106,4.106,4.106,4.106,4.106,4.106,4.106,4.106,3.9841,3.8272,3.6362,3.4082,3.1628,2.9349,2.8281,2.7571,2.7027,0.0,0.0,0.0,0.0,0.0,5.6761,5.6567,5.6567,5.6721,5.7082,0.0,0.0,0.0,0.0,5.7902,5.7345,5.7613,5.7798,5.7798,5.5493,5.4147,5.4147,5.1722,5.0655,5.1047,5.1073,5.123,5.1596,5.1596,5.1596,5.1596,5.1805,5.2119,5.2511,5.2903,5.2981,5.2825,5.3426,5.387,5.421,5.4419,5.4733,5.5099,5.5099,5.5099,5.5099,0.0,0.0,5.5099,5.5099,5.5099,5.5099,5.5099,5.5621,5.6028,5.5037,5.4602,5.432,5.403,5.3885,5.3836,5.364,5.2622,5.1489,5.043,4.9595,4.8812,0.0,0.0,0.0,0.0,0.0,0.0,0.0,0.0,0.0,0.0,0.0,0.0,0.0,0.0,0.0,0.0,0.0,0.0,0.0,0.0,0.0,5.1385,5.0789,4.9472,4.7208,4.6566,4.5108,4.2825,4.1714,4.106,4.106,4.106,4.106,4.106,4.106,4.106,4.106,4.0367,4.0198,4.001,3.8802,3.688,3.4432,3.269,3.0588,2.8474,2.792,2.7377,2.7027,0.0,0.0,5.7592,5.6915,5.6792,5.6792,5.6761,5.6598,5.6403,5.6403,0.0,0.0,0.0,0.0,0.0,5.8115,5.8098,5.8141,5.8141,5.6448,5.5412,5.5412,5.3025,5.1596,5.1596,5.1596,5.1596,5.1596,5.1596,5.1596,5.1622,5.2223,5.2511,5.2589,5.3713,5.3922,5.3478,5.4001,5.4236,5.4288,5.4863,5.5099,5.5099,5.5099,5.5099,5.5099,5.5099,5.5099,0.0,5.5099,0.0,5.5125,5.5151,5.5935,5.6954,5.7503,5.7178,5.687,0.0,0.0,0.0,5.445,5.3763,5.2502,4.9816,0.0,4.9795,0.0,0.0,0.0,0.0,0.0,0.0,0.0,0.0,0.0,0.0,0.0,0.0,0.0,0.0,0.0,0.0,0.0,0.0,0.0,0.0,5.0727,5.1231,4.9629,4.7048,4.3633,4.203,4.106,4.106,4.106,4.106,4.106,4.106,4.106,4.106,4.106,4.106,4.0892,3.9143,3.8289,3.8118,3.8118,3.6015,3.269,3.216,3.0588,2.8474,2.792,2.7377,2.7027,0.0,5.8824,5.83,5.7623,5.75,5.7315,5.6823,5.7192,5.7402,0.0,0.0,0.0,5.8285,5.9,5.9614,6.0003,5.9875,5.9788,5.9788,5.7687,5.6423,5.6423,5.3752,5.2342,5.2342,5.1846,5.1596,5.1596,5.1596,5.1831,5.225,5.2406,5.2929,5.3739,5.4053,5.4367,5.4654,5.4785,5.4863,5.4863,5.5046,5.5099,5.5099,5.5099,5.5099,0.0,0.0,5.5099,5.5099,0.0,5.5099,5.5255,5.6066,5.6271,5.6238,5.6775,5.6309,5.5704,5.687,0.0,0.0,0.0,0.0,0.0,5.1237,5.0133,4.9229,0.0,0.0,0.0,0.0,0.0,0.0,0.0,0.0,0.0,0.0,0.0,0.0,0.0,0.0,0.0,0.0,0.0,0.0,0.0,4.958,4.9317,4.9472,4.6706,4.4618,4.3633,4.203,4.106,4.106,4.106,4.106,4.106,4.106,4.106,4.106,4.106,4.0367,3.8972,3.846,3.6707,3.4257,3.4257,3.3571,3.2514,3.0231,2.9002,2.8474,2.7571,2.7027,2.7027,5.9839,5.947,5.907,5.867,5.8608,5.8577,5.8454,5.8793,5.9039,0.0,0.0,0.0,6.0424,6.0721,6.1015,6.1383,6.1202,6.1126,6.1126,5.8566,5.7196,5.7196,5.4515,5.2985,5.2985,5.2607,5.2354,5.2354,5.2354,5.2537,5.2877,5.3086,5.3556,5.421,5.4471,5.4759,5.5099,5.5099,5.5099,5.5099,5.5099,5.5099,5.5099,5.5099,5.5099,0.0,0.0,0.0,5.5099,5.5099,5.5255,0.0,5.651,5.6773,5.6753,5.7292,5.704,5.646,5.6725,5.5851,5.4992,5.5238,0.0,0.0,5.1154,5.0367,4.9561,0.0,0.0,0.0,0.0,0.0,0.0,0.0,0.0,0.0,0.0,0.0,0.0,0.0,0.0,0.0,0.0,0.0,0.0,4.8793,4.8763,4.8187,4.6727,4.4762,4.3322,4.2512,4.1546,4.106,4.106,4.106,4.106,4.106,4.106,4.106,4.106,4.0367,3.9331,3.8289,3.6707,3.4781,3.2705,3.1962,3.1592,3.1315,2.9673,2.8757,2.8474,2.7571,2.7208,2.7027,0.0,6.0116,6.0116,6.0024,6.0024,6.0178,6.0732,6.0855,6.0917,0.0,6.1502,6.2148,6.2764,6.261,6.2472,6.2472,6.2286,6.2068,6.2068,5.9565,5.8018,5.79,5.5301,5.376,5.3632,5.3529,5.3529,5.34,5.34,5.3426,5.3504,5.3975,5.4236,5.4314,5.4863,5.5099,5.5099,5.5099,5.5099,5.5099,5.5099,5.5099,5.5099,0.0,5.5099,5.5099,5.5099,5.5099,5.5099,5.5099,5.5465,0.0,0.0,5.7163,5.7686,5.8314,5.8329,5.7992,5.6989,5.5704,5.4546,5.3497,5.2688,0.0,5.0181,5.0266,5.019,0.0,0.0,0.0,0.0,0.0,0.0,0.0,0.0,0.0,0.0,0.0,0.0,0.0,0.0,0.0,0.0,4.9342,4.9141,4.7466,4.7983,4.6727,4.3468,4.3322,4.2678,4.1229,4.106,4.106,4.106,4.106,4.106,4.106,4.106,4.106,4.0705,3.899,3.8118,3.7414,3.4082,3.2528,3.2424,3.0985,3.0221,2.994,2.9677,2.908,2.8474,2.792,2.7377,2.7027,6.224,6.221,6.2056,6.1502,6.1409,6.1286,6.0855,6.1255,6.1594,6.1594,6.221,6.2671,6.2794,6.2718,6.2718,6.2718,6.2718,6.261,6.261,6.1428,6.0393,5.9709,5.7957,5.6292,5.5006,5.45,5.3889,5.34,5.34,5.3609,5.4053,5.4158,5.4471,5.4942,5.5046,5.5099,5.5099,5.5099,5.5099,5.5099,5.5099,5.5099,5.5099,5.5099,5.5099,5.5099,5.5099,5.5099,5.5099,5.5099,5.5465,5.6013,0.0,0.0,0.0,5.8209,5.7449,5.6479,5.6598,5.509,5.3473,5.3322,5.2365,0.0,5.0122,4.9973,4.9776,0.0,0.0,0.0,0.0,0.0,0.0,0.0,0.0,0.0,0.0,0.0,0.0,0.0,0.0,0.0,0.0,4.9548,4.9299,4.8079,4.5912,4.3797,4.1714,4.1546,4.1378,4.106,4.106,4.106,4.106,4.106,4.106,4.106,4.106,4.0367,3.8802,3.846,3.6707,3.3731,3.3043,3.1977,3.0818,3.0765,3.0394,2.994,2.9677,2.908,2.8474,2.792,2.7377,2.7027,6.2825,6.2825,6.2825,6.2825,6.2825,6.2825,6.2856,6.3133,6.3349,6.3349,6.3656,6.3872,6.3872,6.3872,6.3872,6.3872,6.3872,6.3872,6.3872,6.2647,6.1714,6.1226,5.9348,5.7645,5.6423,5.5714,5.4863,5.4262,5.4262,5.4393,5.4654,5.4654,5.4811,5.5099,5.5099,5.5099,5.5099,5.5099,5.5099,5.5099,5.5099,0.0,5.5099,5.5099,5.5099,5.5099,5.5099,5.5099,5.5099,5.5099,5.5674,0.0,5.6353,5.6954,5.7712,0.0,5.7203,5.6226,5.5922,5.4522,0.0,5.2459,0.0,0.0,0.0,4.9916,4.9617,0.0,0.0,0.0,0.0,0.0,0.0,0.0,0.0,0.0,0.0,0.0,0.0,0.0,0.0,0.0,0.0,4.9594,4.9108,4.7282,4.4172,4.203,4.106,4.106,4.106,4.106,4.106,4.106,4.106,4.106,4.106,4.106,4.0198,3.916,3.8289,3.6362,3.4432,3.2705,3.1812,3.1097,3.0394,3.0822,3.0662,3.0167,3.0265,2.956,2.8835,2.8281,2.7739,2.7377,6.3225,6.3225,6.3379,6.3933,6.4026,6.4241,6.4795,6.4888,6.4888,6.4888,6.4888,6.4888,6.4888,6.4888,6.4888,6.4888,6.4888,6.4888,6.4888,6.3645,6.2784,6.2639,6.048,5.8787,5.7878,5.6834,5.6,5.5232,5.5099,5.5099,5.5099,5.5099,5.5099,5.5099,5.5099,5.5099,5.5099,5.5099,5.5099,5.5099,0.0,5.5099,5.5099,5.5099,5.5099,5.5099,5.5099,5.5099,5.5099,5.5099,5.5778,5.6562,5.6196,5.7059,0.0,0.0,0.0,0.0,0.0,0.0,0.0,0.0,0.0,5.1041,0.0,0.0,0.0,0.0,0.0,0.0,0.0,0.0,0.0,0.0,0.0,0.0,0.0,0.0,0.0,0.0,0.0,0.0,0.0,4.9201,4.8145,4.5859,4.2844,4.106,4.106,4.106,4.106,4.106,4.106,4.106,4.106,4.106,4.0892,4.0536,3.8972,3.7929,3.7069,3.4082,3.2557,3.2097,3.0958,3.0421,3.0568,3.1036,3.0942,3.0541,3.0728,3.0056,2.9182,2.8655,2.8101,2.7558,6.4672,6.4672,6.4703,6.4764,6.4764,6.4795,6.4888,6.4888,6.4888,6.4888,6.4888,6.4888,6.4888,6.4888,6.4888,6.4888,6.4888,6.4888,6.4888,6.4777,6.427,6.3304,6.2233,6.0899,5.9436,5.7861,5.6628,5.6,5.5365,5.5099,5.5099,5.5099,5.5099,5.5099,5.5099,5.5099,5.5099,5.5099,5.5099,0.0,5.5099,5.5099,0.0,5.5099,5.5099,5.5099,5.5099,5.5099,5.5099,0.0,5.5517,5.6092,0.0,5.685,5.719,5.8131,0.0,0.0,0.0,0.0,0.0,0.0,5.1064,0.0,0.0,0.0,4.9043,4.8515,0.0,0.0,0.0,0.0,0.0,0.0,0.0,0.0,0.0,0.0,0.0,0.0,0.0,0.0,0.0,0.0,4.5797,4.3942,4.2197,4.106,4.106,4.106,4.106,4.106,4.106,4.106,4.106,4.106,4.0198,3.8631,3.846,3.6535,3.338,3.2867,3.1977,3.0664,3.0523,3.0648,3.1129,3.1196,3.1183,3.1102,3.0875,3.0056,2.9182,2.8655,2.8101,2.7365,6.4888,6.4888,6.4888,6.4888,6.4888,6.4888,6.4888,6.4888,6.4888,6.4888,6.4888,6.4888,6.4888,6.4888,6.4888,6.4888,0.0,6.4888,0.0,0.0,6.4666,6.427,6.2844,6.1496,6.0416,5.862,5.7146,5.6132,5.5868,5.5472,5.5099,5.5099,5.5099,5.5099,5.5099,5.5099,5.5125,5.5438,5.5386,0.0,0.0,5.5386,0.0,5.5099,5.5099,5.5099,5.5099,5.5099,5.5099,0.0,5.57,0.0,0.0,0.0,0.0,5.7974,0.0,0.0,0.0,0.0,0.0,0.0,0.0,0.0,5.0158,0.0,4.8974,0.0,0.0,0.0,0.0,0.0,0.0,0.0,4.8263,0.0,0.0,0.0,0.0,0.0,0.0,0.0,0.0,0.0,0.0,0.0,0.0,4.106,4.106,4.106,4.106,4.106,4.106,4.106,4.106,4.001,3.916,3.8289,3.6015,3.4257,3.269,3.1657,3.078,3.0368,3.0541,3.0849,3.1236,3.141,3.1383,3.1196,3.0902,3.0358,2.9779,2.8899,2.7546,2.6241,6.5442,6.5165,6.4888,6.4888,6.4888,6.4888,6.4888,6.4888,6.4888,6.4888,6.4888,6.4888,6.4888,6.4888,6.4888,6.4888,6.4888,6.4888,0.0,0.0,6.4888,6.4888,6.3074,6.1762,6.1229,5.9245,5.7688,5.6628,5.6685,5.6239,5.5601,5.5759,5.5704,5.5569,5.5569,5.5465,5.536,0.0,5.5595,5.5151,5.5969,5.6048,5.5785,5.5363,5.5099,5.5099,5.5099,5.5203,5.5334,5.5334,5.6092,0.0,5.6536,0.0,5.8418,0.0,0.0,0.0,5.5704,0.0,0.0,0.0,0.0,0.0,0.0,0.0,0.0,0.0,0.0,0.0,0.0,0.0,4.8354,4.8217,0.0,4.8354,0.0,0.0,0.0,0.0,0.0,0.0,0.0,0.0,0.0,4.2991,4.1863,4.106,4.106,4.106,4.106,4.106,4.106,4.106,4.106,3.9331,3.8118,3.7414,3.4257,3.2337,3.182,3.0698,3.0194,3.0488,3.0782,3.1076,3.1356,3.1583,3.1543,3.1316,3.0942,3.028,2.9495,2.8408,2.6991,2.5514,6.6858,6.578,6.4888,6.4888,6.4888,6.4888,6.4888,6.4888,6.4888,6.4888,0.0,0.0,0.0,0.0,0.0,0.0,0.0,6.4888,6.4888,0.0,6.4888,0.0,0.0,6.1998,0.0,5.9521,5.8198,5.8071,5.8004,5.7647,5.6984,5.7543,5.7403,5.6745,5.6745,5.6432,5.5883,5.5909,5.5595,5.5151,5.6505,5.7304,5.7542,0.0,5.5099,5.5099,5.5099,0.0,0.0,5.5883,5.6667,0.0,0.0,0.0,0.0,0.0,0.0,0.0,0.0,0.0,0.0,5.2553,0.0,0.0,0.0,0.0,4.8423,0.0,0.0,0.0,0.0,4.84,4.824,4.7734,4.8079,0.0,0.0,0.0,0.0,0.0,0.0,0.0,0.0,0.0,0.0,4.136,4.106,4.106,4.106,4.106,4.106,4.106,4.106,4.106,4.106,3.9331,3.7414,3.5494,3.3556,3.182,2.9927,3.0207,3.0501,3.0795,3.1089,3.1383,3.165,3.1664,3.1664,3.1597,3.1022,2.9646,2.7877,2.6818,2.6265,2.5525,6.6919,6.655,6.6242,6.6242,6.6242,6.6242,6.6242,6.6242,0.0,0.0,0.0,0.0,0.0,6.6242,6.6242,0.0,0.0,6.6242,6.6242,6.6242,0.0,0.0,0.0,6.3325,0.0,0.0,5.993,5.9386,5.9346,5.9035,5.8373,5.8026,5.7728,5.7456,5.7072,5.6967,0.0,0.0,0.0,0.0,0.0,5.808,5.781,0.0,0.0,5.6223,5.6223,5.6353,0.0,5.651,5.7007,5.766,5.766,5.8052,5.8523,5.8523,5.8212,0.0,0.0,0.0,5.4377,5.1859,0.0,0.0,0.0,0.0,0.0,0.0,0.0,0.0,0.0,4.84,4.8331,4.8171,4.8286,4.8331,0.0,0.0,0.0,0.0,0.0,0.0,0.0,0.0,0.0,4.1192,4.106,4.106,0.0,4.106,4.106,4.106,4.106,4.106,4.106,3.7929,3.6188,3.5494,3.2351,3.0437,2.9927,3.0221,3.0515,3.0808,3.1102,3.1396,3.1664,3.1664,3.1664,3.1434,2.9695,2.8494,2.7703,2.6636,2.4602,2.184,6.7627,6.7627,6.7473,6.6981,6.6919,6.6919,0.0,0.0,0.0,0.0,6.6919,0.0,6.6919,0.0,6.6919,0.0,6.6919,6.6919,6.6919,6.6919,0.0,6.6919,6.5319,0.0,0.0,0.0,0.0,0.0,6.0738,6.0325,5.9663,5.9453,5.9156,5.8885,5.8366,5.8369,5.8617,5.8582,5.8669,0.0,0.0,5.9103,0.0,0.0,5.744,5.6798,0.0,5.6928,5.7111,5.7111,5.7503,5.7974,5.7974,5.8209,5.8523,5.8523,5.8523,5.8212,5.6605,5.5742,0.0,5.2297,5.0896,0.0,4.9029,0.0,0.0,0.0,0.0,0.0,0.0,4.84,4.84,4.84,4.84,4.8232,0.0,4.6085,0.0,0.0,0.0,0.0,0.0,0.0,4.1739,4.1173,4.106,4.106,0.0,0.0,4.106,4.106,4.106,4.0723,4.0198,3.7052,3.513,3.4432,3.1315,2.9967,3.0087,3.0381,3.0675,3.0969,3.1263,3.149,3.1664,3.1664,3.1284,3.0471,2.8839,2.7051,2.5649,2.4888,2.2288,1.9082,6.8889,6.8889,6.8489,6.7227,6.7012,0.0,0.0,0.0,6.7012,0.0,6.7012,6.7012,6.7012,6.7012,6.7012,6.7012,6.7012,6.7012,6.7012,6.7012,0.0,0.0,6.6057,6.5558,6.5558,0.0,0.0,0.0,0.0,6.1649,6.096,6.154,6.1383,6.0728,6.0728,6.0403,6.0022,6.0022,5.9696,5.9233,5.9777,6.0349,6.0728,6.0012,5.8652,5.704,5.6902,5.7242,5.7712,5.7712,5.8052,5.8523,5.8523,5.8523,5.8523,5.8523,5.8523,5.8355,5.8355,5.6294,5.3984,5.3323,0.0,0.0,0.0,0.0,4.84,0.0,0.0,0.0,0.0,0.0,4.84,4.84,4.8377,4.7626,4.6085,4.4398,4.2749,0.0,0.0,0.0,0.0,3.9832,4.018,4.1005,4.106,4.106,0.0,0.0,4.106,4.106,4.106,4.001,3.8289,3.6362,3.4432,3.269,3.0794,3.0087,3.0368,3.0675,3.0969,3.1236,3.1543,3.1664,3.1664,3.1664,3.0509,2.8536,2.8092,2.5359,2.1526,2.132,1.9619,1.7437,6.8889,6.8889,6.8766,0.0,6.8366,6.8366,0.0,0.0,0.0,0.0,6.8366,6.8366,6.8366,6.8366,6.8366,6.8366,6.8366,0.0,0.0,0.0,0.0,6.8366,6.7393,6.6914,6.6914,6.4919,6.3907,6.3907,0.0,6.2557,6.2424,6.2002,6.1654,6.1519,6.1002,6.092,6.1299,6.0757,6.0675,6.1079,6.1808,6.1813,0.0,0.0,6.0648,5.9583,5.8499,5.8157,5.8287,5.8287,5.8392,5.8523,5.8523,5.8523,5.8523,5.8523,5.7901,5.7014,5.6168,5.4132,5.2062,5.1084,4.9669,4.8538,0.0,0.0,0.0,0.0,0.0,0.0,0.0,0.0,0.0,4.84,4.731,4.5937,4.4398,4.2749,0.0,3.9411,0.0,0.0,3.9795,3.9832,4.018,4.1005,4.106,4.106,4.106,0.0,0.0,4.106,3.9671,3.8802,3.8289,3.513,3.3219,3.269,3.1014,3.0287,3.0381,3.0889,3.1156,3.1236,3.1543,3.1664,3.1664,3.1664,3.0509,2.8368,2.6749,2.3405,1.9437,1.9108,1.8582,1.7989,6.8889,6.8889,0.0,6.8889,0.0,0.0,6.8889,0.0,0.0,6.8889,6.8889,0.0,6.8889,6.8889,6.8889,6.8889,6.8889,0.0,6.8889,0.0,0.0,6.8889,6.8386,6.8029,6.8029,6.654,0.0,6.5036,0.0,6.3282,6.2942,6.2515,6.222,6.222,6.1816,6.1951,6.222,6.1816,6.1951,6.2354,6.2781,6.2515,0.0,6.1789,6.1383,6.0591,5.9761,5.9202,5.892,5.892,5.8779,5.8523,5.8523,5.8523,5.8523,5.8523,5.7615,5.6555,5.5851,5.3912,5.1763,5.0959,4.9739,4.8653,4.8446,4.84,4.84,0.0,0.0,0.0,0.0,0.0,0.0,4.84,4.6994,4.5319,4.3794,0.0,0.0,0.0,3.8988,0.0,3.9795,4.0015,4.0382,4.1005,4.106,4.106,0.0,0.0,0.0,4.106,4.0028,3.8802,3.7069,3.4956,3.3043,3.1479,3.075,3.0421,3.0568,3.1022,3.1289,3.1423,3.1597,3.1664,3.1664,3.07,2.9147,2.6999,2.3698,2.1,1.868,1.8314,1.8176,1.8176,6.8889,6.8889,0.0,0.0,0.0,0.0,0.0,6.8889,0.0,6.8889,0.0,6.8889,6.8889,6.8889,6.8889,6.8889,0.0,6.8889,6.8889,6.8889,6.8889,6.8889,6.8889,6.8889,6.8889,6.7909,6.6909,0.0,0.0,6.3908,6.2942,6.2942,6.2942,6.2942,6.2942,6.2942,6.2942,6.2942,6.2942,6.2942,6.2942,6.2515,6.1951,6.1951,6.1546,6.1002,6.1002,6.0426,5.9595,5.9595,5.9061,5.8523,5.8523,5.8523,5.8523,5.8523,5.7615,5.67,5.6555,5.4402,5.2268,5.1597,5.0219,4.8974,4.8492,4.84,4.84,4.84,4.84,4.84,0.0,0.0,0.0,4.8178,4.6743,0.0,0.0,0.0,0.0,0.0,0.0,0.0,3.9887,4.0253,4.0639,4.1024,4.106,4.106,0.0,0.0,0.0,4.0705,4.0536,0.0,3.513,0.0,3.3073,2.998,3.0274,3.0568,3.0862,3.1156,3.1423,3.1664,3.1664,3.1474,3.1093,2.9338,2.7203,2.4646,2.0413,1.8744,1.868,1.8338,1.8192,1.8176,6.9012,6.8889,0.0,0.0,0.0,6.8889,6.8889,6.8889,6.8889,6.8889,6.8889,6.8889,6.8889,6.8889,6.8889,6.8889,6.8889,0.0,0.0,0.0,0.0,6.8889,6.8889,6.8889,6.8889,6.7909,6.6909,0.0,0.0,6.3908,6.2942,6.2942,6.2942,6.2942,6.2942,6.2942,6.2942,6.2942,0.0,6.2942,6.2942,6.2781,6.2648,6.2648,6.2648,6.2515,6.2515,6.1275,5.9595,5.9595,5.9061,5.8523,5.8523,5.8523,5.8523,5.8523,5.7615,5.6555,5.5557,5.3835,5.1994,5.0606,4.9651,4.8974,4.8492,4.84,4.84,4.84,4.84,4.84,4.84,0.0,0.0,0.0,0.0,0.0,0.0,0.0,0.0,0.0,0.0,4.029,0.0,4.0437,4.0639,0.0,0.0,0.0,0.0,0.0,0.0,0.0,0.0,0.0,0.0,0.0,3.0739,3.0287,3.0581,3.0862,3.1156,3.145,3.1623,3.1664,3.1664,3.07,2.9147,2.8764,2.6431,2.2731,1.9979,1.885,1.8696,1.8485,1.8306,1.8176,6.9536,0.0,0.0,0.0,0.0,0.0,0.0,6.8889,0.0,6.8889,6.8889,6.8889,6.8889,6.8889,6.8889,6.8889,6.8889,6.8889,6.8889,6.8889,6.8889,6.8889,6.8889,6.8889,6.8889,6.8386,6.7668,6.6663,0.0,0.0,6.3675,6.3178,6.2942,6.2942,6.2942,6.2942,0.0,0.0,0.0,6.2942,6.2942,6.2942,6.2942,6.2942,6.2942,6.2942,6.2942,6.1951,6.0701,6.0701,6.0288,5.9621,5.9202,5.9061,5.9061,5.8638,5.7184,5.5704,5.514,5.3456,5.1664,5.0549,5.0076,4.9686,4.8928,4.8768,4.8699,4.8446,4.84,4.8469,4.8722,4.8561,0.0,0.0,0.0,0.0,0.0,0.0,3.9612,0.0,0.0,0.0,0.0,0.0,0.0,0.0,0.0,0.0,0.0,0.0,0.0,0.0,0.0,0.0,0.0,0.0,0.0,3.0368,3.0662,3.0942,3.1236,3.153,3.1664,3.1664,3.1664,3.0496,2.8368,2.6238,2.3531,2.0603,1.9444,1.8874,1.8704,1.8517,1.8338,1.8176,0.0,6.9997,0.0,0.0,6.8982,0.0,6.8889,6.8889,6.8889,6.8889,6.8889,6.8889,6.8889,6.8889,6.8889,6.8889,6.8889,6.8889,6.8889,6.8889,6.8889,6.8889,6.8889,6.8889,6.8889,6.8889,6.8386,0.0,0.0,0.0,6.4195,6.3357,6.2942,0.0,0.0,0.0,0.0,0.0,6.2942,6.2942,6.2942,6.2942,6.2942,6.2942,6.2942,6.2942,6.2942,6.2515,6.2086,6.2086,6.1411,6.0591,6.0012,5.9873,5.9734,5.9202,5.7328,5.5557,5.5263,5.3497,5.1601,5.0765,5.0627,5.0398,4.9479,4.9273,4.9181,4.8791,4.8722,4.8837,4.9204,4.8657,0.0,0.0,0.0,0.0,0.0,0.0,0.0,0.0,0.0,0.0,4.0602,0.0,0.0,0.0,0.0,0.0,0.0,0.0,0.0,0.0,0.0,3.3922,3.2174,0.0,3.1553,0.0,3.0742,3.1036,3.133,3.1557,3.1664,3.1677,3.1284,2.9529,2.701,2.3336,2.0817,1.9248,1.9094,1.8931,1.8761,1.8574,1.8395,1.8225,0.0,0.0,0.0,0.0,0.0,0.0,0.0,6.8889,6.8889,6.8889,6.8889,6.8889,6.8889,6.8889,6.8889,6.8889,6.8889,6.8889,6.8889,6.8889,6.8889,6.8889,6.8889,6.8889,6.8889,6.8889,6.8386,0.0,0.0,6.5095,0.0,6.3158,0.0,0.0,0.0,0.0,0.0,6.2942,6.2942,6.2942,6.2942,6.2942,6.2942,6.2942,6.2942,6.2942,6.2942,6.2809,6.2781,6.2781,6.1816,6.0728,6.0591,6.0591,6.0591,6.0453,5.9149,5.7251,5.6239,5.4497,5.2622,5.1047,5.0627,5.049,4.9962,4.9847,4.9824,4.9778,4.9755,4.9778,4.9824,4.853,4.6963,0.0,0.0,0.0,0.0,0.0,4.0547,4.0895,0.0,0.0,0.0,4.1042,0.0,0.0,0.0,0.0,0.0,0.0,0.0,3.3395,0.0,3.1997,3.0272,3.0542,0.0,3.0755,3.1049,3.1343,3.1623,3.1664,3.1664,3.1664,2.9733,2.6624,2.275,2.062,1.9454,1.9256,1.924,1.9118,1.8939,1.8761,1.8582,1.8403,0.0,0.0,0.0,0.0,0.0,0.0,0.0,6.9135,6.8889,6.8889,6.8889,6.8889,6.8889,6.8889,6.8889,6.8889,6.8889,6.8889,6.8889,6.8889,6.8889,6.8889,6.8889,6.8889,6.8889,6.8889,6.8654,0.0,0.0,0.0,0.0,0.0,0.0,0.0,0.0,6.2942,6.2942,6.2942,6.2942,6.2942,6.2942,6.2942,6.2942,6.2942,6.2942,6.2942,6.2942,6.2942,6.2942,6.2942,6.2515,6.1951,6.1546,6.1383,6.1111,5.9707,5.8108,5.6529,5.509,5.3497,5.1954,5.1309,5.111,5.0972,5.0467,5.0329,5.026,4.9962,4.9916,4.9684,4.9023,4.8058,4.6626,0.0,0.0,0.0,0.0,0.0,0.0,4.1042,0.0,4.106,0.0,0.0,0.0,0.0,0.0,0.0,0.0,0.0,0.0,3.2867,0.0,3.0698,3.0181,3.0301,3.0595,3.1049,3.1169,3.1383,3.1664,3.1664,3.108,2.9721,2.6238,2.392,2.2172,2.0235,1.9256,1.9256,1.9256,1.9142,1.8972,1.8907,1.8696,1.8444,7.4256,0.0,7.2269,0.0,7.0644,7.012,6.9936,6.9505,6.9105,6.892,6.8889,6.8889,6.8889,6.8889,6.8889,6.8889,6.8889,6.8889,6.8889,6.8889,6.8889,6.8889,6.8889,0.0,6.8889,6.8889,6.8889,6.8889,6.7909,0.0,0.0,0.0,0.0,0.0,6.2942,6.2942,6.2942,6.2942,6.2942,6.2942,6.2942,6.2942,6.2942,6.2942,6.2942,6.2942,6.2942,6.2942,6.2942,6.2942,6.2942,6.2781,6.222,6.2086,6.1654,5.9681,5.794,5.6214,5.4497,5.2892,5.1716,5.1431,5.1431,5.147,5.0949,5.0857,5.0765,5.0421,4.9875,4.9333,4.8408,4.7233,4.5595,4.3687,0.0,0.0,0.0,0.0,0.0,4.106,4.106,4.106,4.106,4.106,0.0,0.0,0.0,0.0,0.0,0.0,0.0,0.0,0.0,0.0,0.0,3.0448,3.0742,3.1223,3.1316,3.1463,3.1677,3.108,2.9721,2.7407,2.392,2.1977,2.1397,1.984,1.9256,1.9256,1.9256,1.9175,1.9053,1.9004,1.8793,1.8525,7.5007,7.4202,7.3407,7.2181,7.1383,7.0675,6.9997,6.9874,6.9628,6.8982,6.8889,6.8889,6.8889,6.8889,6.8889,6.8889,6.8889,6.8889,6.8889,6.8889,6.8889,0.0,0.0,6.8889,6.8889,6.8889,6.8889,6.8889,0.0,0.0,6.6462,0.0,6.3308,6.2942,6.2942,6.2942,6.2942,6.2942,6.2942,6.2942,6.2942,6.2942,6.2942,6.2942,6.2942,6.2942,6.2942,6.2942,6.2942,6.2942,6.2942,6.2942,6.2942,6.2942,6.2648,6.1057,5.9209,5.7343,5.5483,5.375,5.2459,5.1562,5.1716,5.187,5.1408,5.1408,5.1408,5.1408,4.9942,4.8798,4.882,4.59,4.3476,4.3086,0.0,0.0,0.0,0.0,0.0,4.106,4.106,4.106,4.106,0.0,0.0,0.0,0.0,0.0,0.0,0.0,0.0,2.9913,2.9913,0.0,3.0354,3.0648,3.0929,3.1223,3.153,3.1664,3.1664,2.9529,2.7599,2.5464,2.3336,2.1201,1.9256,1.9256,1.9256,1.9256,1.9256,1.9256,1.9232,1.9053,1.8874,1.8696,7.6281,7.5168,7.413,7.2892,7.2091,7.1567,7.1352,7.0521,6.9813,6.9597,6.9166,6.8889,6.8889,6.8889,6.8889,0.0,6.8889,6.8889,0.0,6.8889,6.8889,6.8889,6.8889,6.8889,6.8889,6.8889,6.8889,6.8889,0.0,0.0,0.0,6.4716,6.3708,6.2942,6.2942,6.2942,6.2942,6.2942,6.2942,6.2942,6.2942,6.2942,6.2942,6.2942,6.2942,6.2942,6.2942,6.2942,6.2942,6.2942,6.2942,6.2942,6.2942,6.2942,6.2354,5.9793,5.8507,5.7226,5.4497,5.3044,5.2154,5.187,5.1716,5.1562,5.1431,5.1431,5.1431,5.1431,4.9964,4.8504,4.7208,4.5088,4.3099,4.1861,4.1304,0.0,0.0,0.0,0.0,4.106,4.106,4.106,0.0,4.001,0.0,0.0,0.0,0.0,0.0,0.0,0.0,0.0,3.0114,0.0,3.0648,3.0942,3.1236,3.153,3.1623,3.089,2.9529,2.7407,2.527,2.3336,2.1201,1.984,1.9256,1.9256,1.9256,1.9256,1.9256,1.9256,1.9256,1.9191,1.9053,1.8874,7.6958,7.6053,7.4889,7.3324,7.2645,7.2275,7.2029,7.1229,7.049,6.9967,6.9536,6.9166,6.892,6.8889,0.0,6.8889,6.8889,6.8889,6.8889,6.8889,6.8889,6.8889,6.8889,6.8889,6.8889,0.0,0.0,6.8889,6.8889,6.8029,6.6417,6.5794,6.4781,6.3413,6.3413,6.331,6.2942,6.2942,6.2942,6.2942,6.2942,6.2942,6.2942,6.2942,6.2942,6.2942,6.2942,6.2942,6.2942,6.2942,6.2942,6.2942,6.2942,6.2487,6.1491,5.9069,5.7798,5.6504,5.3948,5.2916,5.2612,5.2307,5.2024,5.1716,5.1431,5.1431,5.1431,5.1431,4.9472,4.7528,4.6384,4.4291,4.2345,4.1229,4.106,4.106,4.106,0.0,0.0,0.0,0.0,0.0,0.0,3.9331,0.0,0.0,0.0,0.0,0.0,0.0,0.0,3.0074,3.0261,0.0,3.0955,3.1129,3.137,3.1664,3.089,2.9924,2.856,2.5658,2.3726,2.2368,2.0235,1.9256,1.9256,1.9256,1.9256,1.9256,1.9256,1.9256,1.9256,1.9256,1.9142,1.8956,7.718,7.6621,0.0,0.0,7.3107,0.0,7.2152,7.1998,7.1506,7.0213,6.9967,6.9659,6.9012,6.892,6.8889,6.8889,0.0,0.0,0.0,6.8889,6.8889,6.8889,6.8889,6.8889,6.8889,6.8889,6.8889,6.8889,6.8889,6.8386,6.7427,6.7427,6.6417,6.4525,6.4396,6.3908,6.3046,6.2914,6.2942,6.2942,6.2942,6.2942,6.2942,6.2942,6.2942,6.2942,6.2942,6.2942,6.2942,6.2942,6.2942,6.2942,6.2781,6.1626,6.0208,5.8789,5.7251,5.5679,5.3822,5.3521,5.3521,5.2916,5.2588,5.2307,5.1562,5.1431,5.1431,5.1254,4.8504,4.6223,4.6061,4.3322,4.106,4.106,4.106,4.106,4.106,0.0,0.0,0.0,0.0,0.0,0.0,3.916,3.7414,0.0,0.0,0.0,0.0,0.0,3.0074,3.0354,3.0381,3.0662,3.1223,3.1249,3.1396,3.1664,2.9529,2.856,2.8176,2.431,2.2368,2.2172,2.0235,1.9256,1.9256,1.9256,1.9256,1.9256,1.9256,1.9256,1.9256,1.9256,1.9151,1.8972,0.0,0.0,7.6167,7.4684,7.3661,7.2922,7.2768,7.2306,7.1844,7.1536,7.0551,6.9843,6.9659,6.9197,6.8889,6.8889,6.8889,6.8889,6.8889,6.8889,6.8889,6.8889,6.8889,6.8889,6.8889,6.8889,6.8889,6.8889,6.8889,6.8386,6.7427,6.7427,6.6786,6.5513,6.4781,6.4268,6.4037,6.3178,6.2942,6.2942,6.2942,6.2942,6.2942,6.2942,6.2942,6.2942,6.2942,6.2942,6.2942,6.2942,6.2942,6.2648,6.1491,6.007,5.8789,5.8507,5.7251,5.5679,5.4098,5.3521,5.3243,5.3068,5.2612,5.2154,5.187,5.1562,5.1099,4.9629,4.7688,4.5738,4.4454,4.2512,4.106,4.106,4.106,4.106,4.106,4.106,0.0,0.0,4.106,4.0536,3.916,3.7225,3.5304,0.0,0.0,0.0,0.0,3.0127,3.0287,3.0354,3.0581,3.0862,3.1223,3.145,3.1597,3.1664,2.9529,2.7792,2.6238,2.3531,2.1594,2.0038,1.9454,1.9256,1.9256,1.9256,1.9256,1.9256,1.9256,1.9256,1.9256,1.9256,1.9232,1.9167,7.8624,7.7401,7.6281,7.5007,7.3783,7.2983,7.2983,7.2675,7.2337,7.2029,7.1044,7.0244,6.9936,6.9289,6.8889,6.8889,6.8889,6.8889,6.8889,6.8889,6.8889,6.8889,6.8889,6.8889,6.8889,6.8889,6.8889,6.8889,6.8889,6.8654,6.8029,6.8029,6.7275,6.5919,6.529,6.4525,6.3675,6.3178,6.2942,6.2942,6.2942,6.2942,6.2942,6.2942,6.2942,6.2942,6.2942,6.2942,6.2942,6.2942,6.2942,6.2648,6.1057,5.9627,5.8224,5.7538,5.6264,5.4819,5.3948,5.3672,5.337,5.3243,5.2764,5.2154,5.2024,5.1076,4.9964,4.8978,4.6706,4.4762,4.3797,4.2197,4.106,4.106,4.106,4.106,4.106,4.106,0.0,4.106,4.0367,3.9501,3.846,3.5842,3.3731,3.2867,0.0,0.0,3.0114,3.0274,3.0421,3.0555,3.0835,3.1129,3.1423,3.1583,3.1664,3.1664,2.856,2.6624,2.5464,2.2368,2.0432,1.9256,1.9256,1.9256,1.9256,1.9256,1.9256,1.9256,1.9256,1.9256,1.9256,1.9256,1.9256,1.9232,7.8836,7.7511,7.6281,7.5242,7.3874,7.2983,7.2983,7.2983,7.2768,7.2214,7.1413,7.0675,7.012,6.9351,6.8889,6.8889,6.8889,6.8889,6.8889,6.8889,6.8889,6.8889,6.8889,6.8889,6.8889,6.8889,6.8889,6.8889,6.8889,6.8889,6.8889,6.8889,6.7998,6.6293,6.6044,6.4909,6.3282,6.3046,6.2942,6.2942,6.2942,6.2942,6.2942,6.2942,6.2942,6.2942,6.2942,6.2942,6.2942,6.2942,6.2781,6.2354,6.0784,5.9209,5.7798,5.6264,5.4819,5.3822,5.3822,5.3822,5.3672,5.337,5.2916,5.2612,5.2154,5.041,4.882,4.8504,4.59,4.3468,4.3322,4.203,4.106,4.106,4.106,4.106,4.106,0.0,4.106,4.106,3.9501,3.8118,3.7929,3.4781,3.2514,3.2351,3.0822,3.01,0.0,3.0448,3.0608,3.0849,3.1089,3.137,3.1664,3.1664,3.1474,3.1284,2.7407,2.527,2.4882,2.1005,1.9256,1.9256,1.9256,1.9256,1.9256,1.9256,1.9256,1.9256,1.9256,1.9256,1.9256,1.9256,1.9256,1.9034,7.9972,7.8197,7.6508,7.6395,7.4445,7.2983,7.2983,7.2983,7.2952,7.2829,7.169,7.0859,7.0767,6.9628,6.8889,6.8889,6.8889,6.8889,6.8889,6.8889,6.8889,6.8889,6.8889,6.8889,6.8889,6.8889,6.8889,6.8889,6.8889,6.8889,6.8889,6.8889,6.8741,6.8386,6.6663,6.5794,6.529,6.3675,6.2942,6.2942,6.2942,6.2942,6.2942,6.2942,6.2942,6.2942,6.2942,6.2942,6.2942,6.2942,6.2058,6.062,5.9209,5.7655,5.6118,5.467,5.3972,5.3822,5.3822,5.3822,5.3822,5.3672,5.337,5.3068,5.2612,5.0853,4.8776,4.7027,4.4925,4.3156,4.1695,4.1229,4.106,4.106,4.106,4.106,4.106,0.0,4.106,4.106,3.9501,3.7757,3.6015,3.3907,3.1997,3.0437,3.0321,3.0314,3.0354,3.0822,3.1116,3.1156,3.1196,3.137,3.1664,3.1664,3.089,2.9147,2.6624,2.4494,2.275,2.0423,1.9256,1.9256,1.9256,1.9256,1.9256,1.9256,1.9256,1.9256,1.9256,1.9256,1.9256,1.9256,1.9256,1.9058,8.0209,7.8304,7.6621,7.6621,7.4564,7.2983,7.2983,7.2983,7.2983,7.2983,7.1783,7.089,7.089,6.969,6.8889,6.8889,6.8889,6.8889,6.8889,6.8889,6.8889,6.8889,6.8889,6.8889,6.8889,6.8889,6.8889,6.8889,6.8889,6.8889,6.8889,6.8889,6.8654,6.8029,6.654,6.5668,6.5036,6.3545,6.2942,6.2942,6.2942,6.2942,6.2942,6.2942,6.2942,6.2942,6.2942,6.2942,6.2942,6.2942,6.1923,6.0345,5.8929,5.7395,5.5826,5.4248,5.3822,5.3822,5.3822,5.3822,5.3822,5.3822,5.3521,5.2916,5.147,4.9562,4.7305,4.5251,4.3487,4.203,4.1229,4.106,4.106,4.106,4.106,0.0,0.0,4.106,4.0705,3.9671,3.7929,3.6015,3.4082,3.2351,3.0849,3.014,3.0287,3.0501,3.0808,3.1076,3.1303,3.1463,3.1463,3.153,3.1664,3.0509,2.9529,2.856,2.527,2.3336,2.2368,2.0235,1.9256,1.9256,1.9256,1.9256,1.9256,1.9256,1.9256,1.9256,1.9256,1.9256,1.9256,1.9256,1.9256,1.8861,7.987,7.8056,7.6508,7.6281,7.4476,7.2983,7.2983,7.2983,7.2983,7.2983,7.1783,7.089,7.089,6.969,6.8889,6.8889,6.8889,6.8889,6.8889,6.8889,6.8889,6.8889,6.8889,6.8889,6.8889,6.8889,6.8889,6.8889,6.8889,6.8889,6.8889,6.8889,6.8386,6.7427,6.6417,6.5387,6.4268,6.3282,6.2942,6.2942,6.2942,6.2942,6.2942,6.2942,6.2942,6.2942,6.2942,6.2942,6.2809,6.2487,6.1356,5.9766,5.8366,5.6819,5.541,5.4098,5.3822,5.3822,5.3822,5.3822,5.3822,5.3822,5.3195,5.2283,5.052,4.8122,4.5879,4.4126,4.2345,4.106,4.106,4.106,4.106,4.106,0.0,0.0,0.0,4.0705,3.9841,3.846,3.6188,3.4257,3.2867,3.0959,3.0034,3.0341,3.0421,3.0688,3.1196,3.1289,3.1436,3.1664,3.1664,3.1664,3.1664,2.9721,2.8368,2.7792,2.4115,2.2172,2.1594,2.0038,1.9256,1.9256,1.9256,1.9256,1.9256,1.9256,1.9256,1.9256,1.9256,1.9256,1.9256,1.9256,1.9058,1.8259,7.873,7.7511,7.6281,7.5125,7.3874,7.2983,7.2983,7.2983,7.2983,7.2983,7.1783,7.089,7.089,6.969,6.8889,6.8889,6.8889,6.8889,6.8889,6.8889,6.8889,6.8889,6.8889,6.8889,6.8889,6.8889,6.8889,6.8889,6.8889,6.8889,6.8889,6.8889,6.8386,6.7427,6.6417,6.5387,6.4268,6.3282,6.2942,6.2942,6.2942,6.2942,6.2942,6.2942,6.2942,6.2942,6.2942,6.2942,6.2648,6.1193,5.9793,5.8224,5.6674,5.5263,5.3972,5.3822,5.3822,5.3822,5.3822,5.3822,5.3822,5.3822,5.2565,5.1316,5.0698,4.7826,4.4925,4.4291,4.2512,4.106,4.106,4.106,4.106,4.106,0.0,0.0,4.106,3.9671,3.846,3.8289,3.5146,3.2867,3.269,3.0959,3.0034,3.0341,3.0608,3.0902,3.1209,3.149,3.165,3.1664,3.1664,3.1664,3.1664,2.9721,2.7599,2.5658,2.3531,2.1397,1.9454,1.9454,1.9256,1.9256,1.9256,1.9256,1.9256,1.9256,1.9256,1.9256,1.9256,1.9256,1.9256,1.9256,1.8267,1.6864,7.9632,7.7948,7.6508,7.6053,7.4357,7.2983,7.2983,7.2983,7.2983,7.2983,7.1783,7.089,7.089,6.969,6.8889,6.8889,6.8889,6.8889,6.8889,6.8889,6.8889,6.8889,6.8889,6.8889,6.8889,6.8889,6.8889,6.8889,6.8889,6.8889,6.8889,6.8268,6.7789,6.7305,6.5668,6.4781,6.4268,6.3282,6.2942,6.2942,6.2942,6.2942,6.2942,6.2942,6.2942,6.2942,6.2942,6.2942,6.2648,6.1057,5.9627,5.8082,5.6555,5.4967,5.3822,5.3822,5.3822,5.3822,5.3822,5.3822,5.3822,5.3822,5.2565,5.0985,4.9406,4.6846,4.4454,4.2991,4.1863,4.106,4.106,4.106,4.106,4.106,0.0,4.106,4.106,3.9501,3.7946,3.6707,3.4257,3.216,3.1137,3.0434,3.0314,3.0608,3.0902,3.1196,3.149,3.161,3.1664,3.1664,3.1664,3.108,2.9721,2.7792,2.5658,2.3531,2.1397,2.0038,1.9256,1.9256,1.9256,1.9256,1.9256,1.9256,1.9256,1.9256,1.9256,1.9256,1.9256,1.9256,1.9256,1.9256,1.8259,1.6665,7.9734,7.7948,7.6508,7.6167,7.4357,7.2983,7.2983,7.2983,7.2983,7.2983,7.1783,7.089,7.089,6.969,6.8889,6.8889,6.8889,6.8889,6.8889,6.8889,6.8889,6.8889,6.8889,6.8889,6.8889,6.8889,6.8889,6.8889,6.8889,6.8889,6.8889,6.7909,6.7305,6.6786,6.5163,6.4268,6.3908,6.3178,6.2942,6.2942,6.2942,6.2942,6.2942,6.2942,6.2942,6.2942,6.2942,6.2648,6.1923,6.0345,5.8929,5.7395,5.5826,5.4695,5.3822,5.3822,5.3822,5.3822,5.3822,5.3822,5.3822,5.3822,5.2084,5.0187,4.8597,4.6223,4.3652,4.2197,4.1546,4.106,4.106,4.106,4.106,4.106,4.106,4.0892,4.0367,3.8631,3.6707,3.4781,3.3043,3.1343,3.0227,3.0247,3.0515,3.0902,3.1116,3.1356,3.165,3.1664,3.1664,3.1664,3.1664,3.0306,2.7599,2.6238,2.4494,2.2368,2.0235,1.9256,1.9256,1.9256,1.9256,1.9256,1.9256,1.9256,1.9256,1.9256,1.9256,1.9256,1.9256,1.9256,1.9256,1.8663,1.7459,1.5864,7.8624,7.7401,7.6281,7.5007,7.3783,7.2983,7.2983,7.2983,7.2983,7.2983,7.1783,7.089,7.089,6.969,6.8889,6.8889,6.8889,6.8889,6.8889,6.8889,6.8889,6.8889,6.8889,6.8889,6.8889,6.8889,6.8889,6.8889,6.8889,6.8889,6.8889,6.7909,6.6909,6.5919,6.4909,6.3777,6.2942,6.2942,6.2942,6.2942,6.2942,6.2942,6.2942,6.2942,6.2942,6.2942,6.2942,6.1923,6.0345,5.8929,5.7395,5.5826,5.4248,5.3822,5.3822,5.3822,5.3822,5.3822,5.3822,5.3822,5.3822,5.3822,5.1293,4.8776,4.8776,4.5434,4.2402,4.2402,4.1733,4.106,4.106,4.106,4.106,4.106,4.106,4.0367,3.8631,3.6707,3.4781,3.2867,3.0959,3.0034,3.0327,3.0368,3.0595,3.1183,3.1223,3.1356,3.165,3.1664,3.1664,3.1664,3.1664,2.9721,2.5464,2.5464,2.4504,2.2368,2.0235,1.9256,1.9256,1.9256,1.9256,1.9256,1.9256,1.9256,1.9256,1.9256,1.9256,1.9256,1.9256,1.9256,1.9058,1.7466,1.5864,1.4265,7.9734,7.873,7.7511,7.6249,7.5007,7.3995,7.3107,7.2983,7.2983,7.2983,7.1783,7.089,7.089,6.969,6.8889,6.8889,6.8889,6.8889,6.8889,6.8889,6.8889,6.8889,6.8889,6.8889,6.8889,6.8889,6.8889,6.8889,6.8889,6.8889,6.8889,6.7153,6.6168,6.5794,6.4167,6.3178,6.2942,6.2942,6.2942,6.2942,6.2942,6.2942,6.2942,6.2942,6.2942,6.2781,6.1626,6.1057,6.0208,5.7681,5.6555,5.5826,5.4248,5.3822,5.3822,5.3822,5.3822,5.3822,5.3822,5.2869,5.2084,5.2084,5.0365,4.846,4.7368,4.4822,4.2735,4.2402,4.1882,4.1378,4.1229,4.106,4.106,4.106,4.106,4.0367,3.8631,3.6707,3.4781,3.2867,3.0959,3.0034,3.0327,3.0541,3.0822,3.1196,3.1423,3.157,3.1664,3.1664,3.1664,3.1664,3.0306,2.8176,2.5464,2.5464,2.3726,2.0235,1.9651,1.9256,1.9256,1.9256,1.9256,1.9256,1.9256,1.9256,1.9256,1.9256,1.9256,1.9256,1.9256,1.9256,1.9058,1.7466,1.5864,1.4265,8.0209,7.9184,7.8056,7.6846,7.5592,7.4445,7.32,7.2983,7.2983,7.2983,7.1783,7.089,7.089,6.969,6.8889,6.8889,6.8889,6.8889,6.8889,6.8889,6.8889,6.8889,6.8889,6.8889,6.8889,6.8889,6.8889,6.8889,6.8889,6.8889,6.8889,6.6909,6.5919,6.5794,6.3806,6.2942,6.2942,6.2942,6.2942,6.2942,6.2942,6.2942,6.2942,6.2942,6.2487,6.1923,6.092,5.9766,5.8507,5.6674,5.5679,5.4967,5.4098,5.3822,5.3822,5.3822,5.3822,5.3822,5.3822,5.2565,5.1139,5.052,4.9091,4.7528,4.6566,4.4658,4.2902,4.2569,4.2049,4.1546,4.1229,4.106,4.106,4.106,4.106,4.0198,3.7586,3.6188,3.4447,3.182,3.0616,3.0074,3.0488,3.0688,3.0969,3.137,3.157,3.1664,3.1664,3.1664,3.1284,3.0509,2.9338,2.7203,2.431,2.431,2.2564,1.9256,1.9256,1.9256,1.9256,1.9256,1.9256,1.9256,1.9256,1.9256,1.9256,1.9256,1.9256,1.9256,1.9256,1.8861,1.8061,1.6467,1.4862,1.3267,8.0209,7.9321,7.8197,7.6846,7.5707,7.4564,7.32,7.2983,7.2952,7.2891,7.1721,7.089,7.0828,6.9659,6.8889,6.8889,6.8889,6.8889,6.8889,6.8889,6.8889,6.8889,6.8889,6.8889,6.8889,6.8889,6.8889,6.8889,6.8889,6.8889,6.8772,6.6786,6.589,6.5668,6.3806,6.2942,6.2942,6.2942,6.2942,6.2942,6.2942,6.2942,6.2914,6.2781,6.1789,6.062,6.0345,5.8366,5.6118,5.5972,5.4967,5.3822,5.3822,5.3822,5.3822,5.3822,5.3822,5.3822,5.3648,5.2389,5.0675,4.8934,4.7368,4.6103,4.6103,4.4494,4.3068,4.2569,4.2049,4.1714,4.1229,4.1229,4.106,4.106,4.0892,3.9653,3.6015,3.532,3.3922,3.0258,2.9913,3.014,3.0728,3.0835,3.1089,3.1623,3.1664,3.1664,3.1664,3.1664,3.07,2.8752,2.8368,2.6431,2.2368,2.2172,2.1201,1.9256,1.9256,1.9256,1.9256,1.9256,1.9256,1.9256,1.9256,1.9256,1.9256,1.9256,1.9256,1.9256,1.9256,1.8259,1.6665,1.5061,1.3467,1.1468,8.0209,7.9972,7.9079,7.6958,7.6395,7.5475,7.3324,7.2983,7.2798,7.2275,7.1444,7.0705,7.0182,6.9382,6.8889,6.8889,6.8889,6.8889,6.8889,6.8889,6.8889,6.8889,6.8889,6.8889,6.8889,6.8889,6.8889,6.8889,6.8889,6.8505,6.7668,6.654,6.5543,6.4653,6.3413,6.2942,6.2942,6.2942,6.2942,6.2942,6.2942,6.2942,6.2781,6.1491,6.092,6.0345,5.794,5.6674,5.5972,5.467,5.4098,5.3822,5.3822,5.3822,5.3822,5.3822,5.3822,5.3497,5.2236,5.0675,4.8934,4.7208,4.5616,4.4186,4.4186,4.3856,4.338,4.3068,4.2902,4.255,4.1714,4.1546,4.1546,4.1229,3.9841,3.8118,3.5842,3.4257,3.2528,3.0093,2.9913,3.014,3.0728,3.1209,3.153,3.1664,3.1664,3.1664,3.1664,3.1664,3.07,2.8752,2.701,2.4882,2.2368,2.0817,1.9849,1.9256,1.9256,1.9256,1.9256,1.9256,1.9256,1.9256,1.9256,1.9256,1.9256,1.9256,1.9256,1.9256,1.9256,1.8259,1.6665,1.5061,1.2863,1.0249,8.0209,8.0209,7.9425,7.7069,7.6621,7.5823,7.3324,7.2983,7.2737,7.206,7.1352,7.0644,6.9967,6.9289,6.8889,6.8889,6.8889,6.8889,6.8889,6.8889,6.8889,6.8889,6.8889,6.8889,6.8889,6.8889,6.8889,6.8889,6.8889,6.8386,6.7427,6.6417,6.5387,6.4396,6.3282,6.2942,6.2942,6.2942,6.2942,6.2942,6.2942,6.2942,6.2781,6.1193,6.0208,5.9209,5.6963,5.5679,5.4819,5.4098,5.3822,5.3822,5.3822,5.3822,5.3822,5.3822,5.3195,5.2389,5.1601,4.9562,4.7368,4.6566,4.4985,4.3711,4.3711,4.3711,4.3546,4.3234,4.3068,4.2902,4.2216,4.1882,4.1695,4.1378,3.9671,3.7586,3.5842,3.3907,3.1997,3.0093,2.9913,3.014,3.0728,3.133,3.1664,3.1664,3.1664,3.1664,3.1664,3.07,2.9338,2.7203,2.5076,2.2945,2.1013,1.984,1.9256,1.9256,1.9256,1.9256,1.9256,1.9256,1.9256,1.9256,1.9256,1.9256,1.9256,1.9256,1.9256,1.9256,1.9256,1.7855,1.5658,1.4793,1.1951,0.8144,8.0209,8.0209,7.9425,7.7069,7.6621,7.5823,7.3324,7.2983,7.2706,7.1906,7.129,7.0613,6.9813,6.9228,6.8889,6.8889,6.8889,6.8889,6.8889,6.8889,6.8889,6.8889,6.8889,6.8889,6.8889,6.8889,6.8889,6.8889,6.8889,6.8268,6.7183,6.6293,6.529,6.4167,6.3282,6.2942,6.2914,6.283,6.2773,6.2773,6.2661,6.2473,6.2047,6.0484,5.911,5.7669,5.6113,5.4745,5.3822,5.3822,5.3822,5.3822,5.3822,5.3822,5.3672,5.3497,5.2389,5.1139,5.0675,4.846,4.6264,4.5941,4.4822,4.3711,4.3711,4.3711,4.3546,4.3234,4.3234,4.3068,4.2569,4.2216,4.1695,4.1341,3.9296,3.7225,3.532,3.3395,3.1642,3.0093,3.0007,3.0261,3.0742,3.133,3.1664,3.1664,3.1664,3.1664,3.1664,2.9721,2.7599,2.5658,2.3531,2.1397,1.9256,1.9256,1.9256,1.9256,1.9256,1.9256,1.9256,1.9256,1.9256,1.9256,1.9256,1.9256,1.9256,1.9256,1.9256,1.9256,1.9026,1.7019,1.4409,1.347,1.021,0.6248,8.0209,8.0209,7.9425,7.7069,7.6621,7.5823,7.3324,7.2983,7.2521,7.1229,7.0952,7.0428,6.9166,6.8951,6.8889,6.8889,6.8889,6.8889,6.8889,6.8889,6.8889,6.8889,6.8889,6.8889,6.8889,6.8889,6.8889,6.8889,6.8889,6.7879,6.6168,6.5919,6.4909,6.3046,6.2914,6.2942,6.2886,6.2352,6.2127,6.2099,6.1565,6.0635,5.9233,5.7861,5.6659,5.5559,5.401,5.3586,5.3822,5.3822,5.3822,5.3822,5.3822,5.3822,5.3497,5.2084,5.1447,5.0675,4.7826,4.6566,4.5941,4.4494,4.3856,4.3711,4.3711,4.3711,4.3711,4.3711,4.3546,4.3546,4.3068,4.2902,4.203,3.9618,3.7724,3.5636,3.338,3.1479,3.0272,2.9913,3.0368,3.0702,3.0782,3.133,3.1664,3.1664,3.1664,3.1664,3.1664,2.9721,2.7599,2.5658,2.3531,2.1397,1.9256,1.9256,1.9256,1.9256,1.9256,1.9256,1.9256,1.9256,1.9256,1.9256,1.9256,1.9256,1.9256,1.9256,1.9256,1.924,1.7705,1.5872,1.3869,0.995,0.7519,0.6115,8.0209,8.0209,7.9425,7.7069,7.6621,7.5823,7.3324,7.2983,7.2491,7.1075,7.089,7.0398,6.9043,6.8889,6.8889,6.8889,6.8889,6.8889,6.8889,6.8889,6.8889,6.8889,6.8889,6.8889,6.8889,6.8889,6.8623,6.8029,6.8029,6.7275,6.5919,6.529,6.4296,6.2914,6.2577,6.2408,6.238,6.1762,6.1509,6.1481,6.12,6.0255,5.8723,5.7214,5.5993,5.472,5.3522,5.3389,5.3822,5.3822,5.3822,5.3822,5.3822,5.3822,5.3497,5.1777,5.0675,4.9406,4.6888,4.5616,4.4658,4.3856,4.3711,4.3711,4.3711,4.3711,4.3711,4.3711,4.3711,4.3711,4.3546,4.2364,4.0987,3.96,3.6674,3.4257,3.2867,3.1137,2.9913,2.9913,3.0434,3.0795,3.0795,3.133,3.1664,3.1664,3.1664,3.1284,3.0115,2.7984,2.5851,2.392,2.179,2.0235,1.9256,1.9256,1.9256,1.9256,1.9256,1.9256,1.9256,1.9256,1.9256,1.9256,1.9256,1.9256,1.9248,1.9142,1.9045,1.8745,1.7203,1.4911,1.2281,0.8956,0.6992,0.5805]},{"header":{"parameterUnit":"m.s-1","parameterCategory":1,"la1":30.6,"la2":28.766,"lo1":-90.7593,"lo2":-88.6598,"dy":0.0162,"dx":0.0183,"nx":116,"ny":114,"refTime":"2024-03-29T18:00:00:Z","depth":0,"parameterNumber":3,"parameterNumberName":"V-component_of_WINDS"},"data":[0.0,0.0,0.0,0.0,0.0,0.0,0.0,0.0,0.0,0.0,0.0,0.0,0.0,0.0,0.0,0.0,0.0,0.0,0.0,0.0,0.0,0.0,0.0,0.0,0.0,0.0,0.0,0.0,0.0,0.0,0.0,0.0,0.0,0.0,0.0,0.0,0.0,0.0,0.0,0.0,0.0,0.0,0.0,0.0,0.0,0.0,0.0,0.0,0.0,0.0,0.0,0.0,0.0,0.0,0.0,0.0,0.0,0.0,0.0,0.0,0.0,0.0,0.0,0.0,0.0,0.0,0.0,0.0,0.0,0.0,0.0,0.0,0.0,0.0,0.0,0.0,0.0,0.0,0.0,0.0,0.0,0.0,0.0,0.0,0.0,0.0,0.0,0.0,0.0,0.0,0.0,0.0,0.0,0.0,0.0,0.0,0.0,0.0,0.0,0.0,0.0,0.0,0.0,0.0,0.0,0.0,0.0,0.0,0.0,0.0,0.0,0.0,0.0,0.0,0.0,0.0,0.0,0.0,0.0,0.0,0.0,0.0,0.0,0.0,0.0,0.0,0.0,0.0,0.0,0.0,0.0,0.0,0.0,0.0,0.0,0.0,0.0,0.0,0.0,0.0,0.0,0.0,0.0,0.0,0.0,0.0,0.0,0.0,0.0,0.0,0.0,0.0,0.0,0.0,0.0,0.0,0.0,0.0,0.0,0.0,0.0,0.0,0.0,0.0,0.0,0.0,0.0,0.0,0.0,0.0,0.0,0.0,0.0,0.0,0.0,0.0,0.0,0.0,0.0,0.0,0.0,0.0,0.0,0.0,0.0,0.0,0.0,0.0,0.0,0.0,0.0,0.0,0.0,0.0,0.0,0.0,0.0,0.0,0.0,0.0,0.0,0.0,0.0,0.0,0.0,0.0,0.0,0.0,0.0,0.0,0.0,0.0,0.0,0.0,0.0,0.0,0.0,0.0,0.0,0.0,0.0,0.0,0.0,0.0,0.0,0.0,0.0,0.0,0.0,0.0,0.0,0.0,0.0,0.0,0.0,0.0,0.0,0.0,0.0,0.0,0.0,0.0,0.0,0.0,0.0,0.0,0.0,0.0,0.0,0.0,0.0,0.0,0.0,0.0,0.0,0.0,0.0,0.0,0.0,0.0,0.0,0.0,0.0,0.0,0.0,0.0,0.0,0.0,0.0,0.0,0.0,0.0,0.0,0.0,0.0,0.0,0.0,0.0,0.0,0.0,0.0,0.0,0.0,0.0,0.0,0.0,0.0,0.0,0.0,0.0,0.0,0.0,0.0,0.0,0.0,0.0,0.0,0.0,0.0,0.0,0.0,0.0,0.0,0.0,0.0,0.0,0.0,0.0,0.0,0.0,0.0,0.0,0.0,0.0,0.0,0.0,0.0,0.0,0.0,0.0,0.0,0.0,0.0,0.0,0.0,0.0,0.0,0.0,0.0,0.0,0.0,0.0,0.0,0.0,0.0,0.0,0.0,0.0,0.0,0.0,0.0,0.0,0.0,0.0,0.0,0.0,0.0,0.0,0.0,0.0,0.0,0.0,0.0,0.0,0.0,0.0,0.0,0.0,0.0,0.0,0.0,0.0,0.0,0.0,0.0,0.0,0.0,0.0,0.0,0.0,0.0,0.0,0.0,0.0,0.0,0.0,0.0,0.0,0.0,0.0,0.0,0.0,0.0,0.0,0.0,0.0,0.0,0.0,0.0,0.0,0.0,0.0,0.0,0.0,0.0,0.0,0.0,0.0,0.0,0.0,0.0,0.0,0.0,0.0,0.0,0.0,0.0,0.0,0.0,0.0,0.0,0.0,0.0,0.0,0.0,0.0,0.0,0.0,0.0,0.0,0.0,0.0,0.0,0.0,0.0,0.0,0.0,0.0,0.0,0.0,0.0,0.0,0.0,0.0,0.0,0.0,0.0,0.0,0.0,0.0,0.0,0.0,0.0,0.0,0.0,0.0,0.0,0.0,0.0,0.0,0.0,0.0,0.0,0.0,0.0,0.0,0.0,0.0,0.0,0.0,0.0,0.0,0.0,0.0,0.0,0.0,0.0,0.0,0.0,0.0,0.0,0.0,0.0,0.0,0.0,0.0,0.0,0.0,0.0,0.0,0.0,0.0,0.0,0.0,0.0,0.0,0.0,0.0,0.0,0.0,0.0,0.0,0.0,0.0,0.0,0.0,0.0,0.0,0.0,0.0,0.0,0.0,0.0,0.0,0.0,0.0,0.0,0.0,0.0,0.0,0.0,0.0,0.0,0.0,0.0,0.0,0.0,0.0,0.0,0.0,0.0,0.0,0.0,0.0,0.0,0.0,0.0,0.0,0.0,0.0,0.0,0.0,0.0,0.0,0.0,0.0,0.0,0.0,0.0,0.0,0.0,0.0,0.0,0.0,0.0,0.0,0.0,0.0,0.0,0.0,0.0,0.0,0.0,0.0,0.0,0.0,0.0,0.0,0.0,0.0,0.0,0.0,0.0,0.0,0.0,0.0,0.0,0.0,0.0,0.0,0.0,0.0,0.0,0.0,0.0,0.0,0.0,0.0,0.0,0.0,0.0,0.0,0.0,0.0,0.0,0.0,0.0,0.0,0.0,0.0,0.0,0.0,0.0,0.0,0.0,0.0,0.0,0.0,0.0,0.0,0.0,0.0,0.0,0.0,0.0,0.0,0.0,0.0,0.0,0.0,0.0,0.0,0.0,0.0,0.0,0.0,0.0,0.0,0.0,0.0,0.0,0.0,0.0,0.0,0.0,0.0,0.0,0.0,0.0,0.0,0.0,0.0,0.0,0.0,0.0,0.0,0.0,0.0,0.0,0.0,0.0,0.0,0.0,0.0,0.0,0.0,0.0,0.0,0.0,0.0,0.0,0.0,0.0,0.0,0.0,0.0,0.0,0.0,0.0,0.0,0.0,0.0,0.0,0.0,0.0,0.0,0.0,0.0,0.0,0.0,0.0,0.0,0.0,0.0,0.0,0.0,0.0,0.0,0.0,0.0,0.0,0.0,0.0,0.0,0.0,0.0,0.0,0.0,0.0,0.0,0.0,0.0,0.0,0.0,0.0,0.0,0.0,0.0,0.0,0.0,0.0,0.0,0.0,0.0,0.0,0.0,0.0,0.0,0.0,0.0,0.0,0.0,0.0,0.0,0.0,0.0,0.0,0.0,0.0,0.0,0.0,0.0,0.0,0.0,0.0,0.0,0.0,0.0,0.0,0.0,0.0,0.0,0.0,0.0,0.0,0.0,0.0,0.0,0.0,0.0,0.0,0.0,0.0,0.0,0.0,0.0,0.0,0.0,0.0,0.0,0.0,0.0,0.0,0.0,0.0,0.0,0.0,0.0,0.0,0.0,0.0,0.0,0.0,0.0,0.0,0.0,0.0,0.0,0.0,0.0,0.0,0.0,0.0,0.0,0.0,0.0,0.0,0.0,0.0,0.0,0.0,0.0,0.0,0.0,0.0,0.0,0.0,0.0,0.0,0.0,0.0,0.0,0.0,0.0,0.0,0.0,0.0,0.0,0.0,0.0,0.0,0.0,0.0,0.0,0.0,0.0,0.0,0.0,0.0,0.0,0.0,0.0,0.0,0.0,0.0,0.0,0.0,0.0,0.0,0.0,0.0,0.0,0.0,0.0,0.0,0.0,0.0,0.0,0.0,0.0,0.0,0.0,0.0,0.0,0.0,0.0,0.0,0.0,0.0,0.0,0.0,0.0,0.0,0.0,0.0,0.0,0.0,0.0,0.0,0.0,0.0,0.0,0.0,0.0,0.0,0.0,0.0,0.0,0.0,0.0,0.0,0.0,0.0,0.0,0.0,0.0,0.0,0.0,0.0,0.0,0.0,0.0,0.0,0.0,0.0,0.0,0.0,0.0,0.0,0.0,0.0,0.0,0.0,0.0,0.0,0.0,0.0,0.0,0.0,0.0,0.0,0.0,0.0,0.0,0.0,0.0,0.0,0.0,0.0,0.0,0.0,0.0,0.0,0.0,0.0,0.0,0.0,0.0,0.0,0.0,0.0,0.0,0.0,0.0,0.0,0.0,0.0,0.0,0.0,0.0,0.0,0.0,0.0,0.0,0.0,0.0,0.0,0.0,0.0,0.0,0.0,0.0,0.0,0.0,0.0,0.0,0.0,0.0,0.0,0.0,0.0,0.0,0.0,0.0,0.0,0.0,0.0,0.0,0.0,0.0,0.0,0.0,0.0,0.0,0.0,0.0,0.0,0.0,0.0,0.0,0.0,0.0,0.0,0.0,0.0,0.0,0.0,0.0,0.0,0.0,0.0,0.0,0.0,0.0,0.0,0.0,0.0,0.0,0.0,0.0,0.0,0.0,0.0,0.0,0.0,0.0,0.0,0.0,0.0,0.0,0.0,0.0,0.0,0.0,0.0,0.0,0.0,0.0,0.0,0.0,0.0,0.0,0.0,0.0,0.0,0.0,0.0,0.0,0.0,0.0,0.0,0.0,0.0,0.0,0.0,0.0,0.0,0.0,0.0,0.0,0.0,0.0,0.0,0.0,0.0,0.0,0.0,0.0,0.0,0.0,0.0,0.0,0.0,0.0,0.0,0.0,0.0,0.0,0.0,0.0,0.0,0.0,0.0,0.0,0.0,0.0,0.0,0.0,0.0,0.0,0.0,0.0,0.0,0.0,0.0,0.0,0.0,0.0,0.0,0.0,0.0,0.0,0.0,0.0,0.0,0.0,0.0,0.0,0.0,0.0,0.0,0.0,0.0,0.0,0.0,0.0,0.0,0.0,0.0,0.0,0.0,0.0,0.0,0.0,0.0,0.0,0.0,0.0,0.0,0.0,0.0,0.0,0.0,0.0,0.0,0.0,0.0,0.0,0.0,0.0,0.0,0.0,0.0,0.0,0.0,0.0,0.0,0.0,0.0,0.0,0.0,0.0,0.0,0.0,0.0,0.0,0.0,0.0,0.0,0.0,0.0,0.0,0.0,0.0,0.0,0.0,0.0,0.0,0.0,0.0,0.0,0.0,0.0,0.0,0.0,0.0,0.0,0.0,0.0,0.0,0.0,0.0,0.0,0.0,0.0,0.0,0.0,0.0,0.0,0.0,0.0,0.0,0.0,0.0,0.0,0.0,0.0,0.0,0.0,0.0,0.0,0.0,0.0,0.0,0.0,0.0,0.0,0.0,0.0,0.0,0.0,0.0,0.0,0.0,0.0,0.0,0.0,0.0,0.0,0.0,0.0,0.0,0.0,0.0,0.0,0.0,0.0,0.0,0.0,0.0,0.0,0.0,0.0,0.0,0.0,0.0,0.0,0.0,0.0,0.0,0.0,0.0,0.0,0.0,0.0,0.0,0.0,0.0,0.0,0.0,0.0,0.0,0.0,0.0,0.0,0.0,0.0,0.0,0.0,0.0,0.0,0.0,0.0,0.0,0.0,0.0,0.0,0.0,0.0,0.0,0.0,0.0,0.0,0.0,0.0,0.0,0.0,0.0,0.0,0.0,0.0,0.0,0.0,0.0,0.0,0.0,0.0,0.0,0.0,0.0,0.0,0.0,0.0,0.0,0.0,0.0,0.0,0.0,0.0,0.0,0.0,0.0,0.0,0.0,0.0,0.0,0.0,0.0,0.0,0.0,0.0,0.0,0.0,0.0,0.0,0.0,0.0,0.0,0.0,0.0,0.0,0.0,0.0,0.0,0.0,0.0,0.0,0.0,0.0,0.0,0.0,0.0,0.0,0.0,0.0,0.0,0.0,0.0,0.0,0.0,0.0,0.0,0.0,0.0,0.0,0.0,0.0,0.0,0.0,0.0,0.0,0.0,0.0,0.0,0.0,0.0,0.0,0.0,0.0,0.0,0.0,0.0,0.0,0.0,0.0,0.0,0.0,0.0,0.0,0.0,0.0,0.0,0.0,0.0,0.0,0.0,0.0,0.0,0.0,0.0,0.0,0.0,0.0,0.0,0.0,0.0,0.0,0.0,0.0,0.0,0.0,0.0,0.0,0.0,0.0,0.0,0.0,0.0,0.0,0.0,0.0,0.0,0.0,0.0,0.0,0.0,0.0,0.0,0.0,0.0,0.0,0.0,0.0,0.0,0.0,0.0,0.0,0.0,0.0,0.0,-5.6031,0.0,0.0,0.0,0.0,0.0,0.0,0.0,0.0,0.0,0.0,0.0,0.0,0.0,0.0,0.0,0.0,0.0,0.0,0.0,0.0,0.0,0.0,0.0,0.0,-4.1172,-4.1172,-4.1172,-4.1172,-4.1172,-4.1172,0.0,0.0,0.0,0.0,0.0,-4.3839,-4.4833,-4.5105,-4.4621,-4.5377,-4.5306,-4.4347,-4.4347,-4.4347,-4.4347,0.0,0.0,0.0,0.0,0.0,0.0,0.0,0.0,0.0,0.0,0.0,0.0,0.0,0.0,0.0,0.0,0.0,0.0,0.0,0.0,0.0,0.0,0.0,0.0,0.0,0.0,0.0,0.0,0.0,0.0,0.0,0.0,0.0,0.0,0.0,0.0,0.0,0.0,0.0,0.0,0.0,0.0,0.0,0.0,0.0,0.0,0.0,0.0,0.0,0.0,0.0,0.0,0.0,0.0,0.0,0.0,0.0,0.0,0.0,0.0,0.0,0.0,0.0,0.0,0.0,0.0,0.0,0.0,0.0,0.0,0.0,-5.6378,0.0,0.0,0.0,0.0,0.0,0.0,0.0,0.0,0.0,0.0,0.0,0.0,0.0,0.0,0.0,0.0,0.0,0.0,0.0,0.0,0.0,-4.1172,-4.1172,-4.1172,-4.1172,-4.1172,-4.1268,-4.1432,-4.1547,-4.293,0.0,0.0,-4.4476,-4.5354,-4.5097,-4.5785,-4.601,-4.5768,-4.5646,-4.5061,-4.4347,-4.4347,-4.4347,-4.4347,-4.4347,0.0,0.0,0.0,0.0,0.0,0.0,0.0,0.0,0.0,0.0,0.0,0.0,0.0,0.0,0.0,0.0,0.0,0.0,0.0,0.0,0.0,0.0,0.0,0.0,0.0,0.0,0.0,0.0,0.0,0.0,0.0,0.0,0.0,0.0,0.0,0.0,0.0,0.0,0.0,0.0,0.0,0.0,0.0,0.0,0.0,0.0,0.0,0.0,0.0,0.0,0.0,0.0,0.0,0.0,0.0,0.0,0.0,0.0,0.0,0.0,0.0,0.0,0.0,-5.799,-5.8274,-5.8274,-5.8274,-5.8274,-5.8211,-5.7042,-5.6884,-5.739,0.0,0.0,0.0,0.0,0.0,0.0,0.0,0.0,0.0,0.0,0.0,0.0,0.0,0.0,0.0,0.0,0.0,0.0,0.0,0.0,-4.1172,-4.1172,-4.1172,-4.1172,-4.1172,-4.1605,-4.2195,-4.3119,-4.4396,-4.5041,-4.4606,-4.6373,-4.6798,-4.5764,-4.656,-4.661,-4.5768,-4.4939,-4.447,-4.4347,-4.4347,-4.4347,-4.4347,-4.4347,-4.4816,-4.5889,0.0,0.0,0.0,0.0,0.0,0.0,0.0,0.0,0.0,0.0,0.0,0.0,0.0,0.0,0.0,0.0,0.0,0.0,0.0,0.0,0.0,0.0,0.0,0.0,0.0,0.0,0.0,0.0,0.0,0.0,0.0,0.0,0.0,0.0,0.0,0.0,0.0,0.0,0.0,0.0,0.0,-5.7084,-5.8058,0.0,0.0,0.0,0.0,0.0,0.0,0.0,0.0,0.0,0.0,0.0,0.0,0.0,0.0,-5.799,-5.8085,-5.8116,-5.8148,-5.8211,-5.8274,-5.8274,-5.8274,-5.8274,-5.8274,-5.8085,0.0,-5.8116,-5.8116,0.0,0.0,0.0,0.0,0.0,0.0,0.0,0.0,0.0,0.0,0.0,0.0,0.0,0.0,0.0,0.0,0.0,0.0,0.0,0.0,0.0,-4.1894,-4.2062,-4.2062,-4.2279,-4.2635,-4.2988,-4.486,-4.573,-4.5067,-4.7108,-4.7742,-4.6585,-4.6968,-4.673,-4.5768,-4.4816,-4.4347,-4.4347,-4.4347,-4.4347,-4.4347,-4.4347,-4.4594,-4.5061,-4.601,0.0,0.0,0.0,0.0,0.0,0.0,0.0,0.0,0.0,0.0,0.0,0.0,0.0,0.0,0.0,0.0,0.0,0.0,0.0,0.0,0.0,0.0,0.0,0.0,0.0,0.0,0.0,0.0,0.0,0.0,0.0,0.0,0.0,0.0,0.0,0.0,0.0,0.0,0.0,-5.6988,-5.7871,-5.8274,-5.8274,-5.8274,0.0,0.0,0.0,0.0,0.0,0.0,0.0,0.0,0.0,-5.8274,-5.8274,-5.8274,-5.8274,-5.8274,-5.8274,-5.8274,-5.8274,-5.8274,-5.8274,-5.8274,-5.8274,-5.8274,-5.8274,-5.8274,-5.8274,-5.8274,-5.8274,-5.8274,0.0,0.0,0.0,0.0,0.0,-5.903,0.0,0.0,0.0,0.0,0.0,0.0,0.0,0.0,0.0,0.0,0.0,0.0,-4.2182,-4.2519,-4.276,-4.276,-4.288,-4.3072,-4.3311,-4.5439,-4.6331,-4.5623,-4.7768,-4.8353,-4.7205,-4.6968,-4.6371,-4.5403,-4.4693,-4.4347,-4.4347,-4.4347,-4.4347,-4.4347,-4.4347,-4.4347,-4.4347,-4.5403,-4.625,-4.6968,0.0,0.0,0.0,0.0,0.0,0.0,0.0,0.0,0.0,0.0,0.0,0.0,0.0,0.0,0.0,0.0,0.0,0.0,0.0,0.0,0.0,0.0,0.0,0.0,0.0,0.0,0.0,0.0,0.0,0.0,0.0,0.0,0.0,0.0,0.0,0.0,0.0,-5.759,-5.8274,-5.8274,-5.8274,-5.8274,0.0,0.0,0.0,0.0,0.0,0.0,-5.8274,-5.8274,-5.8274,-5.8274,-5.8274,-5.8274,-5.8274,-5.8274,-5.8274,-5.8274,-5.8274,-5.8274,-5.8274,-5.8274,-5.8274,-5.8274,-5.8274,-5.8274,-5.8274,-5.8274,-5.8274,-5.8274,-5.8274,-5.8274,-5.8367,-5.8518,-5.861,-5.876,0.0,0.0,0.0,0.0,0.0,0.0,0.0,0.0,0.0,0.0,0.0,-4.2711,-4.2711,-4.2735,-4.276,-4.276,-4.3192,-4.3844,-4.4804,-4.6256,-4.7154,-4.7036,-4.893,-4.9072,-4.7205,-4.6371,-4.5403,-4.4347,-4.4347,-4.4347,-4.4347,-4.4347,-4.4347,-4.4347,-4.4347,-4.4347,-4.4347,-4.5403,-4.5768,-4.613,-4.8532,0.0,0.0,0.0,0.0,0.0,0.0,0.0,0.0,0.0,0.0,0.0,0.0,0.0,0.0,0.0,0.0,0.0,0.0,0.0,0.0,0.0,0.0,0.0,0.0,0.0,0.0,0.0,0.0,0.0,0.0,0.0,0.0,0.0,0.0,0.0,0.0,0.0,0.0,-5.8274,-5.8274,0.0,0.0,0.0,0.0,-5.8274,-5.8274,-5.8274,-5.8274,-5.8274,-5.8274,-5.8274,-5.8274,-5.8274,-5.8274,-5.8274,-5.8274,-5.8274,-5.8274,-5.8274,-5.8274,-5.8274,-5.8274,-5.8274,-5.8274,-5.8274,-5.8274,-5.8274,-5.8274,-5.8274,-5.8274,-5.8274,-5.8367,-5.9266,-5.9499,-5.9674,0.0,0.0,0.0,0.0,0.0,-4.276,-4.276,-4.276,-4.276,-4.276,-4.3048,-4.3241,-4.3241,-4.3577,-4.3794,-4.3794,-4.3938,-4.4181,-4.4549,-4.627,-4.7205,-4.7205,-4.8353,-4.8236,-4.6371,-4.5306,-4.4693,-4.4347,-4.4347,-4.4515,-4.4852,-4.4852,-4.5044,-4.5357,-4.502,-4.4852,-4.4828,-4.4839,-4.5184,-4.5889,-4.7129,-4.8505,0.0,0.0,0.0,0.0,0.0,0.0,0.0,0.0,0.0,0.0,0.0,0.0,0.0,0.0,0.0,0.0,0.0,0.0,0.0,0.0,0.0,0.0,0.0,0.0,0.0,0.0,0.0,0.0,0.0,0.0,0.0,0.0,0.0,0.0,0.0,0.0,0.0,-5.8875,-5.8527,0.0,-5.8906,-5.8527,-5.8274,-5.8274,-5.8274,-5.8274,-5.8274,-5.8274,-5.8274,-5.8274,-5.8274,-5.8274,-5.8274,-5.8274,-5.8274,-5.8274,-5.8274,-5.8274,-5.8274,-5.8274,-5.8274,-5.8274,-5.8274,-5.8274,-5.8274,-5.8274,-5.8274,-5.8274,-5.8274,-5.8274,-5.8367,-5.861,-5.876,-5.876,0.0,0.0,0.0,0.0,0.0,-4.3289,-4.3289,-4.3289,-4.3289,-4.3289,-4.3601,-4.3794,-4.3794,-4.413,-4.4347,-4.4347,-4.4347,-4.4347,-4.4347,-4.613,-4.7087,-4.673,-4.7298,-4.7061,-4.5768,-4.5011,-4.4611,-4.4611,-4.478,-4.5068,-4.5405,-4.5405,-4.5597,-4.591,-4.5549,-4.5405,-4.5381,-4.502,-4.5033,-4.5281,-4.608,-4.7247,-4.8621,0.0,0.0,0.0,0.0,0.0,0.0,0.0,0.0,0.0,0.0,0.0,0.0,0.0,0.0,0.0,0.0,0.0,0.0,0.0,0.0,0.0,0.0,0.0,0.0,0.0,0.0,0.0,0.0,0.0,0.0,0.0,0.0,0.0,0.0,0.0,-5.8432,-5.8906,-5.8559,-5.8464,-5.8906,-5.8527,-5.8274,-5.8274,-5.8274,-5.8274,-5.8274,-5.8274,-5.8274,-5.8274,-5.8274,-5.8274,-5.8274,-5.8274,-5.8274,-5.8274,-5.8274,-5.8274,-5.8274,-5.8274,-5.8401,-5.8622,-5.8622,-5.8748,-5.8938,-5.8938,-5.8938,-5.8906,-5.8464,-5.8274,-5.8274,-5.8274,-5.8274,-5.8306,0.0,0.0,0.0,0.0,0.0,-4.4347,-4.4347,-4.4347,-4.4347,-4.4347,-4.4347,-4.4347,-4.4347,-4.4347,-4.4347,-4.4347,-4.4347,-4.4347,-4.4347,-4.613,-4.673,-4.5889,-4.5793,-4.5793,-4.5793,-4.5375,-4.5164,-4.5164,-4.5669,-4.5934,-4.5958,-4.5958,-4.5958,-4.5982,-4.5958,-4.5958,-4.5958,-4.5934,-4.5333,-4.4395,-4.5453,-4.6105,-4.6891,0.0,0.0,0.0,0.0,0.0,0.0,0.0,0.0,0.0,0.0,0.0,0.0,0.0,0.0,0.0,0.0,0.0,0.0,0.0,0.0,0.0,0.0,0.0,0.0,0.0,0.0,0.0,0.0,0.0,0.0,0.0,0.0,0.0,-5.8274,-5.8274,-5.8274,-5.8306,-5.8274,-5.8274,-5.8306,-5.8274,-5.8274,-5.8274,-5.8274,-5.8274,-5.8274,-5.8274,-5.8274,-5.8274,-5.8274,-5.8274,-5.8306,-5.8306,-5.8306,-5.8338,-5.8338,-5.8338,-5.8338,-5.8338,-5.8717,-5.9349,-5.9349,-5.9696,-6.0297,-6.0297,-6.0297,-6.017,-5.8843,-5.8338,-5.8338,-5.8338,-5.8338,-5.8432,0.0,0.0,0.0,-4.4347,-4.4347,-4.4347,-4.4347,-4.4347,-4.4347,-4.4347,-4.4347,-4.4347,-4.4347,-4.4347,-4.4347,-4.4347,-4.4347,-4.4792,-4.5935,-4.6105,-4.613,-4.5768,-4.614,-4.5995,-4.5275,-4.5556,-4.5718,-4.5718,-4.5862,-4.6126,-4.6487,-4.6487,-4.6704,-4.704,-4.6655,-4.6487,-4.6463,-4.6102,-4.5766,-4.5453,-4.532,-4.6241,-4.7744,0.0,0.0,0.0,0.0,0.0,0.0,0.0,0.0,0.0,0.0,0.0,0.0,0.0,0.0,0.0,0.0,0.0,0.0,0.0,0.0,0.0,0.0,0.0,0.0,0.0,0.0,0.0,0.0,0.0,0.0,0.0,-5.7408,-5.8152,-5.8245,-5.8274,-5.8464,-5.897,-5.859,-5.8464,-5.897,-5.8559,-5.8274,-5.8274,-5.8274,-5.8274,-5.8274,-5.8274,-5.8274,-5.8274,-5.8274,-5.8527,-5.9033,-5.9033,-5.9254,-5.9728,-5.9728,-5.9728,-5.9728,-5.9728,-5.9854,-6.0012,-6.0012,-6.0139,-6.0297,-6.0297,-6.0297,-6.0265,-5.9886,-5.9728,-5.9728,-5.9728,-5.9728,-5.976,0.0,0.0,0.0,-4.4347,-4.4347,-4.4347,-4.4347,-4.4347,-4.4347,-4.4347,-4.4347,-4.4347,-4.4347,-4.4347,-4.4347,-4.4347,-4.4915,-4.5379,-4.5597,-4.5403,-4.5527,-4.6091,-4.6044,-4.5841,-4.5453,-4.5982,-4.6247,-4.6247,-4.6487,-4.6752,-4.704,-4.704,-4.7209,-4.7497,-4.7185,-4.704,-4.7016,-4.7094,-4.6948,-4.6665,-4.7002,-4.7383,-4.7871,-4.8718,-4.9747,-5.0816,-5.1488,-5.2012,-5.2221,-5.2516,0.0,0.0,0.0,0.0,0.0,0.0,0.0,0.0,0.0,0.0,0.0,0.0,0.0,0.0,0.0,0.0,0.0,0.0,0.0,0.0,0.0,0.0,0.0,0.0,-5.7576,-5.8122,-5.8306,-5.8274,-5.8432,-5.8812,-5.8527,-5.8432,-5.8843,-5.8496,-5.8274,-5.8274,-5.8527,-5.8717,-5.8717,-5.897,-5.9128,-5.9128,-5.9128,-5.9317,-5.9728,-5.9728,-5.9918,-6.0297,-6.0297,-6.0297,-6.0297,-6.0297,-6.0455,0.0,-6.0771,-6.0929,-6.1182,-6.1182,-6.1182,0.0,0.0,0.0,0.0,0.0,-6.0487,-6.0803,0.0,0.0,0.0,-4.4347,-4.4347,-4.4347,-4.4347,-4.4347,-4.4347,-4.4347,-4.4347,-4.4347,-4.4347,-4.4347,-4.4347,-4.4347,-4.5597,-4.5839,-4.447,-4.4519,-4.5231,-4.6316,-4.574,-4.5525,-4.6006,-4.6535,-4.68,-4.68,-4.7281,-4.7497,-4.763,-4.7497,-4.763,-4.7894,-4.7762,-4.7762,-4.7894,-4.8787,-4.8657,-4.7977,-4.9571,-4.9163,-4.7858,-4.975,-5.0484,-5.0729,-5.156,-5.2184,-5.2658,-5.263,0.0,0.0,0.0,0.0,0.0,0.0,0.0,0.0,0.0,0.0,0.0,0.0,0.0,0.0,0.0,0.0,0.0,0.0,0.0,0.0,0.0,0.0,0.0,0.0,-5.8029,-5.8496,-5.8496,-5.8496,-5.8464,-5.8401,-5.8401,-5.8401,-5.8496,-5.8496,-5.8496,-5.8496,-5.9064,-5.9412,-5.9412,0.0,0.0,0.0,0.0,-6.0329,-6.0423,-6.0423,-6.0455,-6.055,-6.055,-6.055,-6.055,-6.055,-6.0897,-6.1498,-6.1498,-6.1845,-6.2446,-6.2446,-6.2446,-6.2319,-6.1024,-6.055,-6.055,-6.055,-6.0961,0.0,0.0,0.0,0.0,-4.4347,-4.4347,-4.4347,-4.4717,-4.447,-4.4347,-4.4717,-4.447,-4.4347,-4.4347,-4.4347,-4.4347,-4.4347,-4.4816,-4.5061,-4.4717,-4.6018,-4.6414,-4.5368,-4.6086,-4.6463,-4.6559,-4.7064,-4.7353,-4.7353,-4.7449,-4.7894,-4.8657,-4.7894,-4.8396,-4.995,-4.9047,-4.9177,-4.995,-5.0206,-5.0206,-5.0104,-5.1736,-5.1116,-4.9387,-5.0149,-5.125,-5.2333,-5.2563,-5.2404,-5.2212,-5.3096,-5.2864,-5.2329,-5.3184,-5.35,0.0,0.0,0.0,0.0,0.0,0.0,0.0,0.0,0.0,0.0,0.0,0.0,0.0,0.0,0.0,0.0,0.0,0.0,0.0,-5.8758,-5.9408,-5.9886,-5.9886,-5.9886,-5.9696,-5.9159,-5.9096,-5.9317,-5.9854,-5.9886,-5.9886,-5.9886,-6.0012,-6.0107,-6.0107,-6.0234,0.0,-6.0297,-6.0297,-6.0581,-6.1182,-6.1182,-6.1466,-6.2003,0.0,0.0,-6.2003,-6.2003,-6.2098,-6.2225,-6.2225,-6.2319,-6.2446,-6.2446,-6.2446,-6.2414,-6.213,-6.2003,-6.2003,-6.2003,-6.2098,-6.2256,0.0,0.0,0.0,-4.4395,-4.4347,-4.447,-4.4717,-4.4717,-4.4594,-4.484,-4.484,-4.4717,-4.4594,-4.4717,-4.4717,-4.4594,-4.4594,-4.5159,-4.6773,-4.6459,-4.6066,-4.5525,-4.6295,-4.6848,-4.7088,-4.7377,-4.7497,-4.7497,-4.7497,-4.8002,-4.9023,-4.8526,-4.9047,-5.0588,-5.0078,-5.0078,-5.0614,-5.1405,-5.1508,-5.1177,-5.3303,-5.3197,-5.1862,-5.2598,-5.316,-5.3755,-5.3992,-5.3957,-5.389,-5.4798,-5.4594,-5.419,-5.4736,-5.472,-5.4517,0.0,0.0,0.0,0.0,0.0,0.0,0.0,0.0,0.0,0.0,0.0,0.0,0.0,0.0,-5.6855,-5.7273,0.0,-5.9327,-5.9718,-6.0105,-6.0297,-6.0297,-6.0297,-6.017,-5.9854,-5.9791,-5.9918,-6.0265,-6.0297,-6.0297,-6.0297,-6.0645,-6.0834,-6.0834,-6.1182,-6.1371,-6.1371,-6.1371,-6.1529,-6.1909,-6.1909,-6.2098,-6.2446,-6.2446,-6.2446,-6.2446,-6.2446,-6.2446,-6.2446,-6.2446,-6.2446,-6.2446,-6.2446,-6.2446,-6.2446,-6.2446,-6.2446,-6.2446,-6.2446,-6.2667,-6.2951,0.0,0.0,0.0,-4.4611,-4.4491,-4.4591,-4.4865,-4.484,-4.4865,-4.511,-4.5282,-4.5257,-4.5085,-4.538,-4.555,-4.5428,-4.4939,-4.5768,-4.8198,-4.6389,-4.5525,-4.6054,-4.6583,-4.7064,-4.7497,-4.7497,-4.7497,-4.7497,-4.7497,-4.8002,-4.9023,-4.8763,-4.954,-5.0842,-5.0818,-5.0996,-5.1428,-5.2912,-5.2997,-5.2386,-5.4673,-5.5068,-5.4533,-5.5582,-5.5551,-5.5142,-5.5629,-5.5842,-5.6015,-5.6594,-5.6649,-5.6466,-5.6578,-5.6142,-5.5649,-5.591,-5.5794,0.0,0.0,0.0,0.0,0.0,0.0,0.0,0.0,-5.5765,-5.5765,-5.5983,-5.671,-5.7558,-5.8389,-5.9232,-6.0027,-6.0611,-6.0708,-6.0708,-6.0708,-6.0708,-6.0708,-6.0708,-6.0581,-6.055,-6.0708,-6.0708,-6.0708,-6.0708,-6.1277,-6.1593,-6.1593,-6.213,-6.2446,-6.2446,-6.2446,-6.2446,-6.2446,-6.2446,-6.2446,-6.2446,-6.2446,-6.2446,-6.2446,-6.2446,-6.2446,-6.2446,-6.2446,-6.2446,-6.2446,-6.2446,-6.2446,-6.2446,-6.2446,-6.2509,-6.2604,-6.2477,-6.2793,-6.3268,0.0,0.0,0.0,-4.5213,-4.5044,-4.5025,-4.5282,-4.4963,-4.5134,-4.6242,-4.5748,-4.5503,-4.5945,-4.6502,-4.701,-4.7247,-4.6747,-4.6401,-4.6463,-4.6032,-4.6078,-4.6607,-4.7136,-4.7449,-4.7497,-4.7497,-4.7497,-4.7497,-4.7497,-4.8002,-4.9023,-4.8133,-4.9152,-5.197,-5.1459,-5.2328,-5.4159,-5.4781,-5.5051,-5.4979,-5.5826,-5.607,-5.6124,-5.7404,-5.7508,-5.6996,-5.7117,-5.7174,-5.7251,-5.783,-5.7426,-5.6537,-5.7104,-5.6781,-5.652,-5.7652,-5.7187,-5.6549,-5.7681,-5.7536,-5.71,-5.71,-5.71,-5.71,0.0,-5.71,-5.7324,-5.8069,-5.8937,-5.9788,-6.062,-6.1464,-6.2094,-6.2193,-6.2193,-6.2193,-6.2193,-6.2193,-6.2193,-6.2193,-6.1656,-6.1529,-6.213,-6.2193,-6.2193,-6.2193,-6.2256,-6.2319,-6.2319,-6.2383,-6.2446,-6.2446,-6.2446,-6.2446,-6.2446,-6.2446,-6.2446,-6.2446,-6.2446,-6.2446,-6.2446,-6.2446,-6.2446,-6.2446,-6.2446,-6.2446,-6.2446,-6.2446,-6.2446,-6.2446,-6.2446,-6.2825,-6.3299,-6.2667,-6.2477,-6.2541,0.0,0.0,0.0,-4.6175,-4.5917,-4.5906,-4.6165,-4.6265,-4.6588,-4.7085,-4.6637,-4.6609,-4.7369,-4.8028,-4.8621,-4.8877,-4.7457,-4.7095,-4.8163,-4.671,-4.615,-4.668,-4.7209,-4.7762,-4.8396,-4.7762,-4.8133,-4.9307,-4.8657,-4.9152,-5.079,-4.9797,-5.0563,-5.2983,-5.2576,-5.3091,-5.4541,-5.5518,-5.5925,-5.598,-5.6577,-5.6821,-5.6976,-5.7861,-5.8244,-5.839,-5.8908,-5.8981,0.0,-5.9738,-5.9421,-5.8638,-5.8871,-5.8581,-5.8203,-5.8726,-5.8493,-5.8116,-5.8261,-5.8116,-5.7797,-5.739,-5.7303,-5.7303,-5.7303,-5.7303,-5.7416,-5.7751,-5.8495,-5.9362,-6.0316,-6.1175,-6.1885,0.0,-6.2446,-6.2446,-6.2446,-6.2446,-6.2446,-6.2446,-6.2541,-6.2572,-6.2446,-6.2446,-6.2604,-6.3015,-6.2667,-6.2604,-6.3015,-6.2667,-6.2446,-6.2446,-6.2446,-6.2446,-6.2446,-6.2446,-6.2446,-6.2446,-6.2857,-6.3046,-6.3046,-6.3457,-6.3647,-6.3647,-6.3647,-6.3647,-6.3647,-6.3647,-6.3647,-6.3647,-6.3647,-6.3836,-6.3994,-6.3299,-6.3299,-6.3647,0.0,0.0,0.0,0.0,0.0,-4.7042,-4.6851,-4.7181,-4.7558,-4.7558,-4.7579,-4.8094,-4.9139,-4.9462,-4.9788,-5.035,-4.8479,-4.7977,-4.9298,-4.7259,-4.6352,-4.6896,-4.7305,-4.7894,-4.8526,-4.7894,-4.8264,-4.9694,-4.8918,-4.9411,-5.0816,-5.0078,-5.0919,-5.2978,-5.2813,-5.3661,-5.5057,-5.6115,-5.6549,-5.6577,-5.7268,-5.7431,-5.756,-5.8451,-5.9052,-5.955,-6.0043,-6.0316,-6.056,-6.1073,-6.0874,-6.0467,-6.0467,-6.0061,-5.9568,-5.9771,-5.9684,-5.9422,-5.8755,-5.8581,-5.8406,-5.7739,-5.7594,-5.7536,-5.7332,-5.7303,-5.7416,-5.764,-5.8386,-5.9255,-6.0106,-6.1093,-6.1996,-6.2631,-6.2888,-6.3015,-6.3015,-6.3015,-6.3015,-6.3015,-6.3457,-6.3584,-6.3046,-6.3015,-6.3204,-6.3742,-6.311,-6.2951,-6.3457,-6.2825,-6.2509,-6.273,-6.273,-6.2793,-6.3015,-6.3015,-6.3015,-6.3015,-6.352,-6.3773,-6.3773,-6.4279,-6.4532,-6.4532,-6.4532,-6.4532,-6.4532,-6.4532,-6.4532,-6.4532,-6.4532,-6.4626,-6.4753,-6.4247,-6.4247,-6.4532,0.0,0.0,0.0,0.0,0.0,-4.8182,-4.7101,-4.7181,-4.7558,-4.7908,-4.848,-4.9542,-5.143,-5.0573,-5.035,-5.1565,-5.0211,-4.9097,-4.8814,-4.7257,-4.665,-4.7425,-4.7497,-4.7497,-4.7497,-4.7497,-4.7497,-4.763,-4.7497,-4.763,-4.763,-4.763,-4.8928,-5.1511,-5.2077,-5.3815,-5.6278,-5.6902,-5.7146,-5.7275,-5.7944,-5.8198,-5.8325,-5.9673,-6.0165,-6.0194,-6.0194,-6.056,-6.1193,-6.1193,-6.1193,-6.1164,-6.1164,-6.07,-6.0293,-6.0961,-6.0671,-6.0032,-5.9422,-5.9277,-5.9103,-5.8435,-5.8261,-5.8116,-5.7448,-5.7303,-5.7528,-5.8415,-5.9255,-6.0106,-6.0969,-6.2347,-6.3457,-6.3457,-6.4026,-6.4468,-6.4468,-6.4468,-6.4468,-6.4468,-6.4468,-6.4468,0.0,-6.4468,-6.4468,-6.4468,-6.3836,-6.3457,-6.3489,-6.2825,-6.273,-6.3426,-6.3457,-6.3773,-6.4437,-6.4468,-6.4468,-6.4468,-6.4468,-6.45,-6.45,-6.45,-6.4532,-6.4532,-6.4532,-6.4532,-6.4532,-6.4532,-6.4532,-6.4532,-6.4532,-6.4942,-6.5543,-6.5511,-6.51,-6.4532,0.0,0.0,0.0,0.0,0.0,0.0,-4.7255,-4.7882,-4.8234,-4.7958,-4.9176,0.0,0.0,0.0,0.0,0.0,-5.0546,-5.0816,-5.1557,-4.9282,-4.8335,-4.9053,-4.8264,-4.842,-4.9565,-4.8158,-4.8526,-5.0537,-5.0257,-5.0257,-5.0537,-5.0916,-5.1957,-5.3467,-5.3418,-5.441,-5.6332,-5.7442,-5.756,-5.7303,-5.8424,-5.855,-5.8325,-5.9702,-6.0194,-6.0316,0.0,-6.1073,-6.1193,-6.1193,-6.1193,-6.1193,-6.1193,-6.1048,-6.0903,-6.1135,-6.0729,-6.0061,-5.9451,-5.9306,-5.9045,-5.7913,-5.7652,-5.7594,-5.7361,-5.7652,-5.8085,-5.8311,-5.8972,-5.9717,-6.0576,-6.1629,-6.2637,-6.3194,-6.3932,-6.4532,-6.4532,-6.4532,-6.4532,-6.4532,-6.4942,0.0,0.0,0.0,0.0,-6.5164,-6.4563,-6.4374,-6.4848,-6.4184,-6.3931,-6.4152,-6.4152,-6.4279,-6.4532,-6.4532,-6.4532,-6.4532,-6.5006,-6.5448,-6.589,-6.589,-6.589,-6.589,-6.589,-6.589,-6.589,-6.589,-6.589,-6.589,-6.589,-6.6048,-6.627,-6.627,-6.6112,-6.589,0.0,0.0,0.0,0.0,0.0,0.0,0.0,0.0,0.0,0.0,0.0,0.0,0.0,0.0,0.0,0.0,0.0,-5.1849,-5.2964,-5.0815,-5.0019,-5.0787,-4.9977,-5.013,-5.1294,-4.9977,-5.0232,-5.2262,-5.1367,-5.1142,-5.1419,-5.1544,-5.2339,-5.3787,-5.3779,-5.4928,-5.6631,-5.7524,-5.7688,-5.7688,-5.8802,-5.9052,-5.9052,-6.0194,-6.056,0.0,-6.1073,-6.1193,-6.1193,-6.1193,-6.1193,-6.1193,-6.1193,-6.1193,-6.1164,-6.0903,-6.0526,-6.0119,-5.9742,-5.9626,-5.9422,-5.8552,-5.8348,-5.829,-5.8058,-5.8348,-5.8668,-5.8668,-5.9218,-6.0056,-6.0902,-6.1971,-6.3025,-6.391,-6.4758,-6.5258,-6.5258,-6.5258,-6.5258,-6.5258,-6.5669,-6.5954,0.0,0.0,0.0,-6.589,-6.529,-6.51,-6.5543,-6.4911,-6.4626,-6.4879,-6.4879,-6.5006,-6.5258,-6.5258,-6.5258,-6.5258,-6.5732,-6.6175,-6.6617,-6.6617,-6.6617,-6.6617,-6.6617,-6.6617,-6.6617,-6.6617,-6.6617,-6.6617,-6.6617,-6.6617,-6.6617,-6.6617,-6.6617,-6.6617,0.0,0.0,0.0,0.0,0.0,0.0,0.0,0.0,0.0,0.0,0.0,0.0,0.0,0.0,0.0,0.0,0.0,0.0,-5.3106,-5.2041,-5.1707,-5.2471,-5.2524,-5.2402,-5.2524,-5.2402,-5.2402,-5.2524,-5.0939,-5.0232,-5.0232,-4.9668,-5.0532,-5.2595,-5.3708,-5.5296,-5.7303,-5.7303,-5.7688,-5.8325,-5.9052,-5.9673,-6.0316,-6.0952,-6.1193,-6.1193,-6.1193,-6.1193,-6.1193,-6.1193,-6.1193,-6.1193,-6.1164,-6.1135,-6.1019,-6.038,-6.0206,-6.0206,-6.0206,-6.0206,-6.0177,-6.0148,-6.0148,-6.0003,-5.9422,-5.9335,-5.9364,-5.9364,-6.0,-6.088,-6.177,-6.3163,-6.4488,-6.5397,-6.6175,-6.6617,-6.6617,-6.6617,-6.6617,0.0,0.0,-6.6617,0.0,0.0,0.0,-6.6617,0.0,-6.5638,-6.5638,-6.5006,-6.4942,-6.5606,-6.5638,-6.5954,-6.6586,-6.6617,-6.6617,-6.6617,-6.6617,-6.6617,-6.6617,-6.6617,-6.6617,-6.6617,-6.6617,-6.6617,-6.6617,-6.6617,-6.6617,-6.6617,-6.6617,-6.6617,-6.6617,-6.6617,-6.6617,-6.6617,0.0,0.0,0.0,0.0,0.0,0.0,0.0,0.0,0.0,0.0,0.0,0.0,0.0,0.0,0.0,0.0,0.0,0.0,-5.4725,-5.3557,-5.3287,-5.4212,-5.3308,-5.3093,-5.3577,-5.2795,-5.2795,-5.3577,-5.367,-5.3429,-5.2998,-5.4551,-5.5546,-5.6074,-5.6789,-5.7675,-5.8676,-5.9177,-5.9301,-5.9052,-6.0194,-6.0438,-6.0316,-6.0952,-6.1193,-6.1193,-6.1193,-6.1193,-6.1193,-6.1193,-6.1193,-6.1106,-6.0613,-6.0438,-6.0409,-6.0264,-6.0206,-6.0206,-6.0206,-6.0206,-6.009,-5.9626,-5.9539,-5.948,-5.9335,-5.9655,-5.9974,-5.9974,-6.0999,-6.202,-6.2336,-6.3731,-6.4987,-6.5312,-6.6035,-6.6617,-6.6617,-6.6617,-6.6617,-6.6617,-6.6617,-6.6617,-6.6617,-6.6617,0.0,0.0,-6.6428,-6.6333,-6.6333,-6.6175,-6.6143,-6.6333,-6.6333,-6.6428,-6.6617,-6.6617,-6.6617,-6.6617,-6.6617,-6.6617,-6.6617,-6.6617,-6.6617,-6.6617,-6.6617,-6.6617,-6.6617,-6.6617,-6.6617,-6.6617,-6.6617,-6.6617,-6.6617,-6.6617,-6.6617,-6.6691,0.0,0.0,0.0,0.0,0.0,0.0,0.0,0.0,0.0,0.0,0.0,0.0,0.0,0.0,0.0,0.0,0.0,0.0,0.0,-5.4586,-5.4685,-5.5538,-5.5126,-5.5032,-5.5412,-5.4859,-5.4859,-5.5412,-5.5122,-5.4769,-5.4442,-5.5423,-5.6213,-5.6687,-5.7566,-5.8334,-5.9177,-5.955,-5.9673,0.0,0.0,-6.0681,-6.0681,-6.1073,-6.1193,-6.1193,-6.1193,-6.1193,-6.1193,-6.1193,-6.099,-6.0758,-6.0671,-6.0438,-6.0206,-6.0206,-6.0206,-6.0206,-6.0206,-6.0206,-6.0177,-6.0148,-6.0148,-6.0148,-6.0148,-6.0409,-6.0642,-6.0642,-6.1379,-6.2087,-6.2409,-6.3645,-6.4764,-6.5125,-6.6023,-6.6617,-6.6617,-6.6617,-6.6617,-6.6617,-6.6617,-6.6617,-6.6617,-6.6617,-6.6617,0.0,-6.6617,-6.6617,-6.6617,-6.6617,-6.6617,-6.6617,-6.6617,-6.6617,-6.6617,-6.6617,-6.6617,-6.6617,-6.6617,-6.6617,-6.6617,-6.6617,-6.6617,-6.6617,0.0,-6.6617,-6.6617,-6.6617,-6.6617,-6.6617,-6.6617,-6.6617,-6.6617,-6.6617,-6.6869,-6.7356,0.0,0.0,0.0,0.0,0.0,0.0,0.0,0.0,0.0,0.0,-4.6301,-4.6874,0.0,0.0,0.0,0.0,0.0,0.0,0.0,0.0,-5.562,-5.6374,-5.6897,-5.7216,-5.7303,-5.7303,-5.7303,-5.7303,-5.5848,-5.5239,-5.5239,-5.4762,-5.5187,-5.6265,-5.7257,-5.8325,-5.9426,-5.9426,-5.9797,-6.0316,-6.0316,-6.0681,-6.1193,0.0,-6.1193,-6.1193,-6.1193,-6.1193,-6.1193,-6.1106,-6.0729,-6.0409,-6.0903,-6.0729,-6.0322,-6.0235,-6.0264,-6.0322,-6.0322,-6.0322,-6.0467,-6.1048,-6.1193,-6.1193,-6.1193,-6.1193,-6.1193,-6.1193,-6.1313,-6.1642,-6.2409,-6.3304,-6.432,-6.5125,-6.6023,-6.6617,-6.6617,-6.6617,-6.6617,-6.6617,-6.6617,-6.6617,-6.6617,-6.6617,-6.6617,-6.6617,-6.6617,-6.6617,-6.6617,-6.6617,-6.6617,-6.6617,-6.6617,-6.6617,-6.6617,-6.6617,-6.6617,-6.6617,-6.6617,-6.6617,-6.6617,-6.6617,-6.6617,-6.6617,0.0,0.0,-6.6617,-6.6617,-6.6617,-6.6617,-6.6617,-6.6617,-6.6617,-6.6796,-6.7356,-6.8172,0.0,0.0,0.0,0.0,0.0,0.0,0.0,0.0,0.0,0.0,-4.6301,-4.7087,0.0,0.0,0.0,0.0,0.0,0.0,0.0,0.0,0.0,-5.6345,-5.652,-5.681,-5.7303,-5.7303,-5.7303,-5.7303,-5.7049,-5.6936,-5.6936,-5.7369,-5.7944,-5.8692,-5.9446,-6.011,-6.0831,-6.0831,-6.0952,-6.1073,-6.1073,-6.1073,-6.1193,-6.1193,0.0,0.0,-6.1193,-6.1193,-6.1106,-6.0555,-6.0671,-6.0961,-6.0496,-6.0671,-6.0932,-6.0351,-6.0584,-6.1019,-6.1019,-6.1019,-6.1048,-6.1164,-6.1193,-6.1193,-6.1193,-6.1193,-6.1193,-6.1193,-6.1732,-6.2292,-6.2525,-6.3872,-6.5016,-6.5125,-6.6023,-6.6617,-6.6617,-6.6617,-6.6617,-6.6617,-6.6617,-6.6617,-6.6617,-6.6617,0.0,0.0,0.0,-6.6617,-6.6617,-6.6617,-6.6617,-6.6617,-6.6617,-6.6617,-6.6617,-6.6617,-6.6617,-6.6617,-6.6617,-6.6617,-6.6617,-6.6617,-6.6617,-6.6617,-6.6617,0.0,-6.6617,-6.6617,-6.6617,-6.6617,-6.6617,-6.6617,-6.6691,-6.7529,-6.8004,-6.8371,0.0,0.0,0.0,0.0,0.0,0.0,0.0,-4.618,-4.6301,-4.6301,-4.6301,-4.6755,-4.7886,-4.8673,-4.9788,0.0,0.0,0.0,0.0,0.0,0.0,0.0,-5.6229,-5.6694,-5.7303,-5.7303,-5.7303,-5.7303,0.0,-5.7303,-5.7303,-5.7623,-5.8145,-5.8813,-5.9451,-6.009,-6.07,-6.1048,-6.1193,-6.1193,-6.1193,-6.1193,-6.1193,-6.1193,0.0,0.0,-6.1193,-6.1193,-6.1164,-6.0816,-6.0932,-6.1077,-6.0409,-6.0409,-6.0671,-6.07,-6.0932,-6.1193,-6.1193,-6.1193,-6.1193,-6.1193,-6.1193,-6.1193,-6.1193,-6.1193,-6.1193,-6.1193,-6.1523,-6.185,-6.185,-6.2844,-6.3984,-6.4432,-6.5235,-6.6023,-6.648,-6.6617,-6.6617,-6.6617,-6.6617,-6.6617,-6.6617,-6.6617,-6.6617,-6.6617,0.0,-6.6617,-6.6617,-6.6617,-6.6617,-6.6617,-6.6617,-6.6617,-6.6617,-6.6617,-6.6617,-6.6617,-6.6617,-6.6617,-6.6617,-6.6965,-6.7123,-6.7155,-6.7534,0.0,-6.7692,-6.7692,-6.7692,-6.7692,-6.7692,-6.7692,-6.7736,-6.8441,-6.8956,-6.9583,0.0,0.0,0.0,0.0,0.0,0.0,-4.5696,-4.6059,-4.6301,-4.6301,-4.6301,-4.6301,-4.6301,-4.8003,-4.9448,0.0,0.0,0.0,0.0,0.0,0.0,0.0,0.0,0.0,0.0,0.0,0.0,-5.7303,-5.7303,0.0,0.0,0.0,0.0,0.0,-5.8842,-5.951,-6.0235,-6.0758,-6.1077,0.0,0.0,-6.1193,0.0,0.0,0.0,0.0,0.0,-6.1193,-6.1164,-6.1019,-6.1077,-6.1077,-6.0409,-6.0293,-6.0526,-6.1048,-6.1193,-6.1193,-6.1193,-6.1193,-6.1193,-6.1193,-6.1193,-6.1193,-6.1193,-6.1193,-6.1193,-6.1193,-6.1193,-6.1193,-6.1193,-6.1969,-6.2844,-6.3759,-6.4654,-6.5561,-6.648,-6.6617,-6.6617,-6.6617,-6.6617,-6.6617,-6.6617,-6.6617,0.0,0.0,0.0,0.0,-6.6617,-6.6617,-6.6617,-6.6617,-6.6617,-6.6617,-6.6617,-6.6617,-6.6617,-6.6617,-6.6744,-6.6807,-6.6839,-6.7502,-6.7818,-6.785,-6.845,0.0,0.0,-6.8703,-6.8703,-6.8703,-6.8703,-6.8889,-6.9116,-6.9523,-7.0404,-7.137,0.0,0.0,0.0,0.0,0.0,0.0,-4.5696,-4.6059,-4.6301,-4.6301,-4.6301,-4.6301,-4.6301,-4.6541,-4.8003,0.0,0.0,0.0,0.0,0.0,0.0,0.0,0.0,0.0,0.0,0.0,0.0,-5.7303,-5.7303,0.0,0.0,0.0,0.0,0.0,0.0,-5.9074,-6.0206,-6.0264,0.0,0.0,0.0,0.0,0.0,0.0,0.0,0.0,0.0,-6.1193,-6.1106,-6.0496,-6.07,-6.1077,-6.0409,-6.0613,-6.1106,-6.1164,-6.1193,-6.1193,-6.1193,-6.1193,-6.1193,-6.1193,-6.1193,-6.1193,-6.1193,-6.1193,-6.1193,-6.1193,-6.1193,-6.1193,-6.1193,-6.1969,-6.2844,-6.3759,-6.4654,-6.5561,-6.648,-6.6617,-6.6617,-6.6617,-6.6617,-6.6617,-6.6617,-6.6617,-6.6617,0.0,0.0,0.0,-6.6617,-6.6617,-6.6617,-6.6617,-6.6617,-6.6617,-6.6617,-6.6617,-6.6617,-6.6617,-6.7218,-6.7502,-6.7534,-6.8261,-6.8608,-6.8608,-6.8671,0.0,0.0,-6.8703,-6.8703,-6.8703,-6.8703,-6.9287,-7.0241,-7.1259,-7.2204,-7.3274,0.0,0.0,0.0,0.0,0.0,0.0,-4.5453,-4.5939,-4.6301,-4.6301,-4.6301,-4.6301,-4.6301,-4.6301,-4.7442,-5.035,0.0,0.0,0.0,0.0,0.0,0.0,0.0,0.0,0.0,0.0,-5.6113,-5.6781,-5.6781,0.0,0.0,0.0,0.0,0.0,0.0,-5.8581,-5.9103,-5.9858,0.0,0.0,0.0,0.0,0.0,0.0,0.0,0.0,0.0,0.0,-6.1164,-6.0874,-6.099,-6.1164,-6.0874,-6.099,-6.1193,-6.1193,-6.1193,-6.1193,-6.1193,-6.1193,-6.1193,-6.1193,-6.1193,-6.1193,-6.1193,-6.1193,-6.1193,-6.1193,-6.1193,-6.1193,-6.1193,-6.1523,-6.2204,-6.3645,-6.4209,-6.4795,-6.5592,-6.6268,-6.6374,-6.5808,-6.6268,-6.6617,0.0,0.0,-6.6617,0.0,0.0,0.0,-6.6617,-6.6617,-6.6617,-6.6617,-6.6617,-6.6617,-6.6617,-6.6997,-6.7186,-6.7218,-6.7913,-6.8261,-6.8292,-6.8988,-6.9272,-6.9304,-6.9746,0.0,0.0,-6.9936,-6.9936,-6.9936,-6.9936,-7.0639,-7.1682,-7.2248,-7.3165,-7.417,0.0,0.0,0.0,0.0,0.0,-4.5331,-4.5331,-4.5817,-4.6301,-4.6301,-4.6301,-4.6301,-4.6301,-4.6301,-4.7205,-4.9675,-5.0685,0.0,0.0,0.0,0.0,0.0,0.0,0.0,0.0,0.0,-5.5474,-5.6113,-5.6113,-5.6316,0.0,0.0,-5.7042,-5.7071,0.0,0.0,0.0,0.0,0.0,0.0,0.0,0.0,0.0,0.0,0.0,0.0,0.0,0.0,0.0,0.0,0.0,-6.1164,-6.0961,-6.1048,-6.1193,-6.1193,-6.1193,-6.1193,-6.1193,-6.1193,-6.1193,-6.1193,-6.1193,-6.1193,-6.1193,-6.1193,-6.1193,-6.1193,-6.1193,-6.1193,-6.1193,-6.1193,-6.1761,-6.3645,-6.3872,-6.4209,-6.5125,-6.6023,-6.6161,-6.5016,-6.5915,-6.648,0.0,-6.648,0.0,0.0,0.0,0.0,0.0,-6.6617,-6.6617,-6.6617,-6.6617,-6.6712,-6.6902,-6.7344,-6.7692,-6.7913,-6.864,-6.8988,-6.9019,-6.9683,-6.9999,-7.003,0.0,0.0,0.0,-7.0789,-7.0789,-7.0789,-7.0789,-7.1689,-7.2914,-7.3107,-7.4128,-7.5355,0.0,0.0,0.0,0.0,0.0,-4.5331,-4.5331,-4.5817,-4.6301,-4.6301,-4.6301,-4.6301,-4.6301,-4.6301,-4.7205,-4.9675,-4.9901,0.0,0.0,0.0,0.0,0.0,0.0,0.0,0.0,0.0,-5.4807,-5.5416,-5.5416,-5.5416,-5.5445,-5.6113,-5.6432,-5.6432,0.0,0.0,0.0,0.0,0.0,0.0,0.0,0.0,0.0,0.0,0.0,0.0,0.0,0.0,0.0,0.0,0.0,0.0,0.0,-6.0671,-6.1193,-6.1193,-6.1193,-6.1193,-6.1193,-6.1193,-6.1193,-6.1193,-6.1193,-6.1193,-6.1193,-6.1193,-6.1193,-6.1193,-6.1193,-6.1193,-6.1193,-6.1193,-6.1761,-6.3645,-6.3872,-6.4209,-6.5125,-6.6023,-6.5915,-6.4097,-6.5452,-6.6268,-6.5344,-6.6023,0.0,0.0,0.0,0.0,0.0,-6.6617,-6.6617,-6.6617,-6.6617,-6.6933,-6.7565,-6.7597,-6.7976,-6.8703,-6.9367,-6.9683,-6.9683,-7.0441,-7.0757,0.0,0.0,0.0,0.0,-7.0789,-7.0789,-7.0789,-7.0789,-7.209,-7.3972,-7.3972,-7.5383,-7.7223,0.0,0.0,0.0,0.0,0.0,0.0,-4.5331,-4.5817,-4.6301,-4.6301,-4.6301,-4.6301,-4.6301,-4.6301,-4.6993,-4.8558,-4.9448,0.0,0.0,0.0,0.0,0.0,0.0,0.0,0.0,-5.382,-5.4139,-5.4807,-5.4807,-5.501,-5.5416,-5.562,-5.5736,-5.5736,-5.5939,-5.6113,0.0,0.0,0.0,0.0,0.0,0.0,0.0,0.0,0.0,0.0,0.0,0.0,0.0,0.0,0.0,0.0,0.0,0.0,0.0,-6.1193,-6.1193,-6.1193,-6.1193,-6.1193,-6.1193,-6.1193,-6.1193,-6.1193,-6.1193,-6.1193,-6.1193,-6.1193,-6.1193,-6.1193,-6.1193,-6.1193,-6.1523,-6.2758,-6.3532,-6.3759,-6.3418,-6.5235,-6.5915,-6.4097,-6.5483,-6.648,0.0,0.0,0.0,0.0,0.0,0.0,0.0,-6.6617,-6.6617,-6.6617,-6.7028,-6.7376,-6.7597,-6.8545,-6.9146,-6.9367,-7.0094,-7.0441,-7.0441,-7.0662,0.0,0.0,0.0,0.0,0.0,-7.0789,-7.0789,-7.0869,-7.158,-7.2802,-7.4073,-7.4768,-7.5986,-7.7223,0.0,0.0,0.0,0.0,0.0,0.0,-4.5331,-4.5817,-4.6301,-4.6301,-4.6301,-4.6301,-4.6301,-4.6301,-4.6993,-4.8673,-4.9448,0.0,0.0,0.0,0.0,0.0,0.0,0.0,-5.35,-5.35,-5.3704,-5.4139,-5.4139,-5.4313,-5.4691,-5.4952,-5.5068,-5.5068,-5.53,-5.5416,0.0,0.0,0.0,0.0,0.0,0.0,-5.9539,0.0,0.0,0.0,0.0,0.0,0.0,0.0,0.0,0.0,0.0,0.0,0.0,0.0,-6.1193,-6.1193,-6.1193,-6.1193,-6.1193,-6.1193,-6.1193,-6.1193,-6.1193,-6.1193,-6.1193,-6.1193,-6.1193,-6.1193,-6.1193,-6.1193,-6.1523,-6.2409,-6.2959,-6.3304,-6.3074,-6.4795,0.0,-6.5016,0.0,0.0,0.0,0.0,0.0,0.0,0.0,0.0,0.0,-6.6617,-6.6712,-6.6965,-6.7376,-6.785,-6.8387,-6.924,-6.9809,-7.0094,-7.0568,-7.0789,-7.0789,-7.0789,0.0,0.0,0.0,0.0,0.0,-7.0789,-7.0789,-7.0869,-7.1982,-7.3083,-7.4073,-7.519,-7.63,-7.7223,0.0,0.0,0.0,0.0,0.0,0.0,0.0,-4.5817,-4.6301,-4.6301,-4.6301,-4.6301,-4.6301,-4.6301,-4.7205,-4.9589,-4.9788,0.0,0.0,0.0,0.0,0.0,0.0,0.0,-5.3588,-5.3617,-5.3646,-5.3646,-5.3646,-5.3617,-5.3588,-5.4226,-5.4487,-5.4458,-5.501,-5.5271,0.0,0.0,0.0,0.0,-5.6374,-5.7129,0.0,0.0,0.0,0.0,0.0,0.0,0.0,0.0,0.0,0.0,0.0,0.0,0.0,0.0,0.0,0.0,0.0,-6.1193,-6.1193,-6.1193,-6.1193,-6.1193,-6.1193,-6.1193,0.0,-6.1193,-6.1193,-6.1193,-6.1193,-6.1193,-6.1404,-6.2292,-6.2525,-6.2844,0.0,-6.4574,0.0,0.0,-6.5808,0.0,0.0,0.0,0.0,0.0,0.0,0.0,0.0,-6.6617,-6.6933,-6.766,-6.766,-6.8324,-6.9683,-6.9746,-7.0094,-7.0789,-7.0789,-7.0789,-7.0789,-7.0789,0.0,0.0,0.0,0.0,0.0,-7.0789,-7.0901,-7.0981,-7.209,-7.3187,-7.4273,-7.5287,-7.63,-7.7223,0.0,0.0,0.0,0.0,0.0,0.0,0.0,0.0,0.0,0.0,-4.6301,-4.6301,-4.6301,-4.6301,-4.6874,0.0,0.0,0.0,0.0,0.0,0.0,0.0,0.0,0.0,-5.4284,-5.472,-5.4952,-5.4952,-5.4952,-5.472,-5.4284,-5.4429,-5.4226,-5.3762,-5.3907,-5.3965,0.0,0.0,0.0,0.0,-5.6026,-5.6868,0.0,0.0,0.0,0.0,-5.951,-5.9916,0.0,0.0,0.0,0.0,0.0,0.0,0.0,0.0,-6.1193,-6.1193,-6.1193,0.0,-6.1193,-6.1193,-6.1193,-6.1193,0.0,-6.1193,-6.1193,-6.1193,-6.1193,-6.1193,-6.1193,-6.1193,-6.1313,-6.1523,-6.2057,-6.2642,-6.2844,0.0,0.0,-6.5452,-6.5915,0.0,0.0,0.0,0.0,0.0,0.0,0.0,0.0,-6.6617,-6.7155,-6.8387,-6.8419,-6.8829,-6.9683,-7.0252,-7.0599,-7.0789,-7.0789,-7.0789,-7.0789,-7.0789,0.0,0.0,0.0,0.0,-7.0789,-7.0789,-7.1282,-7.209,-7.3187,-7.4273,-7.5383,-7.6392,-7.7009,-7.7223,0.0,0.0,0.0,0.0,0.0,0.0,0.0,0.0,0.0,0.0,-4.6301,-4.6301,-4.6301,-4.6301,-4.6755,0.0,0.0,0.0,0.0,0.0,0.0,0.0,0.0,-5.4923,-5.4923,-5.5242,-5.5416,-5.5416,-5.5416,-5.5242,-5.4923,-5.4923,-5.4575,-5.3965,-5.3646,-5.35,-5.353,-5.3907,-5.4052,-5.411,-5.4807,0.0,0.0,0.0,0.0,0.0,-5.8726,-5.9248,0.0,-5.8639,-5.919,-6.0206,0.0,0.0,0.0,0.0,-6.1193,-6.1193,-6.1193,-6.1193,-6.1193,-6.1193,-6.1193,-6.1193,-6.1193,-6.1193,-6.1193,-6.1193,-6.1193,-6.1193,-6.1193,-6.1523,-6.1642,-6.1313,-6.2292,0.0,0.0,0.0,-6.4764,-6.5125,0.0,0.0,0.0,0.0,0.0,0.0,0.0,0.0,0.0,-6.6902,-6.7565,-6.8671,-6.8988,-6.9493,-7.0188,-7.0568,-7.0789,-7.0789,-7.0789,-7.0789,-7.0789,-7.0789,-7.0789,0.0,0.0,0.0,-7.0789,-7.0789,-7.1392,-7.2485,-7.3566,-7.4669,-7.5669,-7.6793,-7.7223,-7.7223,0.0,0.0,0.0,0.0,0.0,0.0,0.0,0.0,0.0,0.0,0.0,0.0,0.0,0.0,0.0,0.0,0.0,0.0,0.0,0.0,0.0,0.0,-5.53,-5.5562,-5.5562,-5.5649,-5.5707,-5.5707,-5.5707,-5.5649,-5.5562,-5.5562,-5.5184,-5.4487,-5.382,-5.35,-5.35,-5.35,-5.35,-5.35,-5.35,0.0,0.0,0.0,0.0,0.0,0.0,0.0,0.0,-5.8377,-5.8668,-5.9306,-5.9306,0.0,0.0,0.0,0.0,0.0,-6.1193,-6.1313,-6.1433,-6.1193,-6.1193,-6.1193,-6.1193,-6.1193,-6.1193,-6.1193,-6.1193,-6.1193,-6.1404,-6.185,-6.2057,0.0,0.0,0.0,-6.4097,-6.4209,-6.4543,-6.5125,0.0,0.0,0.0,0.0,0.0,0.0,0.0,0.0,0.0,-6.7249,-6.7945,-6.8671,-6.9335,-7.003,-7.0757,-7.0789,-7.0789,-7.0789,-7.0789,-7.0789,-7.0789,-7.0789,-7.0789,0.0,0.0,0.0,-7.0789,-7.0981,-7.1689,-7.2769,-7.377,-7.4865,-7.5986,-7.6918,-7.7223,-7.7223,0.0,0.0,0.0,0.0,0.0,0.0,0.0,0.0,0.0,0.0,0.0,0.0,0.0,0.0,0.0,0.0,0.0,0.0,0.0,0.0,0.0,-5.6113,-5.62,-5.6258,-5.6258,-5.6752,-5.7013,-5.7013,-5.7013,-5.6752,-5.6258,-5.6258,-5.562,-5.4487,-5.382,-5.35,-5.35,-5.35,-5.35,-5.35,-5.35,0.0,0.0,0.0,0.0,0.0,0.0,0.0,0.0,-5.7681,-5.829,-5.9306,-5.9306,0.0,0.0,0.0,0.0,0.0,-6.1193,-6.1761,-6.2057,-6.1404,-6.1193,-6.1193,-6.1193,-6.1193,-6.1193,-6.1193,-6.1193,-6.1433,-6.2175,-6.185,-6.1642,0.0,0.0,-6.4097,0.0,0.0,0.0,0.0,0.0,0.0,0.0,0.0,0.0,0.0,0.0,0.0,0.0,0.0,-6.7945,-6.8671,-6.9335,-7.003,-7.0757,-7.0789,-7.0789,-7.0789,-7.0789,-7.0789,-7.0789,-7.0789,-7.0789,0.0,0.0,-7.0789,-7.0901,-7.1798,-7.2802,-7.3871,-7.4996,-7.5986,-7.7009,-7.7133,-7.7223,-7.7223,0.0,0.0,0.0,0.0,0.0,0.0,0.0,0.0,0.0,0.0,0.0,0.0,0.0,0.0,0.0,0.0,0.0,0.0,0.0,0.0,-5.6549,-5.6868,-5.6897,-5.6897,-5.6897,-5.7158,-5.7303,-5.7303,-5.7303,-5.7158,-5.6868,-5.62,-5.5387,-5.4487,-5.382,-5.35,-5.35,-5.35,-5.35,-5.35,0.0,0.0,0.0,0.0,0.0,0.0,0.0,0.0,0.0,0.0,-5.771,-5.8348,-5.9074,0.0,0.0,0.0,0.0,0.0,-6.1193,-6.1523,-6.1732,-6.1313,-6.1998,-6.2525,-6.1969,-6.185,-6.1732,-6.1313,-6.1193,-6.1404,-6.2292,-6.2642,-6.3104,-6.4432,0.0,-6.4209,0.0,0.0,0.0,0.0,0.0,0.0,0.0,0.0,0.0,0.0,0.0,0.0,0.0,0.0,-6.8355,-6.8671,-6.9714,-7.0441,-7.0789,-7.0789,-7.0789,-7.0789,-7.0789,-7.0789,-7.0789,-7.0789,-7.0789,-7.0789,0.0,-7.1092,-7.1689,-7.2197,-7.3394,-7.4865,-7.5383,-7.63,-7.7223,-7.7223,-7.7223,-7.7223,0.0,0.0,0.0,0.0,0.0,0.0,0.0,0.0,0.0,0.0,0.0,0.0,0.0,0.0,0.0,0.0,0.0,0.0,0.0,-5.5339,-5.6839,-5.7274,-5.7303,-5.7303,-5.7303,-5.7303,-5.7303,-5.7303,-5.7303,-5.7245,-5.7071,-5.5939,-5.5097,-5.4487,-5.382,-5.35,-5.35,-5.35,-5.35,-5.35,0.0,0.0,0.0,0.0,0.0,0.0,0.0,0.0,0.0,0.0,0.0,0.0,0.0,0.0,0.0,-6.0816,-6.1193,-6.1193,-6.1193,-6.1313,-6.1523,-6.1523,-6.2409,-6.3104,-6.2409,-6.2175,-6.2057,-6.1642,-6.1523,-6.1732,-6.2612,-6.3418,0.0,-6.57,-6.5016,0.0,0.0,0.0,0.0,0.0,0.0,0.0,0.0,0.0,0.0,0.0,0.0,0.0,0.0,0.0,-6.8703,-6.8703,-7.0062,-7.0789,-7.0789,-7.0789,-7.0789,-7.0789,-7.0789,-7.0789,-7.0789,-7.0789,-7.0789,-7.0789,-7.0789,-7.1392,-7.2379,-7.2697,-7.3871,-7.5574,-7.5892,-7.6519,-7.7223,-7.7223,-7.7223,-7.7223,0.0,0.0,0.0,0.0,0.0,0.0,0.0,0.0,0.0,0.0,0.0,0.0,0.0,0.0,0.0,0.0,0.0,0.0,0.0,-5.6193,-5.7245,-5.7303,-5.7303,-5.7303,-5.7303,-5.7303,-5.7303,-5.7303,-5.7303,-5.7013,-5.6461,-5.5736,-5.5097,-5.4487,-5.382,-5.35,-5.35,-5.35,-5.35,-5.35,-5.35,0.0,0.0,0.0,0.0,0.0,0.0,0.0,0.0,0.0,0.0,0.0,0.0,0.0,-5.9539,-6.0816,-6.1193,-6.1193,-6.1193,-6.1732,-6.2409,-6.2409,-6.185,-6.1433,-6.1313,-6.1313,-6.1523,-6.2292,-6.2409,-6.2728,-6.3645,-6.3872,-6.3984,-6.4097,-6.4654,0.0,0.0,0.0,0.0,0.0,0.0,0.0,0.0,0.0,0.0,0.0,0.0,0.0,0.0,0.0,0.0,-6.8703,-7.0062,-7.0789,-7.0789,-7.0789,-7.0789,-7.0789,-7.0789,-7.0789,-7.0789,-7.0789,-7.0789,-7.0789,-7.0789,-7.1392,-7.2485,-7.3464,-7.4571,-7.5669,-7.6702,-7.7133,-7.7223,-7.7223,-7.7223,-7.7223,0.0,0.0,0.0,0.0,0.0,0.0,0.0,0.0,0.0,0.0,0.0,0.0,0.0,0.0,0.0,0.0,0.0,0.0,0.0,-5.5993,-5.7303,-5.7303,-5.7303,-5.7303,-5.7303,-5.7303,-5.7303,-5.7303,-5.6926,-5.6432,-5.5765,-5.5155,-5.4517,-5.3878,-5.3617,-5.35,-5.35,-5.35,-5.35,-5.3559,-5.3965,-5.4517,0.0,0.0,0.0,0.0,0.0,0.0,0.0,0.0,-5.7594,-5.8201,-5.9648,-5.9975,-6.015,-6.1586,-6.1642,-6.1193,-6.1193,-6.1404,-6.1642,-6.1642,-6.1404,-6.1313,-6.185,-6.1969,-6.1969,-6.1761,-6.2057,-6.2728,-6.3759,0.0,-6.5344,-6.4795,0.0,0.0,0.0,0.0,0.0,0.0,0.0,0.0,0.0,0.0,0.0,0.0,0.0,0.0,0.0,0.0,0.0,-6.9304,-7.0252,-7.0789,-7.0789,-7.0789,-7.0789,-7.0789,-7.0789,-7.0789,-7.0789,-7.0789,-7.0789,-7.0901,-7.147,-7.2379,-7.3496,-7.4571,-7.5608,-7.6611,-7.7009,-7.7223,-7.7223,-7.7223,-7.7223,-7.7223,0.0,0.0,0.0,0.0,0.0,0.0,0.0,0.0,0.0,0.0,0.0,0.0,0.0,0.0,0.0,0.0,0.0,0.0,-5.4029,-5.5761,-5.6822,-5.7303,-5.7303,-5.7303,-5.7303,-5.7303,-5.7303,-5.7303,-5.6694,-5.5968,-5.5126,-5.4691,-5.4168,-5.35,-5.35,-5.35,-5.35,-5.35,-5.3646,-5.3878,-5.4342,-5.501,0.0,0.0,0.0,0.0,0.0,0.0,0.0,0.0,-5.7739,-5.8521,-6.0161,-6.0468,-6.0559,-6.2085,-6.2087,-6.1642,-6.1642,-6.1642,-6.1642,-6.1642,-6.1404,-6.1313,-6.1969,-6.2292,-6.2409,-6.2087,-6.2525,-6.3189,-6.4097,-6.5125,0.0,0.0,0.0,0.0,0.0,0.0,0.0,0.0,0.0,0.0,0.0,0.0,0.0,0.0,0.0,0.0,0.0,0.0,0.0,0.0,-7.041,-7.0789,-7.0789,-7.0789,-7.0789,-7.0789,-7.0789,-7.0789,-7.0789,-7.0789,-7.0789,-7.0869,-7.1874,-7.2979,-7.4073,-7.519,-7.6207,-7.7223,-7.7223,-7.7223,-7.7223,-7.7223,-7.7223,-7.7402,0.0,0.0,0.0,0.0,0.0,0.0,0.0,0.0,-4.6301,-4.6301,-4.6301,0.0,0.0,0.0,0.0,0.0,0.0,0.0,-5.5122,-5.5412,-5.5992,-5.7191,-5.7303,-5.7303,-5.7303,-5.7303,-5.7303,-5.7303,-5.6694,-5.5765,-5.4517,-5.4517,-5.4139,-5.35,-5.35,-5.35,-5.353,-5.353,-5.3907,-5.4517,-5.4517,-5.5271,-5.6403,0.0,0.0,0.0,0.0,0.0,0.0,0.0,-5.7768,-5.8521,-6.0161,-6.0468,-6.0559,-6.2085,-6.2496,-6.2525,-6.2525,-6.2525,-6.2525,-6.2525,-6.185,-6.1193,-6.1193,-6.185,-6.2728,-6.3645,-6.3872,-6.4209,-6.5016,-6.4543,0.0,0.0,0.0,0.0,0.0,0.0,0.0,0.0,0.0,0.0,0.0,0.0,0.0,0.0,0.0,0.0,0.0,0.0,0.0,0.0,-7.041,-7.0789,-7.0789,-7.0789,-7.0789,-7.0789,-7.0789,-7.0789,-7.0789,-7.0789,-7.0789,-7.0901,-7.1982,-7.2979,-7.4073,-7.519,-7.6207,-7.7223,-7.7223,-7.7223,-7.7223,-7.7223,-7.7402,-7.7754,0.0,0.0,0.0,0.0,0.0,0.0,0.0,0.0,-4.6301,-4.6301,-4.6301,0.0,0.0,0.0,0.0,0.0,0.0,0.0,-5.2551,-5.4414,-5.5528,-5.5992,-5.6822,-5.7303,-5.7303,-5.6897,-5.6665,-5.6665,-5.6026,-5.53,-5.4517,-5.4023,-5.3704,-5.35,-5.35,-5.3791,-5.4226,-5.4226,-5.4575,-5.5184,-5.5649,-5.6084,-5.6461,0.0,0.0,0.0,0.0,0.0,0.0,0.0,0.0,0.0,-6.0842,-6.1174,-6.1171,-6.2233,-6.2087,-6.1642,-6.1642,-6.1642,-6.1642,-6.1642,-6.1404,-6.1193,-6.1193,-6.1433,-6.2087,-6.3532,-6.4432,-6.4906,-6.5125,-6.5561,0.0,0.0,0.0,0.0,0.0,0.0,0.0,0.0,0.0,0.0,0.0,0.0,0.0,0.0,0.0,0.0,0.0,0.0,0.0,0.0,-7.0662,-7.0789,-7.0789,-7.0789,-7.0789,-7.0789,-7.0789,-7.0789,-7.0789,-7.0789,-7.1171,-7.1982,-7.3083,-7.4173,-7.519,-7.63,-7.6918,-7.7223,-7.7223,-7.7223,-7.7223,-7.7223,-7.7402,-7.7754,0.0,0.0,0.0,0.0,0.0,0.0,0.0,0.0,-4.6301,-4.6301,-4.6301,-4.6401,0.0,0.0,0.0,0.0,0.0,0.0,-5.1492,-5.2971,-5.4295,-5.5383,-5.6107,-5.6707,-5.6955,-5.6345,-5.591,-5.5649,-5.5242,-5.472,-5.411,-5.3704,-5.35,-5.353,-5.3791,-5.4139,-5.4517,-5.4778,-5.5242,-5.5852,-5.6258,-5.6549,-5.681,0.0,0.0,0.0,0.0,0.0,0.0,0.0,0.0,0.0,-6.1197,-6.1468,-6.1404,-6.2642,-6.2409,-6.1761,-6.2204,-6.1969,-6.188,-6.2204,-6.1761,-6.1313,-6.1642,-6.1969,-6.2758,-6.4574,-6.5125,-6.5344,-6.57,-6.5915,0.0,0.0,0.0,0.0,0.0,0.0,0.0,0.0,0.0,0.0,0.0,0.0,0.0,0.0,0.0,0.0,0.0,0.0,0.0,0.0,-7.0789,-7.0789,-7.0789,-7.0789,-7.0789,-7.0789,-7.0789,-7.0981,-7.1502,-7.1502,-7.1798,-7.2485,-7.3972,-7.5287,-7.63,-7.6918,-7.7223,-7.7223,-7.7223,-7.7223,-7.7223,-7.7223,-7.7632,-7.8336,0.0,0.0,-4.4717,-4.484,0.0,0.0,0.0,0.0,-4.6301,-4.6301,-4.6301,-4.6527,0.0,0.0,0.0,0.0,0.0,0.0,-5.1268,-5.1367,-5.2578,-5.5066,-5.5271,-5.5709,-5.6316,-5.5678,-5.5068,-5.4517,-5.4517,-5.4168,-5.35,-5.35,-5.3559,-5.3646,-5.4255,-5.4575,-5.472,-5.5271,-5.5881,-5.649,-5.649,-5.681,-5.7303,-5.7361,0.0,0.0,0.0,0.0,0.0,0.0,0.0,0.0,-6.1288,-6.1381,-6.1523,-6.3219,-6.3074,-6.2525,-6.3418,-6.3074,-6.2758,-6.3418,-6.2438,-6.1523,-6.2292,-6.3189,-6.4432,-6.6161,0.0,-6.5592,-6.648,-6.5915,0.0,0.0,0.0,0.0,0.0,0.0,0.0,0.0,0.0,0.0,0.0,0.0,0.0,0.0,0.0,0.0,0.0,0.0,0.0,0.0,-7.0789,-7.0789,-7.0789,-7.0789,-7.0789,0.0,-7.0869,-7.1502,-7.2379,-7.2379,-7.2485,-7.2802,-7.4899,-7.63,-7.7223,-7.7223,-7.7223,-7.7223,-7.7223,-7.7223,-7.7223,-7.7313,-7.8082,-7.9249,0.0,0.0,-4.447,-4.4717,0.0,0.0,0.0,0.0,0.0,-4.6301,-4.6301,0.0,0.0,0.0,0.0,0.0,0.0,0.0,-4.995,-5.0916,-5.2024,-5.3016,-5.4573,-5.5516,-5.562,-5.501,-5.4633,-5.4517,-5.4517,-5.4168,-5.35,-5.35,-5.3791,-5.4313,-5.4458,-5.5068,-5.5997,-5.6142,-5.6549,-5.71,-5.71,-5.7187,-5.7361,-5.7884,-5.7768,0.0,0.0,0.0,0.0,0.0,0.0,0.0,-6.1054,-6.1197,-6.1313,-6.1642,-6.1642,-6.1523,-6.1761,-6.2057,-6.2409,-6.185,-6.1969,-6.2292,-6.2525,-6.3189,-6.4209,-6.5235,-6.5915,-6.6374,-6.6617,0.0,0.0,0.0,0.0,0.0,0.0,0.0,0.0,0.0,0.0,0.0,0.0,0.0,0.0,0.0,0.0,0.0,0.0,0.0,0.0,-7.0757,-7.0789,-7.0789,-7.0789,-7.0789,-7.0789,0.0,-7.1689,-7.2197,-7.2379,-7.2379,-7.329,-7.4963,-7.63,-7.7009,-7.7223,-7.7223,-7.7223,-7.7223,-7.7223,-7.7223,-7.7313,-7.7945,-7.8552,-7.9329,0.0,0.0,0.0,0.0,0.0,0.0,0.0,0.0,0.0,0.0,0.0,0.0,0.0,0.0,0.0,0.0,-4.9439,-4.949,-4.9213,-4.9799,-5.0741,-5.2063,-5.3921,-5.4981,-5.4981,-5.4371,-5.4023,-5.4023,-5.4023,-5.3849,-5.353,-5.3849,-5.4168,-5.4546,-5.5155,-5.5794,-5.6432,-5.6723,-5.7013,-5.7303,-5.7303,-5.7507,-5.7826,-5.8174,-5.829,-5.8348,-5.9045,0.0,0.0,0.0,0.0,0.0,0.0,0.0,-6.1313,-6.1761,-6.1523,-6.1433,-6.2204,-6.2525,-6.2525,-6.2525,-6.2874,-6.3189,-6.3189,-6.3872,-6.4685,-6.5125,-6.5592,-6.6054,0.0,0.0,0.0,0.0,0.0,0.0,0.0,0.0,0.0,0.0,0.0,0.0,0.0,0.0,0.0,0.0,0.0,0.0,0.0,-6.9335,-7.003,-7.0757,-7.0789,-7.0789,-7.0789,-7.0789,-7.1092,-7.158,-7.209,-7.2979,-7.3871,-7.3871,-7.4801,-7.6392,-7.6918,-7.7223,-7.7223,-7.7223,-7.7223,-7.7223,-7.7223,-7.7456,-7.7858,-7.8385,-7.9294,-8.033,0.0,0.0,0.0,0.0,0.0,0.0,0.0,0.0,0.0,0.0,0.0,0.0,0.0,0.0,0.0,0.0,0.0,0.0,-4.8661,-4.8888,-4.9941,-5.1789,-5.3408,-5.4342,-5.4342,-5.3791,-5.3559,-5.3675,-5.3675,-5.3733,-5.3849,-5.4313,-5.4633,-5.4894,-5.5939,-5.6461,-5.6607,-5.71,-5.7303,-5.7303,-5.7419,-5.7797,-5.8319,-5.8552,-5.89,-5.9335,-5.9539,-5.9858,-6.0206,-6.0322,0.0,0.0,0.0,0.0,-6.1313,-6.2057,-6.1732,-6.1523,-6.2989,-6.2874,-6.2525,-6.3759,-6.3984,-6.3872,-6.3872,-6.4543,-6.5235,-6.5235,-6.5344,0.0,0.0,0.0,0.0,0.0,0.0,0.0,0.0,0.0,0.0,0.0,0.0,0.0,0.0,0.0,0.0,0.0,0.0,0.0,-6.8829,-6.9493,-7.0157,-7.0757,-7.0789,-7.0789,-7.0789,-7.0981,-7.147,-7.2379,-7.2802,-7.3972,-7.5892,-7.5892,-7.6392,-7.7223,-7.7223,-7.7223,-7.7223,-7.7223,-7.7223,-7.7223,-7.7367,-7.7858,-7.8552,-7.8938,-8.0146,-8.1501,0.0,0.0,0.0,0.0,0.0,0.0,0.0,0.0,0.0,0.0,-4.6289,-4.696,0.0,0.0,-4.8812,-4.8887,-4.8887,-4.8636,-4.8058,0.0,0.0,-5.238,-5.3188,-5.3646,-5.3646,-5.3559,-5.3791,-5.4371,-5.4371,-5.4633,-5.5155,-5.472,-5.5097,-5.6171,-5.6316,-5.6694,-5.7187,-5.7274,-5.7303,-5.7361,-5.7942,-5.8232,-5.8435,-5.9539,-5.9684,-5.9451,-6.0555,-6.0613,-6.0293,-6.0874,-6.1135,0.0,0.0,0.0,-6.1193,-6.1313,-6.1313,-6.1193,-6.1523,-6.1404,-6.1969,-6.4432,-6.4432,-6.3872,-6.3872,-6.4543,-6.5235,0.0,0.0,0.0,0.0,0.0,0.0,0.0,0.0,0.0,0.0,0.0,0.0,0.0,0.0,0.0,0.0,0.0,0.0,0.0,0.0,0.0,-6.9525,-7.0252,-7.0694,-7.0789,-7.0789,-7.0789,-7.0789,-7.1689,-7.2272,-7.2379,-7.4273,-7.5798,-7.7009,-7.7009,-7.7009,-7.7223,-7.7223,-7.7223,-7.7223,-7.7223,-7.7223,-7.7313,-7.8031,-7.8469,-7.8892,-8.033,-8.1226,-8.1769,0.0,0.0,0.0,0.0,0.0,0.0,0.0,0.0,0.0,0.0,0.0,-4.7059,0.0,-4.8208,-4.8407,-4.8309,-4.8284,-4.8058,-4.7506,-4.927,-5.0535,-5.0958,-5.263,-5.3704,-5.4052,-5.4081,-5.4371,-5.501,-5.501,-5.5329,-5.5968,-5.5707,-5.5881,-5.6432,-5.6752,-5.7042,-5.7303,-5.7303,-5.7536,-5.7884,-5.8174,-5.8726,-5.9422,-5.9974,-6.0264,-6.0438,-6.099,-6.1019,-6.0816,-6.1106,-6.1193,-6.1193,-6.1193,0.0,0.0,0.0,-6.1523,-6.2204,-6.3219,-6.3104,-6.3219,-6.5483,-6.5344,-6.4654,-6.4654,-6.5344,-6.5808,-6.5344,0.0,0.0,0.0,0.0,0.0,0.0,0.0,0.0,0.0,0.0,0.0,0.0,0.0,0.0,0.0,0.0,0.0,0.0,0.0,-6.8988,-6.9651,-7.0378,-7.0789,-7.0789,-7.0789,-7.1092,-7.1689,-7.2197,-7.2979,-7.4173,-7.5798,-7.6702,-7.7223,-7.7223,-7.7223,-7.7223,-7.7223,-7.7223,-7.7223,-7.7223,-7.7456,-7.7945,-7.8336,-7.917,-8.0182,-8.1017,-8.1739,-8.2423,0.0,0.0,0.0,0.0,0.0,0.0,0.0,0.0,0.0,0.0,0.0,0.0,0.0,0.0,0.0,0.0,-4.7583,-4.7531,-4.7618,-4.9255,-5.0476,-5.0816,-5.2864,-5.4226,-5.472,-5.4749,-5.5039,-5.5649,-5.5649,-5.5997,-5.6636,-5.6636,-5.6636,-5.6665,-5.71,-5.7303,-5.7303,-5.7477,-5.7855,-5.8348,-5.8668,-5.9364,-6.0206,-6.038,-6.0758,-6.1193,-6.1193,-6.1193,-6.1193,-6.1193,-6.1193,-6.1193,-6.1193,-6.1193,0.0,0.0,0.0,-6.3351,-6.4614,-6.4501,-6.4471,-6.612,-6.5841,-6.5232,-6.5515,0.0,-6.6374,0.0,0.0,0.0,0.0,0.0,0.0,0.0,0.0,0.0,0.0,0.0,0.0,0.0,0.0,0.0,0.0,0.0,0.0,0.0,0.0,-6.9051,-6.9904,-7.0473,-7.0869,-7.1171,-7.1171,-7.1689,-7.2802,-7.3083,-7.4173,-7.5986,-7.6828,-7.7223,-7.7223,-7.7223,-7.7223,-7.7223,-7.7223,-7.7223,-7.7223,-7.7223,-7.7685,-7.8504,-7.8718,-7.9762,-8.1263,-8.1605,-8.2233,-8.2964,0.0,0.0,0.0,0.0,0.0,0.0,0.0,0.0,0.0,0.0,0.0,0.0,-4.7057,-4.7408,-4.7383,-4.723,-4.681,-4.7252,-4.8718,-5.0586,-5.2163,-5.3247,-5.4615,0.0,-5.5358,-5.5358,-5.5678,-5.6345,-5.6345,-5.6665,-5.7245,-5.7245,-5.7245,-5.7245,-5.7303,-5.7303,-5.7332,-5.7971,-5.8261,-5.8406,-5.9626,-6.0148,-6.0264,-6.0903,-6.1164,-6.1193,-6.1193,-6.1193,-6.1193,-6.1193,-6.1193,-6.1193,-6.1193,-6.1193,-6.1309,0.0,0.0,0.0,-6.4457,-6.4457,-6.4783,-6.5903,-6.5494,-6.5115,-6.6287,0.0,0.0,0.0,0.0,0.0,0.0,0.0,0.0,0.0,0.0,0.0,0.0,0.0,0.0,0.0,0.0,0.0,0.0,0.0,0.0,0.0,0.0,-6.9304,-7.0662,-7.0757,-7.1282,-7.2272,-7.2272,-7.2769,-7.3871,-7.4899,-7.5986,-7.7133,-7.7223,-7.7223,-7.7223,-7.7223,-7.7223,-7.7223,-7.7223,-7.7223,-7.7223,-7.7223,-7.7685,-7.8587,-7.9329,-8.0366,-8.1501,-8.2307,-8.288,-8.318,0.0,0.0,0.0,0.0,0.0,0.0,0.0,0.0,0.0,0.0,0.0,0.0,0.0,-4.6734,-4.6983,-4.6563,-4.6836,-4.7383,-4.7853,-5.0261,-5.1925,-5.2273,-5.4369,-5.562,-5.6026,-5.6055,-5.6345,-5.6984,-5.6984,-5.71,-5.7303,-5.7303,-5.7536,-5.7942,-5.7942,-5.7942,-5.8,-5.8668,-5.9161,-5.9568,-6.0032,-6.0467,-6.0874,-6.1106,-6.1193,-6.1193,-6.1193,-6.1193,-6.1193,-6.1193,-6.1193,-6.1193,-6.1193,-6.1454,-6.2132,-6.404,-6.4991,-6.5525,-6.6107,-6.5875,-6.5464,-6.5803,-6.5862,-6.5831,-6.6277,-6.6475,-6.6617,0.0,0.0,0.0,0.0,0.0,0.0,0.0,0.0,0.0,0.0,0.0,0.0,0.0,0.0,0.0,0.0,0.0,0.0,0.0,0.0,0.0,-7.0726,-7.0789,-7.1282,-7.2379,-7.2379,-7.329,-7.4996,-7.608,-7.6828,-7.7223,-7.7223,-7.7223,-7.7223,-7.7223,-7.7223,-7.7223,-7.7223,-7.7223,-7.7223,-7.7772,-7.8469,-7.9329,-8.0292,-8.1332,-8.2307,-8.2721,-8.3001,-8.318,0.0,0.0,0.0,0.0,0.0,-4.4347,-4.4594,-4.4594,-4.4715,-4.5202,0.0,0.0,0.0,0.0,-4.6679,-4.6437,-4.7282,-4.7857,-4.7857,-5.0627,-5.2289,-5.2289,-5.4743,-5.6258,-5.6694,-5.6723,-5.6897,-5.7303,-5.7303,-5.7303,-5.7303,-5.7536,-5.7884,-5.8319,-5.8755,-5.8842,-5.8668,-5.9335,-5.9829,-6.0206,-6.0438,-6.0787,-6.1193,-6.1193,-6.1193,-6.1193,0.0,0.0,-6.1193,-6.1193,-6.1193,-6.1193,-6.1193,-6.1774,-6.2774,-6.4725,-6.5652,-6.6189,-6.6425,-6.6543,-6.6482,-6.6239,-6.6155,-6.6201,-6.662,-6.6416,-6.6268,0.0,0.0,0.0,0.0,0.0,0.0,0.0,0.0,0.0,0.0,0.0,0.0,0.0,0.0,0.0,0.0,0.0,0.0,0.0,0.0,0.0,-7.0726,-7.1203,-7.1982,-7.3394,-7.3803,-7.4703,-7.608,-7.6828,-7.7223,-7.7223,-7.7223,-7.7223,-7.7223,-7.7223,-7.7223,-7.7223,-7.7544,-7.7632,-7.7685,-7.8252,-7.9089,-8.0143,-8.0911,-8.1812,-8.2696,-8.2843,-8.3024,-8.318,0.0,0.0,-4.4996,-4.4467,-4.4371,-4.4371,-4.4347,-4.4618,-4.4865,-4.4865,0.0,0.0,0.0,0.0,0.0,-4.6851,-4.8106,-4.8786,-4.8786,-5.1725,-5.351,-5.351,-5.5876,-5.7303,-5.7303,-5.7303,-5.7303,-5.7303,-5.7303,-5.7303,-5.7332,-5.8,-5.8319,-5.8406,-5.9655,-5.9887,-5.9393,-5.9974,-6.0235,-6.0293,-6.0932,-6.1193,-6.1193,-6.1193,-6.1193,-6.1193,-6.1193,-6.1193,0.0,-6.1193,0.0,-6.1222,-6.1251,-6.2122,-6.3254,-6.3864,-6.5198,-6.6293,0.0,0.0,0.0,-6.694,-6.6391,-6.63,-6.7323,0.0,-6.5483,0.0,0.0,0.0,0.0,0.0,0.0,0.0,0.0,0.0,0.0,0.0,0.0,0.0,0.0,0.0,0.0,0.0,0.0,0.0,0.0,-7.0141,-7.0838,-7.1874,-7.3496,-7.5574,-7.6611,-7.7223,-7.7223,-7.7223,-7.7223,-7.7223,-7.7223,-7.7223,-7.7223,-7.7223,-7.7223,-7.7313,-7.8082,-7.8504,-7.8587,-7.8587,-7.9487,-8.0911,-8.1123,-8.1812,-8.2696,-8.2843,-8.3024,-8.318,0.0,-4.5958,-4.5549,-4.502,-4.4924,-4.478,-4.4395,-4.4683,-4.5049,0.0,0.0,0.0,-4.5948,-4.6303,-4.6786,-4.7303,-4.7841,-4.8199,-4.8199,-5.0813,-5.2385,-5.2385,-5.5178,-5.6623,-5.6623,-5.7078,-5.7303,-5.7303,-5.7303,-5.7565,-5.8029,-5.8203,-5.8784,-5.9684,-6.0032,-6.038,-6.07,-6.0845,-6.0932,-6.0932,-6.1135,-6.1193,-6.1193,-6.1193,-6.1193,0.0,0.0,-6.1193,-6.1193,0.0,-6.1193,-6.1367,-6.2267,-6.3603,-6.4981,-6.5601,-6.6514,-6.7275,-6.6293,0.0,0.0,0.0,0.0,0.0,-6.738,-6.7136,-6.6834,0.0,0.0,0.0,0.0,0.0,0.0,0.0,0.0,0.0,0.0,0.0,0.0,0.0,0.0,0.0,0.0,0.0,0.0,0.0,-7.048,-7.1757,-7.1982,-7.3668,-7.4996,-7.5574,-7.6611,-7.7223,-7.7223,-7.7223,-7.7223,-7.7223,-7.7223,-7.7223,-7.7223,-7.7223,-7.7544,-7.8167,-7.842,-7.917,-8.0218,-8.0218,-8.055,-8.0982,-8.1945,-8.2471,-8.2696,-8.3001,-8.318,-8.318,-4.6752,-4.6463,-4.615,-4.5838,-4.579,-4.5766,-4.5669,-4.5934,-4.6126,0.0,0.0,0.0,-4.7209,-4.7654,-4.8101,-4.8391,-4.8682,-4.884,-4.884,-5.1588,-5.3103,-5.3103,-5.5961,-5.7571,-5.7571,-5.7916,-5.8145,-5.8145,-5.8145,-5.8348,-5.8726,-5.8958,-5.948,-6.0206,-6.0496,-6.0816,-6.1193,-6.1193,-6.1193,-6.1193,-6.1193,-6.1193,-6.1193,-6.1193,-6.1193,0.0,0.0,0.0,-6.1193,-6.1193,-6.1367,0.0,-6.2761,-6.3888,-6.4999,-6.5617,-6.6198,-6.6693,-6.6417,-6.7153,-6.7909,-6.7608,0.0,0.0,-6.7884,-6.7449,-6.6977,0.0,0.0,0.0,0.0,0.0,0.0,0.0,0.0,0.0,0.0,0.0,0.0,0.0,0.0,0.0,0.0,0.0,0.0,-6.9361,-7.1284,-7.2802,-7.3701,-7.4865,-7.5798,-7.63,-7.6918,-7.7223,-7.7223,-7.7223,-7.7223,-7.7223,-7.7223,-7.7223,-7.7223,-7.7544,-7.8031,-7.8504,-7.917,-7.9992,-8.0947,-8.1663,-8.1765,-8.1579,-8.2647,-8.2929,-8.2696,-8.3001,-8.3121,-8.318,0.0,-4.6968,-4.6968,-4.6896,-4.6896,-4.7016,-4.7449,-4.7545,-4.7593,0.0,-4.805,-4.8555,-4.9036,-4.9358,-4.947,-4.947,-4.9767,-5.0038,-5.0038,-5.2699,-5.434,-5.4467,-5.7266,-5.8927,-5.9044,-5.919,-5.919,-5.9306,-5.9306,-5.9335,-5.9422,-5.9945,-6.0235,-6.0322,-6.0932,-6.1193,-6.1193,-6.1193,-6.1193,-6.1193,-6.1193,-6.1193,-6.1193,0.0,-6.1193,-6.1193,-6.1193,-6.1193,-6.1193,-6.1193,-6.16,0.0,0.0,-6.3486,-6.4067,-6.4764,-6.5065,-6.5261,-6.6139,-6.7275,-6.8268,-6.9093,-6.8976,0.0,-6.8752,-6.7622,-6.6605,0.0,0.0,0.0,0.0,0.0,0.0,0.0,0.0,0.0,0.0,0.0,0.0,0.0,0.0,0.0,0.0,-6.7913,-6.9212,-7.0371,-7.1812,-7.3701,-7.5669,-7.5798,-7.6207,-7.7133,-7.7223,-7.7223,-7.7223,-7.7223,-7.7223,-7.7223,-7.7223,-7.7223,-7.7367,-7.8202,-7.8587,-7.8882,-8.0292,-8.1018,-8.1271,-8.2873,-8.303,-8.226,-8.3226,-8.3271,-8.2696,-8.2843,-8.3024,-8.318,-4.8628,-4.8603,-4.8483,-4.805,-4.7978,-4.7882,-4.7545,-4.7858,-4.8122,-4.8122,-4.8603,-4.8964,-4.906,-4.9221,-4.9221,-4.9221,-4.9221,-4.9358,-4.9358,-5.0638,-5.1809,-5.2595,-5.452,-5.6292,-5.7712,-5.8189,-5.8809,-5.9306,-5.9306,-5.9539,-6.0032,-6.0148,-6.0496,-6.1019,-6.1135,-6.1193,-6.1193,-6.1193,-6.1193,-6.1193,-6.1193,-6.1193,-6.1193,-6.1193,-6.1193,-6.1193,-6.1193,-6.1193,-6.1193,-6.1193,-6.16,-6.2209,0.0,0.0,0.0,-6.4648,-6.522,-6.5547,-6.6268,-6.7728,-6.9062,-6.9178,-6.9808,0.0,-6.8988,-6.8468,-6.7886,0.0,0.0,0.0,0.0,0.0,0.0,0.0,0.0,0.0,0.0,0.0,0.0,0.0,0.0,0.0,0.0,-6.8197,-6.9435,-7.0946,-7.3475,-7.5479,-7.6828,-7.6918,-7.7009,-7.7223,-7.7223,-7.7223,-7.7223,-7.7223,-7.7223,-7.7223,-7.7223,-7.7544,-7.8252,-7.842,-7.917,-8.044,-8.0768,-8.1699,-8.2977,-8.3955,-8.3508,-8.226,-8.3226,-8.3271,-8.2696,-8.2843,-8.3024,-8.318,-4.9084,-4.9084,-4.9084,-4.9084,-4.9084,-4.9084,-4.9109,-4.9325,-4.9493,-4.9493,-4.9734,-4.9902,-4.9902,-4.9902,-4.9902,-4.9902,-4.9902,-4.9902,-4.9902,-5.1185,-5.2245,-5.2756,-5.4861,-5.6648,-5.792,-5.871,-5.9611,-6.0264,-6.0264,-6.0409,-6.07,-6.07,-6.0874,-6.1193,-6.1193,-6.1193,-6.1193,-6.1193,-6.1193,-6.1193,-6.1193,0.0,-6.1193,-6.1193,-6.1193,-6.1193,-6.1193,-6.1193,-6.1193,-6.1193,-6.1832,0.0,-6.2587,-6.3254,-6.4096,0.0,-6.5228,-6.6124,-6.6941,-6.8237,0.0,-6.9933,0.0,0.0,0.0,-6.8703,-6.8292,0.0,0.0,0.0,0.0,0.0,0.0,0.0,0.0,0.0,0.0,0.0,0.0,0.0,0.0,0.0,0.0,-6.8261,-6.9809,-7.2462,-7.4988,-7.6611,-7.7223,-7.7223,-7.7223,-7.7223,-7.7223,-7.7223,-7.7223,-7.7223,-7.7223,-7.7223,-7.7632,-7.8116,-7.8504,-7.9329,-8.0143,-8.0947,-8.1805,-8.2623,-8.3508,-8.4682,-8.4242,-8.2884,-8.3721,-8.3475,-8.2571,-8.2721,-8.2904,-8.3024,-4.9397,-4.9397,-4.9517,-4.995,-5.0022,-5.0191,-5.0624,-5.0696,-5.0696,-5.0696,-5.0696,-5.0696,-5.0696,-5.0696,-5.0696,-5.0696,-5.0696,-5.0696,-5.0696,-5.2,-5.2916,-5.3027,-5.5419,-5.7268,-5.8131,-5.9369,-6.0316,-6.1073,-6.1193,-6.1193,-6.1193,-6.1193,-6.1193,-6.1193,-6.1193,-6.1193,-6.1193,-6.1193,-6.1193,-6.1193,0.0,-6.1193,-6.1193,-6.1193,-6.1193,-6.1193,-6.1193,-6.1193,-6.1193,-6.1193,-6.1948,-6.2819,-6.2412,-6.337,0.0,0.0,0.0,0.0,0.0,0.0,0.0,0.0,0.0,-7.0252,0.0,0.0,0.0,0.0,0.0,0.0,0.0,0.0,0.0,0.0,0.0,0.0,0.0,0.0,0.0,0.0,0.0,0.0,0.0,-6.8977,-7.1043,-7.4107,-7.6114,-7.7223,-7.7223,-7.7223,-7.7223,-7.7223,-7.7223,-7.7223,-7.7223,-7.7223,-7.7313,-7.7456,-7.8167,-7.8635,-7.9044,-8.0292,-8.1091,-8.1484,-8.28,-8.3581,-8.3985,-8.527,-8.5013,-8.3911,-8.4425,-8.3713,-8.2407,-8.2633,-8.2782,-8.2964,-5.0527,-5.0527,-5.0551,-5.06,-5.06,-5.0624,-5.0696,-5.0696,-5.0696,-5.0696,-5.0696,-5.0696,-5.0696,-5.0696,-5.0696,-5.0696,-5.0696,-5.0696,-5.0696,-5.0837,-5.1352,-5.2416,-5.3623,-5.5075,-5.665,-5.8368,-5.9673,-6.0316,-6.0952,-6.1193,-6.1193,-6.1193,-6.1193,-6.1193,-6.1193,-6.1193,-6.1193,-6.1193,-6.1193,0.0,-6.1193,-6.1193,0.0,-6.1193,-6.1193,-6.1193,-6.1193,-6.1193,-6.1193,0.0,-6.1658,-6.2296,0.0,-6.3138,-6.3516,-6.4561,0.0,0.0,0.0,0.0,0.0,0.0,-7.0283,0.0,0.0,0.0,-6.7502,-6.6775,0.0,0.0,0.0,0.0,0.0,0.0,0.0,0.0,0.0,0.0,0.0,0.0,0.0,0.0,0.0,0.0,-7.4007,-7.5349,-7.6519,-7.7223,-7.7223,-7.7223,-7.7223,-7.7223,-7.7223,-7.7223,-7.7223,-7.7223,-7.7632,-7.8336,-7.842,-7.9249,-8.0587,-8.084,-8.1699,-8.3118,-8.3294,-8.4205,-8.5527,-8.571,-8.5673,-8.5453,-8.4829,-8.3713,-8.2407,-8.2633,-8.2782,-8.2987,-5.0696,-5.0696,-5.0696,-5.0696,-5.0696,-5.0696,-5.0696,-5.0696,-5.0696,-5.0696,-5.0696,-5.0696,-5.0696,-5.0696,-5.0696,-5.0696,0.0,-5.0696,0.0,0.0,-5.0978,-5.1352,-5.2966,-5.4407,-5.5604,-5.7606,-5.9177,-6.0194,-6.0438,-6.0802,-6.1193,-6.1193,-6.1193,-6.1193,-6.1193,-6.1193,-6.1222,-6.1571,-6.1513,0.0,0.0,-6.1513,0.0,-6.1193,-6.1193,-6.1193,-6.1193,-6.1193,-6.1193,0.0,-6.1861,0.0,0.0,0.0,0.0,-6.4386,0.0,0.0,0.0,0.0,0.0,0.0,0.0,0.0,-6.872,0.0,-6.7407,0.0,0.0,0.0,0.0,0.0,0.0,0.0,-6.6428,0.0,0.0,0.0,0.0,0.0,0.0,0.0,0.0,0.0,0.0,0.0,0.0,-7.7223,-7.7223,-7.7223,-7.7223,-7.7223,-7.7223,-7.7223,-7.7223,-7.7685,-7.8116,-7.8504,-7.9487,-8.0218,-8.0911,-8.1405,-8.2325,-8.3434,-8.3911,-8.4756,-8.582,-8.6297,-8.6224,-8.571,-8.4903,-8.3978,-8.2941,-8.2755,-8.2927,-8.3227,-5.1129,-5.0912,-5.0696,-5.0696,-5.0696,-5.0696,-5.0696,-5.0696,-5.0696,-5.0696,-5.0696,-5.0696,-5.0696,-5.0696,-5.0696,-5.0696,-5.0696,-5.0696,0.0,0.0,-5.0696,-5.0696,-5.2692,-5.4164,-5.4649,-5.6963,-5.8704,-5.9673,-5.9995,-6.0574,-6.1212,-6.1386,-6.1594,-6.1716,-6.1716,-6.16,-6.1483,0.0,-6.1745,-6.1251,-6.1617,-6.1704,-6.1415,-6.1218,-6.1193,-6.1193,-6.1193,-6.1309,-6.1454,-6.1454,-6.2296,0.0,-6.279,0.0,-6.488,0.0,0.0,0.0,-6.7275,0.0,0.0,0.0,0.0,0.0,0.0,0.0,0.0,0.0,0.0,0.0,0.0,0.0,-6.6554,-6.6365,0.0,-6.6554,0.0,0.0,0.0,0.0,0.0,0.0,0.0,0.0,0.0,-7.5986,-7.6702,-7.7223,-7.7223,-7.7223,-7.7223,-7.7223,-7.7223,-7.7223,-7.7223,-7.8031,-7.8587,-7.8882,-8.0218,-8.1053,-8.1299,-8.2105,-8.2957,-8.3765,-8.4572,-8.538,-8.6151,-8.6775,-8.6664,-8.604,-8.5013,-8.4338,-8.3871,-8.309,-8.3069,-8.3452,-5.2235,-5.1393,-5.0696,-5.0696,-5.0696,-5.0696,-5.0696,-5.0696,-5.0696,-5.0696,0.0,0.0,0.0,0.0,0.0,0.0,0.0,-5.0696,-5.0696,0.0,-5.0696,0.0,0.0,-5.3894,0.0,-5.6731,-5.8198,-5.8325,-5.9542,-6.0483,-6.1108,-6.1708,-6.2371,-6.3022,-6.3022,-6.2674,-6.2064,-6.2093,-6.1745,-6.1251,-6.1126,-6.1451,-6.1976,0.0,-6.1193,-6.1193,-6.1193,0.0,0.0,-6.2064,-6.2935,0.0,0.0,0.0,0.0,0.0,0.0,0.0,0.0,0.0,0.0,-6.8489,0.0,0.0,0.0,0.0,-6.6649,0.0,0.0,0.0,0.0,-6.6617,-6.6396,-6.5701,-6.6175,0.0,0.0,0.0,0.0,0.0,0.0,0.0,0.0,0.0,0.0,-7.6975,-7.7223,-7.7223,-7.7223,-7.7223,-7.7223,-7.7223,-7.7223,-7.7223,-7.7223,-7.8031,-7.8882,-7.9721,-8.0514,-8.1299,-8.2223,-8.2994,-8.3801,-8.4609,-8.5416,-8.6224,-8.6958,-8.6995,-8.6995,-8.6811,-8.5233,-8.4894,-8.5163,-8.3781,-8.3301,-8.349,-5.2283,-5.1994,-5.1754,-5.1754,-5.1754,-5.1754,-5.1754,-5.1754,0.0,0.0,0.0,0.0,0.0,-5.1754,-5.1754,0.0,0.0,-5.1754,-5.1754,-5.1754,0.0,0.0,0.0,-5.5047,0.0,0.0,-5.8893,-5.9386,-5.9866,-6.0337,-6.0978,-6.1684,-6.2177,-6.2428,-6.2832,-6.2716,0.0,0.0,0.0,0.0,0.0,-6.1472,-6.1994,0.0,0.0,-6.2441,-6.2441,-6.2587,0.0,-6.2761,-6.3312,-6.4038,-6.4038,-6.4473,-6.4996,-6.4996,-6.5222,0.0,0.0,0.0,-6.715,-6.882,0.0,0.0,0.0,0.0,0.0,0.0,0.0,0.0,0.0,-6.6617,-6.6523,-6.6301,-6.6459,-6.6523,0.0,0.0,0.0,0.0,0.0,0.0,0.0,0.0,0.0,-7.7065,-7.7223,-7.7223,0.0,-7.7223,-7.7223,-7.7223,-7.7223,-7.7223,-7.7223,-7.8635,-7.9408,-7.9721,-8.1089,-8.1952,-8.2223,-8.303,-8.3838,-8.4646,-8.5453,-8.6261,-8.6995,-8.6995,-8.6995,-8.6953,-8.6241,-8.5782,-8.5261,-8.3839,-8.3726,-8.4448,-5.2836,-5.2836,-5.2716,-5.2331,-5.2283,-5.2283,0.0,0.0,0.0,0.0,-5.2283,0.0,-5.2283,0.0,-5.2283,0.0,-5.2283,-5.2283,-5.2283,-5.2283,0.0,-5.2283,-5.4085,0.0,0.0,0.0,0.0,0.0,-5.9687,-6.0325,-6.0979,-6.1565,-6.2066,-6.2324,-6.2864,-6.2593,-6.204,-6.2822,-6.2367,0.0,0.0,-6.1739,0.0,0.0,-6.3236,-6.308,0.0,-6.3225,-6.3428,-6.3428,-6.3864,-6.4386,-6.4386,-6.4648,-6.4996,-6.4996,-6.4996,-6.5222,-6.657,-6.643,0.0,-6.7848,-6.7541,0.0,-6.7174,0.0,0.0,0.0,0.0,0.0,0.0,-6.6617,-6.6617,-6.6617,-6.6617,-6.6691,0.0,-6.8004,0.0,0.0,0.0,0.0,0.0,0.0,-7.5299,-7.703,-7.7223,-7.7223,0.0,0.0,-7.7223,-7.7223,-7.7223,-7.7402,-7.7632,-7.9009,-7.9839,-8.0143,-8.1579,-8.2333,-8.2663,-8.3471,-8.4278,-8.5086,-8.5894,-8.6518,-8.6995,-8.6995,-8.7132,-8.7254,-8.682,-8.6452,-8.5901,-8.47,-8.4654,-8.5194,-5.3822,-5.3822,-5.351,-5.2524,-5.2355,0.0,0.0,0.0,-5.2355,0.0,-5.2355,-5.2355,-5.2355,-5.2355,-5.2355,-5.2355,-5.2355,-5.2355,-5.2355,-5.2355,0.0,0.0,-5.3492,-5.4042,-5.4042,0.0,0.0,0.0,0.0,-6.0319,-6.096,-6.154,-6.2192,-6.2886,-6.2886,-6.2549,-6.1884,-6.1884,-6.1548,-6.1071,-6.1632,-6.222,-6.2886,-6.3516,-6.345,-6.3072,-6.3196,-6.3574,-6.4096,-6.4096,-6.4473,-6.4996,-6.4996,-6.4996,-6.4996,-6.4996,-6.4996,-6.5094,-6.5094,-6.5912,-6.6664,-6.6143,0.0,0.0,0.0,0.0,-6.6617,0.0,0.0,0.0,0.0,0.0,-6.6617,-6.6617,-6.6586,-6.7078,-6.8004,-6.9024,-7.0103,0.0,0.0,0.0,0.0,-7.4912,-7.5568,-7.712,-7.7223,-7.7223,0.0,0.0,-7.7223,-7.7223,-7.7223,-7.7685,-7.8504,-7.9329,-8.0143,-8.0911,-8.1818,-8.2663,-8.3434,-8.4278,-8.5086,-8.582,-8.6664,-8.6995,-8.6995,-8.6995,-8.7365,-8.7824,-8.7105,-8.7004,-8.7146,-8.6312,-8.5833,-8.5705,-5.3822,-5.3822,-5.3726,0.0,-5.3413,-5.3413,0.0,0.0,0.0,0.0,-5.3413,-5.3413,-5.3413,-5.3413,-5.3413,-5.3413,-5.3413,0.0,0.0,0.0,0.0,-5.3413,-5.4574,-5.516,-5.516,-5.7436,-5.856,-5.856,0.0,-6.0675,-6.0811,-6.1464,-6.1923,-6.2058,-6.262,-6.2536,-6.1836,-6.2368,-6.2285,-6.1614,-6.1271,-6.1544,0.0,0.0,-6.2529,-6.3062,-6.4121,-6.459,-6.4735,-6.4735,-6.4851,-6.4996,-6.4996,-6.4996,-6.4996,-6.4996,-6.5446,-6.6168,-6.6939,-6.7147,-6.7239,-6.779,-6.7431,-6.6807,0.0,0.0,0.0,0.0,0.0,0.0,0.0,0.0,0.0,-6.6617,-6.7253,-6.8104,-6.9024,-7.0103,0.0,-7.221,0.0,0.0,-7.4843,-7.4912,-7.5568,-7.712,-7.7223,-7.7223,-7.7223,0.0,0.0,-7.7223,-7.7858,-7.8252,-7.8504,-7.9839,-8.0695,-8.0911,-8.2403,-8.3214,-8.3471,-8.4866,-8.56,-8.582,-8.6664,-8.6995,-8.6995,-8.6995,-8.7365,-8.796,-8.818,-8.8116,-8.7676,-8.6188,-8.5584,-8.5551,-5.3822,-5.3822,0.0,-5.3822,0.0,0.0,-5.3822,0.0,0.0,-5.3822,-5.3822,0.0,-5.3822,-5.3822,-5.3822,-5.3822,-5.3822,0.0,-5.3822,0.0,0.0,-5.3822,-5.4397,-5.4843,-5.4843,-5.658,0.0,-5.8302,0.0,-6.0315,-6.0782,-6.1166,-6.1411,-6.1411,-6.1816,-6.1681,-6.1411,-6.1816,-6.1681,-6.1275,-6.0892,-6.1166,0.0,-6.1789,-6.2192,-6.3018,-6.3806,-6.4325,-6.4583,-6.4583,-6.4711,-6.4996,-6.4996,-6.4996,-6.4996,-6.4996,-6.5698,-6.651,-6.7153,-6.7474,-6.7765,-6.7933,-6.7526,-6.6965,-6.6681,-6.6617,-6.6617,0.0,0.0,0.0,0.0,0.0,0.0,-6.6617,-6.7427,-6.847,-6.9409,0.0,0.0,0.0,-7.3326,0.0,-7.4843,-7.5257,-7.5947,-7.712,-7.7223,-7.7223,0.0,0.0,0.0,-7.7223,-7.7719,-7.8252,-7.9044,-7.9916,-8.0768,-8.1474,-8.2794,-8.3581,-8.3985,-8.5233,-8.5967,-8.6334,-8.6811,-8.6995,-8.6995,-8.7298,-8.7746,-8.8309,-8.8442,-8.8319,-8.788,-8.6161,-8.5511,-8.5511,-5.3822,-5.3822,0.0,0.0,0.0,0.0,0.0,-5.3822,0.0,-5.3822,0.0,-5.3822,-5.3822,-5.3822,-5.3822,-5.3822,0.0,-5.3822,-5.3822,-5.3822,-5.3822,-5.3822,-5.3822,-5.3822,-5.3822,-5.4992,-5.6143,0.0,0.0,-5.9595,-6.0782,-6.0782,-6.0782,-6.0782,-6.0782,-6.0782,-6.0782,-6.0782,-6.0782,-6.0782,-6.0782,-6.1166,-6.1681,-6.1681,-6.2086,-6.262,-6.262,-6.3122,-6.3908,-6.3908,-6.4454,-6.4996,-6.4996,-6.4996,-6.4996,-6.4996,-6.5698,-6.6387,-6.651,-6.7481,-6.8117,-6.7548,-6.7559,-6.7407,-6.6744,-6.6617,-6.6617,-6.6617,-6.6617,-6.6617,0.0,0.0,0.0,-6.6923,-6.7695,0.0,0.0,0.0,0.0,0.0,0.0,0.0,-7.5016,-7.5706,-7.643,-7.7154,-7.7223,-7.7223,0.0,0.0,0.0,-7.7367,-7.7456,0.0,-7.9839,0.0,-8.084,-8.237,-8.3177,-8.3985,-8.4792,-8.56,-8.6334,-8.6995,-8.6995,-8.7064,-8.72,-8.7683,-8.8287,-8.8872,-8.8416,-8.8186,-8.788,-8.6275,-8.5588,-8.5511,-5.3918,-5.3822,0.0,0.0,0.0,-5.3822,-5.3822,-5.3822,-5.3822,-5.3822,-5.3822,-5.3822,-5.3822,-5.3822,-5.3822,-5.3822,-5.3822,0.0,0.0,0.0,0.0,-5.3822,-5.3822,-5.3822,-5.3822,-5.4992,-5.6143,0.0,0.0,-5.9595,-6.0782,-6.0782,-6.0782,-6.0782,-6.0782,-6.0782,-6.0782,-6.0782,0.0,-6.0782,-6.0782,-6.0892,-6.1029,-6.1029,-6.1029,-6.1166,-6.1166,-6.2354,-6.3908,-6.3908,-6.4454,-6.4996,-6.4996,-6.4996,-6.4996,-6.4996,-6.5698,-6.651,-6.7396,-6.7984,-6.8375,-6.839,-6.8026,-6.7407,-6.6744,-6.6617,-6.6617,-6.6617,-6.6617,-6.6617,-6.6617,0.0,0.0,0.0,0.0,0.0,0.0,0.0,0.0,0.0,0.0,-7.5775,0.0,-7.6051,-7.643,0.0,0.0,0.0,0.0,0.0,0.0,0.0,0.0,0.0,0.0,0.0,-8.2215,-8.3214,-8.4022,-8.4792,-8.56,-8.6407,-8.6885,-8.6995,-8.6995,-8.7298,-8.7746,-8.7873,-8.8521,-8.9502,-8.9196,-8.8683,-8.7957,-8.6963,-8.6123,-8.5511,-5.4327,0.0,0.0,0.0,0.0,0.0,0.0,-5.3822,0.0,-5.3822,-5.3822,-5.3822,-5.3822,-5.3822,-5.3822,-5.3822,-5.3822,-5.3822,-5.3822,-5.3822,-5.3822,-5.3822,-5.3822,-5.3822,-5.3822,-5.4397,-5.5287,-5.6435,0.0,0.0,-5.99,-6.048,-6.0782,-6.0782,-6.0782,-6.0782,0.0,0.0,0.0,-6.0782,-6.0782,-6.0782,-6.0782,-6.0782,-6.0782,-6.0782,-6.0782,-6.1681,-6.2858,-6.2858,-6.3254,-6.3936,-6.4325,-6.4454,-6.4454,-6.4839,-6.6073,-6.7275,-6.7789,-6.8729,-6.9503,-6.9257,-6.8924,-6.8387,-6.7344,-6.7123,-6.7028,-6.6681,-6.6617,-6.6712,-6.706,-6.6839,0.0,0.0,0.0,0.0,0.0,0.0,-7.4499,0.0,0.0,0.0,0.0,0.0,0.0,0.0,0.0,0.0,0.0,0.0,0.0,0.0,0.0,0.0,0.0,0.0,0.0,-8.3434,-8.4242,-8.5013,-8.582,-8.6628,-8.6995,-8.6995,-8.6995,-8.7328,-8.796,-8.8578,-8.9376,-9.0136,-8.9554,-8.8797,-8.7995,-8.7116,-8.6275,-8.5511,0.0,-5.4688,0.0,0.0,-5.3894,0.0,-5.3822,-5.3822,-5.3822,-5.3822,-5.3822,-5.3822,-5.3822,-5.3822,-5.3822,-5.3822,-5.3822,-5.3822,-5.3822,-5.3822,-5.3822,-5.3822,-5.3822,-5.3822,-5.3822,-5.3822,-5.4397,0.0,0.0,0.0,-5.8824,-6.0123,-6.0782,0.0,0.0,0.0,0.0,0.0,-6.0782,-6.0782,-6.0782,-6.0782,-6.0782,-6.0782,-6.0782,-6.0782,-6.0782,-6.1166,-6.1546,-6.1546,-6.222,-6.3018,-6.3516,-6.3647,-6.3777,-6.4325,-6.5948,-6.7396,-6.7638,-6.9093,-7.0375,-6.9872,-6.9683,-6.9367,-6.8103,-6.7818,-6.7692,-6.7155,-6.706,-6.7218,-6.7723,-6.7589,0.0,0.0,0.0,0.0,0.0,0.0,0.0,0.0,0.0,0.0,-7.6361,0.0,0.0,0.0,0.0,0.0,0.0,0.0,0.0,0.0,0.0,-8.0402,-8.116,0.0,-8.2199,0.0,-8.4462,-8.527,-8.6077,-8.6701,-8.6995,-8.7031,-8.7132,-8.7618,-8.8346,-8.9427,-9.0167,-9.0555,-8.9829,-8.9065,-8.8262,-8.7384,-8.6543,-8.5741,0.0,0.0,0.0,0.0,0.0,0.0,0.0,-5.3822,-5.3822,-5.3822,-5.3822,-5.3822,-5.3822,-5.3822,-5.3822,-5.3822,-5.3822,-5.3822,-5.3822,-5.3822,-5.3822,-5.3822,-5.3822,-5.3822,-5.3822,-5.3822,-5.4397,0.0,0.0,-5.7591,0.0,-5.9935,0.0,0.0,0.0,0.0,0.0,-6.0782,-6.0782,-6.0782,-6.0782,-6.0782,-6.0782,-6.0782,-6.0782,-6.0782,-6.0782,-6.092,-6.0892,-6.0892,-6.1816,-6.2886,-6.3018,-6.3018,-6.3018,-6.315,-6.4268,-6.586,-6.6727,-6.8206,-6.9516,-6.9619,-6.9683,-6.9493,-6.8766,-6.8608,-6.8577,-6.8513,-6.8482,-6.8513,-6.8577,-6.9308,-7.0285,0.0,0.0,0.0,0.0,0.0,-7.6258,-7.6913,0.0,0.0,0.0,-7.7189,0.0,0.0,0.0,0.0,0.0,0.0,0.0,-8.0623,0.0,-8.123,-8.2055,-8.2788,0.0,-8.4499,-8.5306,-8.6114,-8.6885,-8.6995,-8.6995,-8.6995,-8.7591,-8.8463,-8.9578,-9.0212,-9.0551,-9.0593,-9.0517,-8.9944,-8.9103,-8.8262,-8.7422,-8.6581,0.0,0.0,0.0,0.0,0.0,0.0,0.0,-5.4015,-5.3822,-5.3822,-5.3822,-5.3822,-5.3822,-5.3822,-5.3822,-5.3822,-5.3822,-5.3822,-5.3822,-5.3822,-5.3822,-5.3822,-5.3822,-5.3822,-5.3822,-5.3822,-5.4122,0.0,0.0,0.0,0.0,0.0,0.0,0.0,0.0,-6.0782,-6.0782,-6.0782,-6.0782,-6.0782,-6.0782,-6.0782,-6.0782,-6.0782,-6.0782,-6.0782,-6.0782,-6.0782,-6.0782,-6.0782,-6.1166,-6.1681,-6.2086,-6.2192,-6.2459,-6.3749,-6.5105,-6.6481,-6.7728,-6.9093,-7.0212,-7.0298,-7.0346,-7.0157,-6.9462,-6.9272,-6.9177,-6.8766,-6.8703,-6.9015,-7.0012,-7.0252,-7.1117,0.0,0.0,0.0,0.0,0.0,0.0,-7.7189,0.0,-7.7223,0.0,0.0,0.0,0.0,0.0,0.0,0.0,0.0,0.0,-8.084,0.0,-8.2105,-8.292,-8.3251,-8.4058,-8.5306,-8.5637,-8.6224,-8.6995,-8.6995,-8.7163,-8.7554,-8.8578,-8.9272,-8.9763,-9.034,-9.0593,-9.0593,-9.0593,-9.0058,-8.9256,-8.895,-8.7957,-8.6772,-5.3703,0.0,-5.5454,0.0,-5.5193,-5.4784,-5.464,-5.4303,-5.3991,-5.3846,-5.3822,-5.3822,-5.3822,-5.3822,-5.3822,-5.3822,-5.3822,-5.3822,-5.3822,-5.3822,-5.3822,-5.3822,-5.3822,0.0,-5.3822,-5.3822,-5.3822,-5.3822,-5.4992,0.0,0.0,0.0,0.0,0.0,-6.0782,-6.0782,-6.0782,-6.0782,-6.0782,-6.0782,-6.0782,-6.0782,-6.0782,-6.0782,-6.0782,-6.0782,-6.0782,-6.0782,-6.0782,-6.0782,-6.0782,-6.0892,-6.1411,-6.1546,-6.1923,-6.372,-6.5202,-6.6697,-6.8206,-6.9557,-7.0532,-7.0789,-7.0789,-7.0519,-7.0125,-6.9999,-6.9872,-6.9398,-6.96,-7.0128,-7.1431,-7.17,-7.2614,-7.4911,0.0,0.0,0.0,0.0,0.0,-7.7223,-7.7223,-7.7223,-7.7223,-7.7223,0.0,0.0,0.0,0.0,0.0,0.0,0.0,0.0,0.0,0.0,0.0,-8.3654,-8.4462,-8.5783,-8.604,-8.6444,-8.7031,-8.7163,-8.7554,-8.8265,-8.9272,-8.9811,-8.9991,-9.0427,-9.0593,-9.0593,-9.0593,-9.0211,-8.9638,-8.9409,-8.8415,-8.7154,-5.3997,-5.3911,-5.4071,-5.5889,-5.577,-5.5217,-5.4688,-5.4592,-5.4399,-5.3894,-5.3822,-5.3822,-5.3822,-5.3822,-5.3822,-5.3822,-5.3822,-5.3822,-5.3822,-5.3822,-5.3822,0.0,0.0,-5.3822,-5.3822,-5.3822,-5.3822,-5.3822,0.0,0.0,-5.4787,0.0,-5.9035,-6.0782,-6.0782,-6.0782,-6.0782,-6.0782,-6.0782,-6.0782,-6.0782,-6.0782,-6.0782,-6.0782,-6.0782,-6.0782,-6.0782,-6.0782,-6.0782,-6.0782,-6.0782,-6.0782,-6.0782,-6.0782,-6.1029,-6.2403,-6.4052,-6.5676,-6.7306,-6.8797,-6.9933,-7.0645,-7.0532,-7.0419,-7.0757,-7.0757,-7.0757,-7.0757,-7.1657,-7.2346,-7.2379,-7.4173,-7.5303,-7.4627,0.0,0.0,0.0,0.0,0.0,-7.7223,-7.7223,-7.7223,-7.7223,0.0,0.0,0.0,0.0,0.0,0.0,0.0,0.0,-8.2186,-8.2186,0.0,-8.3398,-8.4205,-8.4976,-8.5783,-8.6628,-8.6995,-8.6995,-8.7618,-8.8205,-8.8804,-8.9427,-9.0037,-9.0593,-9.0593,-9.0593,-9.0593,-9.0593,-9.0593,-9.0478,-8.9638,-8.8797,-8.7957,-5.2182,-5.337,-5.4604,-5.6439,-5.6323,-5.5914,-5.5746,-5.5097,-5.4544,-5.4375,-5.4039,-5.3822,-5.3822,-5.3822,-5.3822,0.0,-5.3822,-5.3822,0.0,-5.3822,-5.3822,-5.3822,-5.3822,-5.3822,-5.3822,-5.3822,-5.3822,-5.3822,0.0,0.0,0.0,-5.8016,-5.9408,-6.0782,-6.0782,-6.0782,-6.0782,-6.0782,-6.0782,-6.0782,-6.0782,-6.0782,-6.0782,-6.0782,-6.0782,-6.0782,-6.0782,-6.0782,-6.0782,-6.0782,-6.0782,-6.0782,-6.0782,-6.0782,-6.1275,-6.3562,-6.4694,-6.5831,-6.8206,-6.9441,-7.0161,-7.0419,-7.0532,-7.0645,-7.0789,-7.0789,-7.0789,-7.0789,-7.1689,-7.2591,-7.3394,-7.4669,-7.579,-7.6302,-7.6871,0.0,0.0,0.0,0.0,-7.7223,-7.7223,-7.7223,0.0,-7.7685,0.0,0.0,0.0,0.0,0.0,0.0,0.0,0.0,-8.2737,0.0,-8.4205,-8.5013,-8.582,-8.6628,-8.6885,-8.7231,-8.7618,-8.8265,-8.8859,-8.9427,-9.0037,-9.0427,-9.0593,-9.0593,-9.0593,-9.0593,-9.0593,-9.0593,-9.0593,-9.0287,-8.9638,-8.8797,-5.1179,-5.2514,-5.4161,-5.6518,-5.6756,-5.6468,-5.6275,-5.565,-5.5073,-5.4664,-5.4327,-5.4039,-5.3846,-5.3822,0.0,-5.3822,-5.3822,-5.3822,-5.3822,-5.3822,-5.3822,-5.3822,-5.3822,-5.3822,-5.3822,0.0,0.0,-5.3822,-5.3822,-5.4843,-5.6725,-5.7446,-5.8586,-6.0177,-6.0177,-6.0342,-6.0782,-6.0782,-6.0782,-6.0782,-6.0782,-6.0782,-6.0782,-6.0782,-6.0782,-6.0782,-6.0782,-6.0782,-6.0782,-6.0782,-6.0782,-6.0782,-6.0782,-6.1138,-6.203,-6.4181,-6.5329,-6.6451,-6.8741,-6.9588,-6.9818,-7.0047,-7.0306,-7.0532,-7.0789,-7.0789,-7.0789,-7.0789,-7.1982,-7.3187,-7.3871,-7.519,-7.6392,-7.7133,-7.7223,-7.7223,-7.7223,0.0,0.0,0.0,0.0,0.0,0.0,-7.8031,0.0,0.0,0.0,0.0,0.0,0.0,0.0,-8.2627,-8.3141,0.0,-8.5049,-8.5527,-8.6187,-8.6995,-8.7231,-8.7526,-8.7898,-8.8748,-8.9324,-8.9714,-9.034,-9.0593,-9.0593,-9.0593,-9.0593,-9.0593,-9.0593,-9.0593,-9.0593,-9.0593,-9.0058,-8.9179,-5.0843,-5.1682,0.0,0.0,-5.6861,0.0,-5.6371,-5.6251,-5.5866,-5.4856,-5.4664,-5.4423,-5.3918,-5.3846,-5.3822,-5.3822,0.0,0.0,0.0,-5.3822,-5.3822,-5.3822,-5.3822,-5.3822,-5.3822,-5.3822,-5.3822,-5.3822,-5.3822,-5.4397,-5.5582,-5.5582,-5.6725,-5.8868,-5.9008,-5.9595,-6.0618,-6.0755,-6.0782,-6.0782,-6.0782,-6.0782,-6.0782,-6.0782,-6.0782,-6.0782,-6.0782,-6.0782,-6.0782,-6.0782,-6.0782,-6.0782,-6.0892,-6.1896,-6.3169,-6.4438,-6.586,-6.7245,-6.8889,-6.9123,-6.9123,-6.9588,-6.9787,-7.0047,-7.0645,-7.0789,-7.0789,-7.0869,-7.2591,-7.3972,-7.4073,-7.5798,-7.7223,-7.7223,-7.7223,-7.7223,-7.7223,0.0,0.0,0.0,0.0,0.0,0.0,-7.8116,-7.8882,0.0,0.0,0.0,0.0,0.0,-8.2627,-8.3398,-8.3471,-8.4242,-8.5783,-8.5857,-8.6261,-8.6995,-8.7618,-8.7898,-8.8022,-8.9167,-8.9714,-8.9763,-9.034,-9.0593,-9.0593,-9.0593,-9.0593,-9.0593,-9.0593,-9.0593,-9.0593,-9.0593,-9.0096,-8.9256,0.0,0.0,-5.2348,-5.451,-5.6013,-5.6973,-5.6852,-5.6492,-5.6131,-5.589,-5.5121,-5.4568,-5.4423,-5.4063,-5.3822,-5.3822,-5.3822,-5.3822,-5.3822,-5.3822,-5.3822,-5.3822,-5.3822,-5.3822,-5.3822,-5.3822,-5.3822,-5.3822,-5.3822,-5.4397,-5.5582,-5.5582,-5.6289,-5.7707,-5.8586,-5.9149,-5.9455,-6.048,-6.0782,-6.0782,-6.0782,-6.0782,-6.0782,-6.0782,-6.0782,-6.0782,-6.0782,-6.0782,-6.0782,-6.0782,-6.0782,-6.1029,-6.203,-6.33,-6.4438,-6.4694,-6.586,-6.7245,-6.8623,-6.9123,-6.9387,-6.9472,-6.9818,-7.0161,-7.0419,-7.0645,-7.0981,-7.1874,-7.3083,-7.4273,-7.5094,-7.63,-7.7223,-7.7223,-7.7223,-7.7223,-7.7223,-7.7223,0.0,0.0,-7.7223,-7.7456,-7.8116,-7.8928,-7.9762,0.0,0.0,0.0,0.0,-8.2774,-8.3214,-8.3398,-8.4022,-8.4792,-8.5783,-8.6407,-8.6811,-8.6995,-8.7618,-8.8144,-8.8578,-8.9376,-8.9944,-9.0383,-9.0551,-9.0593,-9.0593,-9.0593,-9.0593,-9.0593,-9.0593,-9.0593,-9.0593,-9.0593,-9.0478,-9.0173,-4.8654,-5.0505,-5.2182,-5.3997,-5.5852,-5.7021,-5.7021,-5.678,-5.6516,-5.6275,-5.5506,-5.488,-5.464,-5.4135,-5.3822,-5.3822,-5.3822,-5.3822,-5.3822,-5.3822,-5.3822,-5.3822,-5.3822,-5.3822,-5.3822,-5.3822,-5.3822,-5.3822,-5.3822,-5.4122,-5.4843,-5.4843,-5.5704,-5.7303,-5.8018,-5.8868,-5.99,-6.048,-6.0782,-6.0782,-6.0782,-6.0782,-6.0782,-6.0782,-6.0782,-6.0782,-6.0782,-6.0782,-6.0782,-6.0782,-6.0782,-6.1029,-6.2403,-6.3663,-6.4949,-6.561,-6.6757,-6.7998,-6.8741,-6.9006,-6.924,-6.9387,-6.9703,-7.0161,-7.0306,-7.0949,-7.1689,-7.2272,-7.3668,-7.4865,-7.5479,-7.6519,-7.7223,-7.7223,-7.7223,-7.7223,-7.7223,-7.7223,0.0,-7.7223,-7.7544,-7.7945,-7.842,-7.9565,-8.044,-8.084,0.0,0.0,-8.2737,-8.3177,-8.3581,-8.3948,-8.4719,-8.5527,-8.6334,-8.6775,-8.6995,-8.6995,-8.7898,-8.8463,-8.8804,-8.9714,-9.0295,-9.0593,-9.0593,-9.0593,-9.0593,-9.0593,-9.0593,-9.0593,-9.0593,-9.0593,-9.0593,-9.0593,-9.0593,-9.0478,-4.8311,-5.0336,-5.2182,-5.367,-5.5668,-5.7021,-5.7021,-5.7021,-5.6852,-5.6419,-5.5794,-5.5217,-5.4784,-5.4183,-5.3822,-5.3822,-5.3822,-5.3822,-5.3822,-5.3822,-5.3822,-5.3822,-5.3822,-5.3822,-5.3822,-5.3822,-5.3822,-5.3822,-5.3822,-5.3822,-5.3822,-5.3822,-5.4819,-5.687,-5.7159,-5.8444,-6.0315,-6.0618,-6.0782,-6.0782,-6.0782,-6.0782,-6.0782,-6.0782,-6.0782,-6.0782,-6.0782,-6.0782,-6.0782,-6.0782,-6.0892,-6.1275,-6.2669,-6.4052,-6.5329,-6.6757,-6.7998,-6.8889,-6.8889,-6.8889,-6.9006,-6.924,-6.9588,-6.9818,-7.0161,-7.1328,-7.2379,-7.2591,-7.4173,-7.5669,-7.5798,-7.6611,-7.7223,-7.7223,-7.7223,-7.7223,-7.7223,0.0,-7.7223,-7.7223,-7.7945,-7.8587,-7.8635,-7.9992,-8.0982,-8.1089,-8.1892,-8.27,0.0,-8.3654,-8.4095,-8.4756,-8.5416,-8.6187,-8.6995,-8.6995,-8.7064,-8.7132,-8.8265,-8.8859,-8.8969,-9.0083,-9.0593,-9.0593,-9.0593,-9.0593,-9.0593,-9.0593,-9.0593,-9.0593,-9.0593,-9.0593,-9.0593,-9.0593,-9.0593,-9.052,-4.6638,-4.9338,-5.1849,-5.2015,-5.4835,-5.7021,-5.7021,-5.7021,-5.6997,-5.69,-5.6011,-5.5361,-5.5289,-5.4399,-5.3822,-5.3822,-5.3822,-5.3822,-5.3822,-5.3822,-5.3822,-5.3822,-5.3822,-5.3822,-5.3822,-5.3822,-5.3822,-5.3822,-5.3822,-5.3822,-5.3822,-5.3822,-5.3948,-5.4397,-5.6435,-5.7446,-5.8018,-5.99,-6.0782,-6.0782,-6.0782,-6.0782,-6.0782,-6.0782,-6.0782,-6.0782,-6.0782,-6.0782,-6.0782,-6.0782,-6.1519,-6.2773,-6.4052,-6.5455,-6.6879,-6.8118,-6.8772,-6.8889,-6.8889,-6.8889,-6.8889,-6.9006,-6.924,-6.9472,-6.9818,-7.0965,-7.2314,-7.3464,-7.4768,-7.5892,-7.6793,-7.7133,-7.7223,-7.7223,-7.7223,-7.7223,-7.7223,0.0,-7.7223,-7.7223,-7.7945,-7.8718,-7.9487,-8.0366,-8.123,-8.1952,-8.2744,-8.3287,-8.3398,-8.4682,-8.549,-8.56,-8.571,-8.6187,-8.6995,-8.6995,-8.7231,-8.7746,-8.8463,-8.9076,-8.9578,-9.0257,-9.0593,-9.0593,-9.0593,-9.0593,-9.0593,-9.0593,-9.0593,-9.0593,-9.0593,-9.0593,-9.0593,-9.0593,-9.0593,-9.0635,-4.6308,-4.9168,-5.1682,-5.1682,-5.4673,-5.7021,-5.7021,-5.7021,-5.7021,-5.7021,-5.6083,-5.5385,-5.5385,-5.4447,-5.3822,-5.3822,-5.3822,-5.3822,-5.3822,-5.3822,-5.3822,-5.3822,-5.3822,-5.3822,-5.3822,-5.3822,-5.3822,-5.3822,-5.3822,-5.3822,-5.3822,-5.3822,-5.4122,-5.4843,-5.658,-5.759,-5.8302,-6.0039,-6.0782,-6.0782,-6.0782,-6.0782,-6.0782,-6.0782,-6.0782,-6.0782,-6.0782,-6.0782,-6.0782,-6.0782,-6.1654,-6.3037,-6.431,-6.5735,-6.7123,-6.8505,-6.8889,-6.8889,-6.8889,-6.8889,-6.8889,-6.8889,-6.9123,-6.9588,-7.0519,-7.1778,-7.3192,-7.4571,-7.5703,-7.6611,-7.7133,-7.7223,-7.7223,-7.7223,-7.7223,0.0,0.0,-7.7223,-7.7367,-7.7858,-7.8635,-7.9487,-8.0292,-8.1089,-8.1965,-8.281,-8.3214,-8.3801,-8.4646,-8.538,-8.6004,-8.6444,-8.6444,-8.6628,-8.6995,-8.7365,-8.7618,-8.7898,-8.8859,-8.9427,-8.9714,-9.034,-9.0593,-9.0593,-9.0593,-9.0593,-9.0593,-9.0593,-9.0593,-9.0593,-9.0593,-9.0593,-9.0593,-9.0593,-9.0593,-9.0676,-4.6813,-4.9488,-5.1849,-5.2182,-5.4859,-5.7021,-5.7021,-5.7021,-5.7021,-5.7021,-5.6083,-5.5385,-5.5385,-5.4447,-5.3822,-5.3822,-5.3822,-5.3822,-5.3822,-5.3822,-5.3822,-5.3822,-5.3822,-5.3822,-5.3822,-5.3822,-5.3822,-5.3822,-5.3822,-5.3822,-5.3822,-5.3822,-5.4397,-5.5582,-5.6725,-5.785,-5.9149,-6.0315,-6.0782,-6.0782,-6.0782,-6.0782,-6.0782,-6.0782,-6.0782,-6.0782,-6.0782,-6.0782,-6.092,-6.1138,-6.2164,-6.3533,-6.4822,-6.6233,-6.7517,-6.8623,-6.8889,-6.8889,-6.8889,-6.8889,-6.8889,-6.8889,-6.9325,-7.0016,-7.1155,-7.2704,-7.414,-7.5287,-7.6392,-7.7223,-7.7223,-7.7223,-7.7223,-7.7223,0.0,0.0,0.0,-7.7367,-7.7772,-7.842,-7.9408,-8.0218,-8.084,-8.1715,-8.2517,-8.3361,-8.3581,-8.4315,-8.571,-8.5967,-8.6371,-8.6995,-8.6995,-8.6995,-8.6995,-8.7554,-8.796,-8.8144,-8.922,-8.9763,-8.9944,-9.0383,-9.0593,-9.0593,-9.0593,-9.0593,-9.0593,-9.0593,-9.0593,-9.0593,-9.0593,-9.0593,-9.0593,-9.0593,-9.0635,-9.0759,-4.8482,-5.0336,-5.2182,-5.3834,-5.5668,-5.7021,-5.7021,-5.7021,-5.7021,-5.7021,-5.6083,-5.5385,-5.5385,-5.4447,-5.3822,-5.3822,-5.3822,-5.3822,-5.3822,-5.3822,-5.3822,-5.3822,-5.3822,-5.3822,-5.3822,-5.3822,-5.3822,-5.3822,-5.3822,-5.3822,-5.3822,-5.3822,-5.4397,-5.5582,-5.6725,-5.785,-5.9149,-6.0315,-6.0782,-6.0782,-6.0782,-6.0782,-6.0782,-6.0782,-6.0782,-6.0782,-6.0782,-6.0782,-6.1029,-6.227,-6.3562,-6.4949,-6.6357,-6.7638,-6.8772,-6.8889,-6.8889,-6.8889,-6.8889,-6.8889,-6.8889,-6.8889,-6.9756,-7.0631,-7.1076,-7.2946,-7.4768,-7.519,-7.63,-7.7223,-7.7223,-7.7223,-7.7223,-7.7223,0.0,0.0,-7.7223,-7.7858,-7.842,-7.8504,-7.9875,-8.084,-8.0911,-8.1715,-8.2517,-8.3361,-8.4095,-8.4903,-8.5747,-8.6518,-8.6958,-8.6995,-8.6995,-8.6995,-8.6995,-8.7554,-8.8205,-8.8748,-8.9376,-8.9991,-9.0551,-9.0551,-9.0593,-9.0593,-9.0593,-9.0593,-9.0593,-9.0593,-9.0593,-9.0593,-9.0593,-9.0593,-9.0593,-9.0593,-9.0798,-9.0989,-4.7141,-4.9658,-5.1849,-5.2514,-5.5021,-5.7021,-5.7021,-5.7021,-5.7021,-5.7021,-5.6083,-5.5385,-5.5385,-5.4447,-5.3822,-5.3822,-5.3822,-5.3822,-5.3822,-5.3822,-5.3822,-5.3822,-5.3822,-5.3822,-5.3822,-5.3822,-5.3822,-5.3822,-5.3822,-5.3822,-5.3822,-5.4546,-5.514,-5.5729,-5.759,-5.8586,-5.9149,-6.0315,-6.0782,-6.0782,-6.0782,-6.0782,-6.0782,-6.0782,-6.0782,-6.0782,-6.0782,-6.0782,-6.1029,-6.2403,-6.3663,-6.5076,-6.651,-6.7879,-6.8889,-6.8889,-6.8889,-6.8889,-6.8889,-6.8889,-6.8889,-6.8889,-6.9756,-7.0822,-7.1886,-7.3533,-7.5094,-7.5986,-7.6702,-7.7223,-7.7223,-7.7223,-7.7223,-7.7223,0.0,-7.7223,-7.7223,-7.7945,-7.867,-7.917,-8.0218,-8.1123,-8.1647,-8.2495,-8.3287,-8.4095,-8.4903,-8.571,-8.6518,-8.6848,-8.6995,-8.6995,-8.6995,-8.7163,-8.7554,-8.8144,-8.8748,-8.9376,-8.9991,-9.0383,-9.0593,-9.0593,-9.0593,-9.0593,-9.0593,-9.0593,-9.0593,-9.0593,-9.0593,-9.0593,-9.0593,-9.0593,-9.0593,-9.0593,-9.0759,-9.1026,-4.6967,-4.9658,-5.1849,-5.2348,-5.5021,-5.7021,-5.7021,-5.7021,-5.7021,-5.7021,-5.6083,-5.5385,-5.5385,-5.4447,-5.3822,-5.3822,-5.3822,-5.3822,-5.3822,-5.3822,-5.3822,-5.3822,-5.3822,-5.3822,-5.3822,-5.3822,-5.3822,-5.3822,-5.3822,-5.3822,-5.3822,-5.4992,-5.5729,-5.6289,-5.816,-5.9149,-5.9595,-6.048,-6.0782,-6.0782,-6.0782,-6.0782,-6.0782,-6.0782,-6.0782,-6.0782,-6.0782,-6.1029,-6.1654,-6.3037,-6.431,-6.5735,-6.7123,-6.8148,-6.8889,-6.8889,-6.8889,-6.8889,-6.8889,-6.8889,-6.8889,-6.8889,-7.0067,-7.1342,-7.2388,-7.3972,-7.5608,-7.6519,-7.6918,-7.7223,-7.7223,-7.7223,-7.7223,-7.7223,-7.7223,-7.7313,-7.7544,-7.8336,-7.917,-7.9992,-8.0768,-8.1652,-8.2488,-8.3104,-8.3838,-8.4903,-8.549,-8.6151,-8.6958,-8.6995,-8.6995,-8.6995,-8.6995,-8.7394,-8.8205,-8.8578,-8.9076,-8.9714,-9.034,-9.0593,-9.0593,-9.0593,-9.0593,-9.0593,-9.0593,-9.0593,-9.0593,-9.0593,-9.0593,-9.0593,-9.0593,-9.0593,-9.0593,-9.0717,-9.0877,-9.1129,-4.8654,-5.0505,-5.2182,-5.3997,-5.5852,-5.7021,-5.7021,-5.7021,-5.7021,-5.7021,-5.6083,-5.5385,-5.5385,-5.4447,-5.3822,-5.3822,-5.3822,-5.3822,-5.3822,-5.3822,-5.3822,-5.3822,-5.3822,-5.3822,-5.3822,-5.3822,-5.3822,-5.3822,-5.3822,-5.3822,-5.3822,-5.4992,-5.6143,-5.7303,-5.8444,-5.9734,-6.0782,-6.0782,-6.0782,-6.0782,-6.0782,-6.0782,-6.0782,-6.0782,-6.0782,-6.0782,-6.0782,-6.1654,-6.3037,-6.431,-6.5735,-6.7123,-6.8505,-6.8889,-6.8889,-6.8889,-6.8889,-6.8889,-6.8889,-6.8889,-6.8889,-6.8889,-7.0599,-7.2314,-7.2314,-7.4505,-7.6495,-7.6495,-7.6862,-7.7223,-7.7223,-7.7223,-7.7223,-7.7223,-7.7223,-7.7544,-7.8336,-7.917,-7.9992,-8.084,-8.1715,-8.2517,-8.3324,-8.3434,-8.4058,-8.5673,-8.5783,-8.6151,-8.6958,-8.6995,-8.6995,-8.6995,-8.6995,-8.7554,-8.8804,-8.8804,-8.9114,-8.9714,-9.034,-9.0593,-9.0593,-9.0593,-9.0593,-9.0593,-9.0593,-9.0593,-9.0593,-9.0593,-9.0593,-9.0593,-9.0593,-9.0593,-9.0635,-9.0915,-9.1129,-9.1354,-4.6967,-4.8482,-5.0336,-5.216,-5.3997,-5.5506,-5.6861,-5.7021,-5.7021,-5.7021,-5.6083,-5.5385,-5.5385,-5.4447,-5.3822,-5.3822,-5.3822,-5.3822,-5.3822,-5.3822,-5.3822,-5.3822,-5.3822,-5.3822,-5.3822,-5.3822,-5.3822,-5.3822,-5.3822,-5.3822,-5.3822,-5.5851,-5.7014,-5.7446,-5.9315,-6.048,-6.0782,-6.0782,-6.0782,-6.0782,-6.0782,-6.0782,-6.0782,-6.0782,-6.0782,-6.0892,-6.1896,-6.2403,-6.3169,-6.5484,-6.651,-6.7123,-6.8505,-6.8889,-6.8889,-6.8889,-6.8889,-6.8889,-6.8889,-6.9526,-7.0067,-7.0067,-7.1265,-7.2526,-7.329,-7.4966,-7.6309,-7.6495,-7.6736,-7.7009,-7.7133,-7.7223,-7.7223,-7.7223,-7.7223,-7.7544,-7.8336,-7.917,-7.9992,-8.084,-8.1715,-8.2517,-8.3324,-8.3911,-8.4682,-8.571,-8.6334,-8.6738,-8.6995,-8.6995,-8.6995,-8.6995,-8.7394,-8.8022,-8.8804,-8.8804,-8.9324,-9.034,-9.0508,-9.0593,-9.0593,-9.0593,-9.0593,-9.0593,-9.0593,-9.0593,-9.0593,-9.0593,-9.0593,-9.0593,-9.0593,-9.0593,-9.0635,-9.0915,-9.1129,-9.1354,-4.6308,-4.7814,-4.9488,-5.1347,-5.3176,-5.4835,-5.6678,-5.7021,-5.7021,-5.7021,-5.6083,-5.5385,-5.5385,-5.4447,-5.3822,-5.3822,-5.3822,-5.3822,-5.3822,-5.3822,-5.3822,-5.3822,-5.3822,-5.3822,-5.3822,-5.3822,-5.3822,-5.3822,-5.3822,-5.3822,-5.3822,-5.6143,-5.7303,-5.7446,-5.9761,-6.0782,-6.0782,-6.0782,-6.0782,-6.0782,-6.0782,-6.0782,-6.0782,-6.0782,-6.1138,-6.1654,-6.2536,-6.3533,-6.4694,-6.6357,-6.7245,-6.7879,-6.8623,-6.8889,-6.8889,-6.8889,-6.8889,-6.8889,-6.8889,-6.9756,-7.0711,-7.1155,-7.21,-7.3187,-7.3803,-7.5064,-7.6216,-7.6402,-7.6645,-7.6918,-7.7133,-7.7223,-7.7223,-7.7223,-7.7223,-7.7632,-7.88,-7.9408,-8.0179,-8.1299,-8.1885,-8.2627,-8.3765,-8.4315,-8.5086,-8.6187,-8.6738,-8.6995,-8.6995,-8.6995,-8.7132,-8.7365,-8.7683,-8.8287,-8.9167,-8.9167,-8.9665,-9.0593,-9.0593,-9.0593,-9.0593,-9.0593,-9.0593,-9.0593,-9.0593,-9.0593,-9.0593,-9.0593,-9.0593,-9.0593,-9.0593,-9.0676,-9.0799,-9.1062,-9.1258,-9.1504,-4.6308,-4.7661,-4.9338,-5.1347,-5.3011,-5.4673,-5.6678,-5.7021,-5.6997,-5.6949,-5.6035,-5.5385,-5.5337,-5.4423,-5.3822,-5.3822,-5.3822,-5.3822,-5.3822,-5.3822,-5.3822,-5.3822,-5.3822,-5.3822,-5.3822,-5.3822,-5.3822,-5.3822,-5.3822,-5.3822,-5.3972,-5.6289,-5.7277,-5.759,-5.9761,-6.0782,-6.0782,-6.0782,-6.0782,-6.0782,-6.0782,-6.0782,-6.0755,-6.0892,-6.1789,-6.2773,-6.3037,-6.4822,-6.6879,-6.7001,-6.7879,-6.8889,-6.8889,-6.8889,-6.8889,-6.8889,-6.8889,-6.8889,-6.8976,-6.9839,-7.1044,-7.2207,-7.329,-7.4139,-7.4139,-7.5161,-7.6122,-7.6402,-7.6645,-7.6828,-7.7133,-7.7133,-7.7223,-7.7223,-7.7313,-7.7824,-7.9487,-7.9798,-8.0402,-8.2018,-8.2186,-8.281,-8.4425,-8.4719,-8.5416,-8.6885,-8.6995,-8.6995,-8.6995,-8.6995,-8.7298,-8.7836,-8.796,-8.8521,-8.9714,-8.9763,-9.0037,-9.0593,-9.0593,-9.0593,-9.0593,-9.0593,-9.0593,-9.0593,-9.0593,-9.0593,-9.0593,-9.0593,-9.0593,-9.0593,-9.0593,-9.0759,-9.1026,-9.1226,-9.1475,-9.1747,-4.6308,-4.6638,-4.7986,-5.1179,-5.2015,-5.3341,-5.6518,-5.7021,-5.6876,-5.6468,-5.5818,-5.5241,-5.4832,-5.4207,-5.3822,-5.3822,-5.3822,-5.3822,-5.3822,-5.3822,-5.3822,-5.3822,-5.3822,-5.3822,-5.3822,-5.3822,-5.3822,-5.3822,-5.3822,-5.4248,-5.5287,-5.658,-5.7733,-5.8727,-6.0177,-6.0782,-6.0782,-6.0782,-6.0782,-6.0782,-6.0782,-6.0782,-6.0892,-6.203,-6.2536,-6.3037,-6.5202,-6.6357,-6.7001,-6.8118,-6.8623,-6.8889,-6.8889,-6.8889,-6.8889,-6.8889,-6.8889,-6.9093,-6.9953,-7.1044,-7.2207,-7.3394,-7.4439,-7.5388,-7.5388,-7.558,-7.5899,-7.6122,-7.6216,-7.6368,-7.6828,-7.6918,-7.6918,-7.7133,-7.7772,-7.8587,-7.9565,-8.0218,-8.1018,-8.2121,-8.2186,-8.281,-8.4425,-8.5747,-8.6628,-8.6995,-8.6995,-8.6995,-8.6995,-8.6995,-8.7298,-8.7836,-8.8346,-8.8969,-8.9714,-9.0167,-9.0465,-9.0593,-9.0593,-9.0593,-9.0593,-9.0593,-9.0593,-9.0593,-9.0593,-9.0593,-9.0593,-9.0593,-9.0593,-9.0593,-9.0593,-9.0759,-9.1026,-9.1226,-9.1522,-9.1734,-4.6308,-4.6308,-4.7488,-5.1011,-5.1682,-5.2846,-5.6518,-5.7021,-5.6828,-5.6299,-5.5746,-5.5193,-5.4664,-5.4135,-5.3822,-5.3822,-5.3822,-5.3822,-5.3822,-5.3822,-5.3822,-5.3822,-5.3822,-5.3822,-5.3822,-5.3822,-5.3822,-5.3822,-5.3822,-5.4397,-5.5582,-5.6725,-5.785,-5.9008,-6.0315,-6.0782,-6.0782,-6.0782,-6.0782,-6.0782,-6.0782,-6.0782,-6.0892,-6.227,-6.3169,-6.4052,-6.6109,-6.7245,-6.7998,-6.8623,-6.8889,-6.8889,-6.8889,-6.8889,-6.8889,-6.8889,-6.9325,-6.9839,-7.0375,-7.1778,-7.329,-7.3803,-7.4868,-7.5709,-7.5709,-7.5709,-7.5805,-7.6028,-7.6122,-7.6216,-7.6553,-7.6736,-7.6793,-7.7009,-7.7858,-7.88,-7.9565,-8.0366,-8.123,-8.2121,-8.2186,-8.281,-8.4425,-8.6077,-8.6995,-8.6995,-8.6995,-8.6995,-8.6995,-8.7298,-8.7683,-8.8287,-8.8914,-8.9528,-9.0121,-9.0427,-9.0593,-9.0593,-9.0593,-9.0593,-9.0593,-9.0593,-9.0593,-9.0593,-9.0593,-9.0593,-9.0593,-9.0593,-9.0593,-9.0593,-9.0593,-9.08,-9.1125,-9.0834,-9.0779,-9.0807,-4.6308,-4.6308,-4.7488,-5.1011,-5.1682,-5.2846,-5.6518,-5.7021,-5.6804,-5.6179,-5.5698,-5.5169,-5.4544,-5.4087,-5.3822,-5.3822,-5.3822,-5.3822,-5.3822,-5.3822,-5.3822,-5.3822,-5.3822,-5.3822,-5.3822,-5.3822,-5.3822,-5.3822,-5.3822,-5.4546,-5.5876,-5.687,-5.8018,-5.9315,-6.0315,-6.0782,-6.0755,-6.0674,-6.062,-6.062,-6.0511,-6.0593,-6.0973,-6.2361,-6.3665,-6.5182,-6.6577,-6.7907,-6.8889,-6.8889,-6.8889,-6.8889,-6.8889,-6.8889,-6.9006,-6.9093,-6.9839,-7.0711,-7.1044,-7.2526,-7.4038,-7.424,-7.4966,-7.5709,-7.5709,-7.5709,-7.5805,-7.6028,-7.6028,-7.6122,-7.6402,-7.6553,-7.6793,-7.694,-7.7961,-7.8928,-7.9798,-8.0623,-8.1368,-8.2121,-8.2443,-8.3141,-8.4462,-8.6077,-8.6995,-8.6995,-8.6995,-8.6995,-8.6995,-8.7554,-8.8205,-8.8748,-8.9376,-8.9991,-9.0593,-9.0593,-9.0593,-9.0593,-9.0593,-9.0593,-9.0593,-9.0593,-9.0593,-9.0593,-9.0593,-9.0593,-9.0593,-9.0593,-9.0593,-9.0593,-9.0482,-9.0722,-9.0975,-9.0132,-8.9615,-8.9352,-4.6308,-4.6308,-4.7488,-5.1011,-5.1682,-5.2846,-5.6518,-5.7021,-5.666,-5.565,-5.5433,-5.5025,-5.4039,-5.387,-5.3822,-5.3822,-5.3822,-5.3822,-5.3822,-5.3822,-5.3822,-5.3822,-5.3822,-5.3822,-5.3822,-5.3822,-5.3822,-5.3822,-5.3822,-5.4967,-5.7014,-5.7303,-5.8444,-6.0618,-6.0755,-6.0782,-6.0728,-6.0213,-5.9996,-5.9968,-5.9453,-5.9846,-6.1071,-6.232,-6.4041,-6.592,-6.7295,-6.828,-6.8889,-6.8889,-6.8889,-6.8889,-6.8889,-6.8889,-6.9093,-7.0067,-7.0487,-7.1044,-7.2946,-7.3803,-7.424,-7.5161,-7.558,-7.5709,-7.5709,-7.5709,-7.5709,-7.5709,-7.5805,-7.5805,-7.6122,-7.6216,-7.6611,-7.7754,-7.8647,-7.9572,-8.0587,-8.1474,-8.2055,-8.2186,-8.3434,-8.4352,-8.4572,-8.6077,-8.6995,-8.6995,-8.6995,-8.6995,-8.6995,-8.7554,-8.8205,-8.8748,-8.9376,-8.9991,-9.0593,-9.0593,-9.0593,-9.0593,-9.0593,-9.0593,-9.0593,-9.0593,-9.0593,-9.0593,-9.0593,-9.0593,-9.0593,-9.0593,-9.0593,-9.0517,-9.0033,-9.0017,-9.0111,-8.9055,-8.8156,-8.7443,-4.6308,-4.6308,-4.7488,-5.1011,-5.1682,-5.2846,-5.6518,-5.7021,-5.6636,-5.553,-5.5385,-5.5001,-5.3942,-5.3822,-5.3822,-5.3822,-5.3822,-5.3822,-5.3822,-5.3822,-5.3822,-5.3822,-5.3822,-5.3822,-5.3822,-5.3822,-5.4098,-5.4843,-5.4843,-5.5704,-5.7303,-5.8018,-5.9175,-6.0755,-6.043,-6.0267,-6.024,-5.9643,-5.9399,-5.9371,-5.91,-5.9731,-6.1075,-6.2438,-6.3847,-6.5502,-6.7286,-6.8335,-6.8889,-6.8889,-6.8889,-6.8889,-6.8889,-6.8889,-6.9093,-7.0293,-7.1044,-7.1886,-7.3599,-7.4439,-7.5064,-7.558,-7.5709,-7.5709,-7.5709,-7.5709,-7.5709,-7.5709,-7.5709,-7.5709,-7.5805,-7.6427,-7.7085,-7.7719,-7.9099,-8.0218,-8.084,-8.1647,-8.2186,-8.2186,-8.3618,-8.4609,-8.4609,-8.6077,-8.6995,-8.6995,-8.6995,-8.7132,-8.746,-8.8083,-8.8692,-8.9272,-8.9897,-9.034,-9.0593,-9.0593,-9.0593,-9.0593,-9.0593,-9.0593,-9.0593,-9.0593,-9.0593,-9.0593,-9.0593,-9.0593,-9.0555,-9.0058,-8.96,-8.9144,-8.85,-8.7924,-8.7383,-8.704,-8.6436,-8.5702]}]]